[[{"header":{"parameterUnit":"m.s-1","parameterCategory":1,"la1":30.6,"la2":28.766,"lo1":-90.7593,"lo2":-88.6598,"dy":0.0162,"dx":0.0183,"nx":116,"ny":114,"refTime":"2023-06-28T12:00:00:Z","depth":0,"parameterNumber":2,"parameterNumberName":"U-component_of_WINDS"},"data":[0.0,0.0,0.0,0.0,0.0,0.0,0.0,0.0,0.0,0.0,0.0,0.0,0.0,0.0,0.0,0.0,0.0,0.0,0.0,0.0,0.0,0.0,0.0,0.0,0.0,0.0,0.0,0.0,0.0,0.0,0.0,0.0,0.0,0.0,0.0,0.0,0.0,0.0,0.0,0.0,0.0,0.0,0.0,0.0,0.0,0.0,0.0,0.0,0.0,0.0,0.0,0.0,0.0,0.0,0.0,0.0,0.0,0.0,0.0,0.0,0.0,0.0,0.0,0.0,0.0,0.0,0.0,0.0,0.0,0.0,0.0,0.0,0.0,0.0,0.0,0.0,0.0,0.0,0.0,0.0,0.0,0.0,0.0,0.0,0.0,0.0,0.0,0.0,0.0,0.0,0.0,0.0,0.0,0.0,0.0,0.0,0.0,0.0,0.0,0.0,0.0,0.0,0.0,0.0,0.0,0.0,0.0,0.0,0.0,0.0,0.0,0.0,0.0,0.0,0.0,0.0,0.0,0.0,0.0,0.0,0.0,0.0,0.0,0.0,0.0,0.0,0.0,0.0,0.0,0.0,0.0,0.0,0.0,0.0,0.0,0.0,0.0,0.0,0.0,0.0,0.0,0.0,0.0,0.0,0.0,0.0,0.0,0.0,0.0,0.0,0.0,0.0,0.0,0.0,0.0,0.0,0.0,0.0,0.0,0.0,0.0,0.0,0.0,0.0,0.0,0.0,0.0,0.0,0.0,0.0,0.0,0.0,0.0,0.0,0.0,0.0,0.0,0.0,0.0,0.0,0.0,0.0,0.0,0.0,0.0,0.0,0.0,0.0,0.0,0.0,0.0,0.0,0.0,0.0,0.0,0.0,0.0,0.0,0.0,0.0,0.0,0.0,0.0,0.0,0.0,0.0,0.0,0.0,0.0,0.0,0.0,0.0,0.0,0.0,0.0,0.0,0.0,0.0,0.0,0.0,0.0,0.0,0.0,0.0,0.0,0.0,0.0,0.0,0.0,0.0,0.0,0.0,0.0,0.0,0.0,0.0,0.0,0.0,0.0,0.0,0.0,0.0,0.0,0.0,0.0,0.0,0.0,0.0,0.0,0.0,0.0,0.0,0.0,0.0,0.0,0.0,0.0,0.0,0.0,0.0,0.0,0.0,0.0,0.0,0.0,0.0,0.0,0.0,0.0,0.0,0.0,0.0,0.0,0.0,0.0,0.0,0.0,0.0,0.0,0.0,0.0,0.0,0.0,0.0,0.0,0.0,0.0,0.0,0.0,0.0,0.0,0.0,0.0,0.0,0.0,0.0,0.0,0.0,0.0,0.0,0.0,0.0,0.0,0.0,0.0,0.0,0.0,0.0,0.0,0.0,0.0,0.0,0.0,0.0,0.0,0.0,0.0,0.0,0.0,0.0,0.0,0.0,0.0,0.0,0.0,0.0,0.0,0.0,0.0,0.0,0.0,0.0,0.0,0.0,0.0,0.0,0.0,0.0,0.0,0.0,0.0,0.0,0.0,0.0,0.0,0.0,0.0,0.0,0.0,0.0,0.0,0.0,0.0,0.0,0.0,0.0,0.0,0.0,0.0,0.0,0.0,0.0,0.0,0.0,0.0,0.0,0.0,0.0,0.0,0.0,0.0,0.0,0.0,0.0,0.0,0.0,0.0,0.0,0.0,0.0,0.0,0.0,0.0,0.0,0.0,0.0,0.0,0.0,0.0,0.0,0.0,0.0,0.0,0.0,0.0,0.0,0.0,0.0,0.0,0.0,0.0,0.0,0.0,0.0,0.0,0.0,0.0,0.0,0.0,0.0,0.0,0.0,0.0,0.0,0.0,0.0,0.0,0.0,0.0,0.0,0.0,0.0,0.0,0.0,0.0,0.0,0.0,0.0,0.0,0.0,0.0,0.0,0.0,0.0,0.0,0.0,0.0,0.0,0.0,0.0,0.0,0.0,0.0,0.0,0.0,0.0,0.0,0.0,0.0,0.0,0.0,0.0,0.0,0.0,0.0,0.0,0.0,0.0,0.0,0.0,0.0,0.0,0.0,0.0,0.0,0.0,0.0,0.0,0.0,0.0,0.0,0.0,0.0,0.0,0.0,0.0,0.0,0.0,0.0,0.0,0.0,0.0,0.0,0.0,0.0,0.0,0.0,0.0,0.0,0.0,0.0,0.0,0.0,0.0,0.0,0.0,0.0,0.0,0.0,0.0,0.0,0.0,0.0,0.0,0.0,0.0,0.0,0.0,0.0,0.0,0.0,0.0,0.0,0.0,0.0,0.0,0.0,0.0,0.0,0.0,0.0,0.0,0.0,0.0,0.0,0.0,0.0,0.0,0.0,0.0,0.0,0.0,0.0,0.0,0.0,0.0,0.0,0.0,0.0,0.0,0.0,0.0,0.0,0.0,0.0,0.0,0.0,0.0,0.0,0.0,0.0,0.0,0.0,0.0,0.0,0.0,0.0,0.0,0.0,0.0,0.0,0.0,0.0,0.0,0.0,0.0,0.0,0.0,0.0,0.0,0.0,0.0,0.0,0.0,0.0,0.0,0.0,0.0,0.0,0.0,0.0,0.0,0.0,0.0,0.0,0.0,0.0,0.0,0.0,0.0,0.0,0.0,0.0,0.0,0.0,0.0,0.0,0.0,0.0,0.0,0.0,0.0,0.0,0.0,0.0,0.0,0.0,0.0,0.0,0.0,0.0,0.0,0.0,0.0,0.0,0.0,0.0,0.0,0.0,0.0,0.0,0.0,0.0,0.0,0.0,0.0,0.0,0.0,0.0,0.0,0.0,0.0,0.0,0.0,0.0,0.0,0.0,0.0,0.0,0.0,0.0,0.0,0.0,0.0,0.0,0.0,0.0,0.0,0.0,0.0,0.0,0.0,0.0,0.0,0.0,0.0,0.0,0.0,0.0,0.0,0.0,0.0,0.0,0.0,0.0,0.0,0.0,0.0,0.0,0.0,0.0,0.0,0.0,0.0,0.0,0.0,0.0,0.0,0.0,0.0,0.0,0.0,0.0,0.0,0.0,0.0,0.0,0.0,0.0,0.0,0.0,0.0,0.0,0.0,0.0,0.0,0.0,0.0,0.0,0.0,0.0,0.0,0.0,0.0,0.0,0.0,0.0,0.0,0.0,0.0,0.0,0.0,0.0,0.0,0.0,0.0,0.0,0.0,0.0,0.0,0.0,0.0,0.0,0.0,0.0,0.0,0.0,0.0,0.0,0.0,0.0,0.0,0.0,0.0,0.0,0.0,0.0,0.0,0.0,0.0,0.0,0.0,0.0,0.0,0.0,0.0,0.0,0.0,0.0,0.0,0.0,0.0,0.0,0.0,0.0,0.0,0.0,0.0,0.0,0.0,0.0,0.0,0.0,0.0,0.0,0.0,0.0,0.0,0.0,0.0,0.0,0.0,0.0,0.0,0.0,0.0,0.0,0.0,0.0,0.0,0.0,0.0,0.0,0.0,0.0,0.0,0.0,0.0,0.0,0.0,0.0,0.0,0.0,0.0,0.0,0.0,0.0,0.0,0.0,0.0,0.0,0.0,0.0,0.0,0.0,0.0,0.0,0.0,0.0,0.0,0.0,0.0,0.0,0.0,0.0,0.0,0.0,0.0,0.0,0.0,0.0,0.0,0.0,0.0,0.0,0.0,0.0,0.0,0.0,0.0,0.0,0.0,0.0,0.0,0.0,0.0,0.0,0.0,0.0,0.0,0.0,0.0,0.0,0.0,0.0,0.0,0.0,0.0,0.0,0.0,0.0,0.0,0.0,0.0,0.0,0.0,0.0,0.0,0.0,0.0,0.0,0.0,0.0,0.0,0.0,0.0,0.0,0.0,0.0,0.0,0.0,0.0,0.0,0.0,0.0,0.0,0.0,0.0,0.0,0.0,0.0,0.0,0.0,0.0,0.0,0.0,0.0,0.0,0.0,0.0,0.0,0.0,0.0,0.0,0.0,0.0,0.0,0.0,0.0,0.0,0.0,0.0,0.0,0.0,0.0,0.0,0.0,0.0,0.0,0.0,0.0,0.0,0.0,0.0,0.0,0.0,0.0,0.0,0.0,0.0,0.0,0.0,0.0,0.0,0.0,0.0,0.0,0.0,0.0,0.0,0.0,0.0,0.0,0.0,0.0,0.0,0.0,0.0,0.0,0.0,0.0,0.0,0.0,0.0,0.0,0.0,0.0,0.0,0.0,0.0,0.0,0.0,0.0,0.0,0.0,0.0,0.0,0.0,0.0,0.0,0.0,0.0,0.0,0.0,0.0,0.0,0.0,0.0,0.0,0.0,0.0,0.0,0.0,0.0,0.0,0.0,0.0,0.0,0.0,0.0,0.0,0.0,0.0,0.0,0.0,0.0,0.0,0.0,0.0,0.0,0.0,0.0,0.0,0.0,0.0,0.0,0.0,0.0,0.0,0.0,0.0,0.0,0.0,0.0,0.0,0.0,0.0,0.0,0.0,0.0,0.0,0.0,0.0,0.0,0.0,0.0,0.0,0.0,0.0,0.0,0.0,0.0,0.0,0.0,0.0,0.0,0.0,0.0,0.0,0.0,0.0,0.0,0.0,0.0,0.0,0.0,0.0,0.0,0.0,0.0,0.0,0.0,0.0,0.0,0.0,0.0,0.0,0.0,0.0,0.0,0.0,0.0,0.0,0.0,0.0,0.0,0.0,0.0,0.0,0.0,0.0,0.0,0.0,0.0,0.0,0.0,0.0,0.0,0.0,0.0,0.0,0.0,0.0,0.0,0.0,0.0,0.0,0.0,0.0,0.0,0.0,0.0,0.0,0.0,0.0,0.0,0.0,0.0,0.0,0.0,0.0,0.0,0.0,0.0,0.0,0.0,0.0,0.0,0.0,0.0,0.0,0.0,0.0,0.0,0.0,0.0,0.0,0.0,0.0,0.0,0.0,0.0,0.0,0.0,0.0,0.0,0.0,0.0,0.0,0.0,0.0,0.0,0.0,0.0,0.0,0.0,0.0,0.0,0.0,0.0,0.0,0.0,0.0,0.0,0.0,0.0,0.0,0.0,0.0,0.0,0.0,0.0,0.0,0.0,0.0,0.0,0.0,0.0,0.0,0.0,0.0,0.0,0.0,0.0,0.0,0.0,0.0,0.0,0.0,0.0,0.0,0.0,0.0,0.0,0.0,0.0,0.0,0.0,0.0,0.0,0.0,0.0,0.0,0.0,0.0,0.0,0.0,0.0,0.0,0.0,0.0,0.0,0.0,0.0,0.0,0.0,0.0,0.0,0.0,0.0,0.0,0.0,0.0,0.0,0.0,0.0,0.0,0.0,0.0,0.0,0.0,0.0,0.0,0.0,0.0,0.0,0.0,0.0,0.0,0.0,0.0,0.0,0.0,0.0,0.0,0.0,0.0,0.0,0.0,0.0,0.0,0.0,0.0,0.0,0.0,0.0,0.0,0.0,0.0,0.0,0.0,0.0,0.0,0.0,0.0,0.0,0.0,0.0,0.0,0.0,0.0,0.0,0.0,0.0,0.0,0.0,0.0,0.0,0.0,0.0,0.0,0.0,0.0,0.0,0.0,0.0,0.0,0.0,0.0,0.0,0.0,0.0,0.0,0.0,0.0,0.0,0.0,0.0,0.0,0.0,0.0,0.0,0.0,0.0,0.0,0.0,0.0,0.0,0.0,0.0,0.0,0.0,0.0,0.0,0.0,0.0,0.0,0.0,0.0,0.0,0.0,0.0,0.0,0.0,0.0,0.0,0.0,0.0,0.0,0.0,0.0,0.0,0.0,0.0,0.0,0.0,0.0,0.0,0.0,0.0,0.0,0.0,0.0,0.0,0.0,0.0,0.0,0.0,0.0,0.0,0.0,0.0,0.0,0.0,0.0,0.0,0.0,0.0,0.0,0.0,0.0,0.0,0.0,0.0,0.0,0.0,0.0,0.0,0.0,0.0,0.0,0.0,0.0,0.0,0.0,0.0,0.0,0.0,0.0,0.0,0.0,0.0,0.0,0.0,0.0,0.0,0.0,0.0,0.0,0.0,0.0,0.0,0.0,0.0,0.0,0.0,0.0,0.0,0.0,0.0,0.0,0.0,0.0,0.0,0.0,0.0,0.0,0.0,0.0,0.0,-1.3826,-1.4075,0.0,0.0,0.0,0.0,0.0,0.0,0.0,0.0,0.0,0.0,0.0,0.0,0.0,0.0,0.0,0.0,0.0,0.0,0.0,0.0,0.0,0.0,0.0,0.0,0.0,0.0,0.0,0.0,0.0,0.0,0.0,0.0,0.0,0.0,0.0,0.0,0.0,0.0,0.0,0.0,0.0,0.0,0.0,0.0,0.0,0.0,0.0,0.0,0.0,0.0,0.0,0.0,0.0,0.0,0.0,0.0,0.0,0.0,0.0,0.0,0.0,0.0,0.0,0.0,0.0,0.0,0.0,0.0,0.0,0.0,0.0,0.0,0.0,0.0,0.0,0.0,0.0,0.0,0.0,0.0,0.0,0.0,0.0,0.0,0.0,0.0,0.0,0.0,0.0,0.0,0.0,0.0,0.0,0.0,0.0,0.0,0.0,0.0,0.0,0.0,0.0,0.0,0.0,0.0,0.0,0.0,0.0,0.0,0.0,0.0,0.0,0.0,0.0,0.0,-1.4159,-1.4298,0.0,0.0,0.0,0.0,0.0,0.0,0.0,0.0,0.0,0.0,0.0,0.0,0.0,0.0,0.0,0.0,0.0,0.0,0.0,0.0,0.0,0.0,0.0,0.0,0.0,0.0,0.0,0.0,0.0,0.0,0.0,0.0,0.0,0.0,0.0,0.0,0.0,0.0,0.0,0.0,0.0,0.0,0.0,0.0,0.0,0.0,0.0,0.0,0.0,0.0,0.0,0.0,0.0,0.0,0.0,0.0,0.0,0.0,0.0,0.0,0.0,0.0,0.0,0.0,0.0,0.0,0.0,0.0,0.0,0.0,0.0,0.0,0.0,0.0,0.0,0.0,0.0,0.0,0.0,0.0,0.0,0.0,0.0,0.0,0.0,0.0,0.0,0.0,0.0,0.0,0.0,0.0,0.0,0.0,0.0,0.0,0.0,0.0,0.0,0.0,0.0,0.0,0.0,0.0,0.0,0.0,0.0,0.0,-1.2196,-1.3242,-1.426,-1.435,-1.4172,-1.3803,-1.4378,-1.4485,-1.435,-1.6031,0.0,0.0,0.0,0.0,0.0,0.0,0.0,0.0,0.0,0.0,0.0,0.0,0.0,0.0,0.0,0.0,0.0,0.0,0.0,0.0,0.0,0.0,0.0,0.0,0.0,0.0,0.0,0.0,0.0,0.0,0.0,0.0,0.0,0.0,0.0,0.0,0.0,0.0,0.0,0.0,0.0,0.0,0.0,0.0,0.0,0.0,0.0,0.0,0.0,0.0,0.0,0.0,0.0,0.0,0.0,0.0,0.0,0.0,0.0,0.0,0.0,0.0,0.0,0.0,0.0,0.0,0.0,0.0,0.0,0.0,0.0,0.0,0.0,0.0,0.0,0.0,0.0,0.0,0.0,0.0,0.0,0.0,0.0,0.0,0.0,0.0,-0.5269,-0.5074,0.0,0.0,0.0,0.0,0.0,0.0,0.0,0.0,0.0,0.0,0.0,0.0,0.0,-0.8916,-0.9467,-0.9613,-1.0194,-1.1228,-1.1771,-1.2248,-1.2615,-1.3031,-1.3209,-1.3164,-1.3779,0.0,-1.4708,-1.4497,0.0,0.0,0.0,0.0,0.0,0.0,0.0,0.0,0.0,0.0,0.0,0.0,0.0,0.0,0.0,0.0,0.0,0.0,0.0,0.0,0.0,0.0,0.0,0.0,0.0,0.0,0.0,0.0,0.0,0.0,0.0,0.0,0.0,0.0,0.0,0.0,0.0,0.0,0.0,0.0,0.0,0.0,0.0,0.0,-0.0,-0.0,0.0,0.0,0.0,0.0,0.0,0.0,0.0,0.0,0.0,0.0,0.0,0.0,0.0,0.0,0.0,0.0,0.0,0.0,0.0,0.0,0.0,0.0,0.0,0.0,0.0,0.0,0.0,0.0,0.0,0.0,0.0,0.0,0.0,0.0,0.0,0.0,0.0,0.0,0.0,-0.5006,-0.5403,-0.504,-0.5553,-0.6168,0.0,0.0,0.0,0.0,0.0,0.0,0.0,0.0,0.0,-0.8624,-0.8744,-0.8962,-0.9211,-0.9379,-1.0121,-1.1344,-1.1746,-1.2425,-1.333,-1.3514,-1.3611,-1.3621,-1.3924,-1.4408,-1.4931,-1.4563,-1.4557,-1.4808,0.0,0.0,0.0,0.0,-1.5945,-1.6273,0.0,0.0,0.0,0.0,0.0,0.0,0.0,0.0,0.0,0.0,0.0,0.0,0.0,0.0,0.0,-0.3832,0.0,0.0,0.0,0.0,0.0,0.0,0.0,0.0,0.0,0.0,0.0,0.0,0.0,0.0,0.0,0.0,0.0,0.0,0.0,0.0,0.0,0.0,0.0513,0.0,0.0,0.0,0.0,0.0,0.0,0.0,0.0,0.0,0.0,0.0,0.0,0.0,0.0,0.0,0.0,0.0,0.0,0.0,0.0,0.0,0.0,0.0,0.0,0.0,0.0,0.0,0.0,0.0,0.0,0.0,0.0,0.0,0.0,0.0,0.0,0.0,0.0,-0.4837,-0.5126,-0.4808,-0.4992,-0.5479,0.0,0.0,0.0,0.0,0.0,0.0,-0.8171,-0.85,-0.8769,-0.8925,-0.9065,-0.9145,-0.9145,-0.9352,-1.0171,-1.1756,-1.1867,-1.2677,-1.4077,-1.4077,-1.4077,-1.4077,-1.4077,-1.4397,-1.4873,-1.5006,-1.5028,-1.5017,-1.5748,-1.613,-1.6269,-1.6273,-1.6239,-1.619,0.0,0.0,0.0,0.0,0.0,0.0,0.0,0.0,0.0,0.0,0.0,0.0,0.0,0.0,-0.3697,-0.3982,-0.3942,-0.3925,0.0,0.0,0.0,0.0,0.0,0.0,0.0,0.0,0.0,0.0,0.0,0.0,0.0,0.0,0.0,0.0,0.0,0.0,0.0,0.0,0.0,0.0,0.0,0.0,0.0,0.0,0.0,0.0,0.0,0.0,0.0,0.0,0.0,0.0,0.0,0.0,0.0,0.0,0.0,0.0,0.0,0.0,0.0,0.0,0.0,0.0,0.0,0.0,0.0,0.0,0.0,0.0,0.0,0.0,0.0,0.0,0.0,0.0,0.0,0.0,0.0,-0.3896,-0.4124,0.0,0.0,0.0,0.0,-0.6568,-0.6814,-0.7173,-0.7717,-0.817,-0.8679,-0.917,-0.976,-1.0053,-1.0053,-1.0067,-1.084,-1.2356,-1.2068,-1.2677,-1.4077,-1.4077,-1.4077,-1.4077,-1.4077,-1.4131,-1.4228,-1.5564,-1.5807,-1.5395,-1.6788,-1.6618,-1.566,-1.5711,-1.5718,-1.5658,0.0,0.0,0.0,0.0,0.0,0.0,0.0,0.0,0.0,0.0,0.0,0.0,0.0,-0.3832,-0.3944,-0.41,-0.4212,-0.385,-0.2864,0.0,0.0,0.0,0.0,0.0,0.0,0.0,0.0,0.0,0.0,0.0,0.0,0.0,0.0,0.0,0.0,0.0,0.0,0.0,0.0,0.0,0.0,0.0,0.0,0.0,0.0,0.0,0.0,0.0,0.0,0.0,0.0,0.0,0.0,0.0,0.0,0.0,0.0,0.0,0.0,0.0,0.0,0.0,0.0,0.0,0.0,0.0,0.0,0.0,0.0,0.0,0.0,0.0,0.0,0.0,0.0,0.0,0.0,0.0,0.0,-0.4412,-0.4555,0.0,-0.502,-0.503,-0.5284,-0.5906,-0.6076,-0.6421,-0.6966,-0.803,-0.8823,-0.9224,-1.0153,-1.0768,-1.0955,-1.0962,-1.1479,-1.2572,-1.3058,-1.3864,-1.4911,-1.5492,-1.5751,-1.5751,-1.5751,-1.5751,-1.59,-1.7065,-1.6874,-1.5969,-1.6955,-1.7333,-1.7276,-1.7285,-1.7313,-1.7287,0.0,0.0,0.0,0.0,0.0,0.0,0.0,0.0,0.0,0.0,0.0,-0.3721,-0.3721,-0.39,-0.41,-0.4304,-0.4381,-0.3782,-0.2318,0.0,0.0,0.0,0.0,0.0,0.0,0.0,0.0,0.0,0.0,0.0,0.0,0.0,0.0,0.0,0.0,0.0,0.0,0.0,0.0,0.0,0.0,0.0,0.4222,0.0,0.0,0.0,0.0,0.0,0.0,0.0,0.0,0.0,0.0,0.0,0.0,0.0,0.0,0.0,0.0,0.0,0.0,0.0,0.0,0.0,0.0,0.0,0.0,0.0,0.0,0.0,0.0,0.0,0.0,0.0,0.0,0.0,0.0,0.0,-0.5095,-0.4807,-0.4901,-0.4989,-0.4989,-0.4945,-0.51,-0.5521,-0.5632,-0.6145,-0.7169,-0.8201,-0.9139,-0.9987,-1.0862,-1.1383,-1.1577,-1.1577,-1.1985,-1.2877,-1.3683,-1.4541,-1.5321,-1.6265,-1.6665,-1.6665,-1.6665,-1.6665,-1.6762,-1.7768,-1.7677,-1.6987,-1.7635,-1.8006,-1.8204,-1.8204,-1.8204,-1.8179,0.0,0.0,0.0,0.0,0.0,0.0,0.0,0.0,0.0,0.0,-0.3314,-0.3592,-0.3588,-0.3853,-0.4148,-0.4491,-0.431,-0.364,-0.2332,-0.0861,0.0,0.0,0.0,0.0,0.0,0.0,0.0,0.0,0.0,0.0,0.0,0.0,0.0,0.0,0.0,0.0,0.0,0.0,0.0,0.0,0.0,0.0,0.4394,0.0,0.0,0.0,0.0,0.0,0.0,0.0,0.0,0.0,0.0,0.0,0.0,0.0,0.0,0.0,0.0,0.0,0.0,0.0,0.0,0.0,0.0,0.0,0.0,0.0,0.0,0.0,0.0,0.0,0.0,0.0,0.0,0.0,-0.5374,-0.5053,-0.4762,-0.4921,-0.5064,-0.5152,-0.5152,-0.5287,-0.5442,-0.5442,-0.5579,-0.6478,-0.83,-0.8582,-0.948,-1.1299,-1.1724,-1.1884,-1.1884,-1.1884,-1.2303,-1.3142,-1.3819,-1.4575,-1.5357,-1.6303,-1.6714,-1.6714,-1.6714,-1.6777,-1.6831,-1.7585,-1.8083,-1.8442,-1.8858,-1.8695,-1.8254,-1.8254,-1.8254,-1.8179,0.0,0.0,0.0,0.0,0.0,0.0,0.0,0.0,0.0,0.0,-0.3811,-0.3856,-0.3744,-0.4097,-0.4375,-0.4512,-0.4202,-0.3849,-0.3511,0.0,0.0,0.0,0.0,0.0,0.0,0.0,0.0,0.0,0.0,0.0,0.0,0.0,0.0,0.0,0.0,0.0,0.0,0.0,0.0,0.0,0.0,0.0,0.4665,0.0,0.0,0.0,0.0,0.0,0.0,0.0,0.0,0.0,0.0,0.0,0.0,0.0,0.0,0.0,0.0,0.0,0.0,0.0,0.0,0.0,0.0,0.0,0.0,0.0,0.0,0.0,0.0,0.0,0.0,0.0,0.0,-0.4803,-0.5019,-0.5036,-0.5108,-0.5376,-0.5532,-0.5616,-0.5616,-0.5654,-0.5681,-0.5681,-0.6413,-0.707,-0.7552,-0.9172,-1.0313,-1.0812,-1.1735,-1.2184,-1.2184,-1.2184,-1.2615,-1.3539,-1.4425,-1.5351,-1.6242,-1.7235,-1.7656,-1.7656,-1.7656,-1.7979,-1.8651,-1.8975,-1.9609,-2.0182,-1.9555,-1.9303,-1.9359,-1.9359,-1.9359,-1.9284,0.0,0.0,0.0,0.0,0.0,0.0,0.0,0.0,0.0,0.0,-0.3725,-0.3866,-0.3716,-0.4066,-0.4277,-0.4277,-0.4073,-0.3951,-0.3965,0.0,0.0,0.0,0.0,0.0,0.0,0.0,0.0,0.0,0.0,0.0,0.0,0.0,0.0,0.0,0.0,0.0,0.0,0.0,0.0,0.0,0.0,0.0,0.5654,0.5252,0.5095,0.4841,0.3891,0.425,0.4879,0.2844,0.0,0.0,0.0,0.0,0.0,0.0,0.0,0.0,0.0,0.0,0.0,0.0,0.0,0.0,0.0,0.0,0.0,0.0,0.0,0.0,0.0,0.0,0.0,0.0,-0.5303,-0.5243,-0.5365,-0.5348,-0.541,-0.565,-0.5806,-0.5895,-0.5895,-0.601,-0.6081,-0.6081,-0.6666,-0.7454,-0.8346,-0.951,-1.0587,-1.1489,-1.2175,-1.2648,-1.2879,-1.3012,-1.3521,-1.4314,-1.5296,-1.607,-1.6636,-1.7569,-1.8008,-1.8008,-1.8008,-1.8269,-1.8834,-1.9318,-1.9894,-2.041,0.0,0.0,0.0,0.0,-1.9798,-1.9723,0.0,0.0,0.0,0.0,0.0,0.0,0.0,0.0,0.0,0.0,0.0,-0.3721,-0.3544,-0.3769,-0.3951,-0.3968,-0.3955,-0.3919,0.0,0.0,0.0,0.0,0.0,0.0,0.0,0.0,0.0,0.0,0.0,0.0,0.0,0.0,0.0,0.0,0.0,0.0,0.0,0.0,0.0,0.0,0.0,0.0,0.6861,0.603,0.5716,0.5709,0.55,0.5289,0.5062,0.514,0.0,0.0,0.0,0.0,0.0,0.0,0.0,0.0,0.0,0.0,0.0,0.0,0.0,0.0,0.0,0.0,0.0,0.0,0.0,0.0,0.0,0.0,0.0,0.0,-0.5477,-0.5769,-0.6064,-0.5895,-0.5783,-0.5888,-0.6023,-0.6105,-0.6105,-0.6342,-0.6498,-0.6498,-0.6866,-0.7918,-0.9776,-0.9915,0.0,0.0,0.0,-1.312,-1.3645,-1.4037,-1.4533,-1.5292,-1.6167,-1.6636,-1.6784,-1.7647,-1.8008,-1.8008,-1.8008,-1.8144,-1.8337,-1.911,-1.9651,-2.0045,-2.0575,-2.0769,-2.0655,-2.0087,-1.9861,-1.9736,0.0,0.0,0.0,0.0,0.0,0.0,0.0,0.0,0.0,-0.2987,-0.3306,-0.3528,-0.3244,-0.3349,-0.3487,-0.3653,-0.3551,-0.3546,0.0,0.0,0.0,0.0,0.0,0.0,0.0,0.0,0.0,0.0,0.0,0.0,0.0,0.0,0.0,0.0,0.0,0.0,0.0,0.0,0.0,0.0,0.0,0.0,0.7054,0.6641,0.6373,0.6173,0.5837,0.5861,0.5989,0.5679,0.5054,0.3854,0.0929,0.0,0.0,0.0,0.0,0.0,0.0,0.0,0.0,0.0,0.0,0.0,0.0,0.0,0.0,0.0,0.0,0.0,0.0,0.0,0.0,-0.5789,-0.601,-0.6234,-0.6529,-0.6627,-0.6634,-0.6539,-0.6552,-0.6573,-0.6573,-0.6624,-0.6658,-0.6658,-0.8302,-0.9452,-0.9857,-1.1523,-1.2713,-1.312,-1.312,-1.3171,-1.3267,-1.3903,-1.4649,-1.5511,-1.6219,0.0,-1.7725,-1.794,-1.8008,-1.8008,-1.8008,-1.8787,-2.0139,-2.0268,-2.0927,-2.1756,-2.1469,-2.1054,-2.0706,-2.0592,-2.02,-1.9786,0.0,0.0,0.0,0.0,0.0,0.0,0.0,0.0,0.0,0.0,-0.3452,-0.3658,-0.3746,-0.3826,-0.387,-0.4001,-0.3677,0.0,0.0,0.0,0.0,0.0,0.0,0.0,0.0,0.0,0.0,0.0,0.0,0.0,0.0,0.0,0.0,0.0,0.0,0.0,0.0,0.0,0.0,0.0,0.0,0.0,0.748,0.7104,0.6826,0.6688,0.6374,0.6301,0.6264,0.5966,0.5625,0.5027,0.2945,0.1201,-0.0,0.0,0.0,0.0,0.0,0.0,0.0,0.0,0.0,0.0,0.0,0.0,0.0,0.0,0.0,-0.3911,0.0,0.0,-0.5952,-0.6318,-0.662,-0.6841,-0.6909,-0.7054,-0.7037,-0.6736,-0.677,-0.6783,-0.6709,-0.677,-0.6814,-0.6814,-0.8388,-0.9611,-1.0193,-1.1747,-1.2843,-1.3346,-1.3968,-1.4431,-1.4724,-1.571,-1.6512,-1.709,-1.7469,-1.777,-1.8008,-1.8008,-1.8008,-1.8008,-1.8008,-1.8721,-2.0009,-2.091,-2.1834,-2.2698,-2.2422,-2.1631,-2.0756,-2.0978,-2.0727,-2.0238,0.0,0.0,0.0,0.0,0.0,0.0,0.0,0.0,0.0,0.0,0.0,-0.3652,-0.4062,-0.4099,-0.4109,0.0,0.0,0.0,0.0,0.0,0.0,0.0,0.0,0.0,0.0,0.0,0.0,0.0,0.0,0.0,0.0,0.0,0.0,0.0,0.0,0.0,0.0,0.0,0.0,0.0,0.0,0.0,0.7232,0.7295,0.6958,0.6508,0.6343,0.636,0.6337,0.5641,0.5591,0.5676,0.5186,0.2673,-0.0,-0.0,-0.0,0.0,0.0,0.0,0.0,0.0,0.0,0.0,0.0,0.0,-0.2169,-0.3677,-0.3072,-0.2793,-0.4289,-0.5542,-0.6509,-0.6814,-0.7139,-0.7326,-0.7204,-0.7292,-0.7227,-0.6834,-0.6895,-0.6922,-0.6797,-0.6898,-0.7056,-0.7311,-0.8463,-0.9753,-1.0869,-1.1798,-1.2787,-1.3645,-1.46,-1.542,-1.6134,-1.7372,-1.8188,-1.8519,-1.8569,-1.8457,-1.8125,-1.8047,-1.8008,-1.8008,-1.8327,-1.9029,-2.0074,-2.1526,-2.2567,-2.3288,-2.3175,-2.2246,-2.1041,-2.1493,-2.1305,-2.0882,0.0,0.0,0.0,0.0,0.0,0.0,0.0,0.0,0.0,0.0,0.0,0.0,0.0,0.0,0.0,0.0,0.0,0.0,0.0,0.0,0.0,0.0,0.0,0.0,0.0,0.0,0.0,0.0,0.0,0.0,0.0,0.0,0.0,0.0,0.0,0.0,0.0,0.0,0.0,0.0,0.0,0.0,0.472,0.7036,0.6463,0.4319,0.4334,0.5491,0.6606,0.4203,0.4959,0.6901,0.6857,0.3691,-0.0,-0.0,0.0,-0.0061,-0.0177,-0.0235,-0.0905,-0.3593,-0.2222,-0.0267,0.0,0.0,-0.0308,-0.0476,-0.1701,-0.2221,-0.091,-0.3951,-0.6877,-0.7302,-0.7353,-0.7366,-0.735,-0.736,-0.7302,-0.7115,-0.7105,-0.7109,-0.7092,-0.7105,-0.7552,-0.8599,-0.974,-1.0869,-1.2066,-1.3178,-1.3951,-1.4041,-1.4203,-1.4747,-1.5748,-1.6516,-1.7364,-1.837,-1.848,-1.8613,-1.8555,-1.8184,-1.8008,-1.8076,-1.9628,-2.1096,-2.2339,-2.2764,-2.3304,-2.3853,-2.3339,-2.2723,-2.2133,-2.2196,-2.187,-2.1393,0.0,0.0,0.0,0.0,0.0,0.0,0.0,0.0,0.0,0.0,0.0,0.0,0.0,0.0,0.0,0.0,0.0,0.0,0.0,0.0,0.0,0.0,0.0,0.0,0.0,0.0,0.0,0.0,0.0,0.0,0.0,0.0,0.0,0.0,0.0,0.0,0.0,0.0,0.0,0.0,0.0,0.0,0.4331,0.6938,0.7344,0.5891,0.2828,0.2189,0.0,0.0,0.4344,0.2946,0.2969,0.1598,-0.0,-0.0,-0.0,0.0,-0.2114,-0.1358,-0.033,0.0,-0.0932,-0.0,-0.0,-0.0,-0.0,-0.0,-0.3071,-0.5097,-0.2793,-0.5179,-0.746,0.0,-0.758,-0.7567,-0.7397,-0.737,-0.7282,-0.7044,-0.753,-0.7906,-0.8093,-0.8193,-0.8623,-0.9836,-1.0956,-1.1871,-1.2545,-1.356,-1.4162,-1.4335,-1.4825,-1.5545,-1.6601,-1.7578,-1.8422,-1.9212,-1.9078,-1.8887,-1.8623,-1.8203,-1.8269,-1.8854,-2.059,-2.1682,-2.2249,-2.2849,-2.3215,-2.3477,-2.3226,-2.2927,-2.2786,-2.2786,-2.2447,-2.197,0.0,0.0,0.0,0.0,0.0,0.0,0.0,0.0,0.0,0.0,0.0,0.0,0.0,0.0,0.0,0.0,0.0,0.0,0.0,0.0,0.0,0.0,0.0,0.0,0.0,0.0,0.0,0.0,0.0,0.0,0.0,0.0,0.0,0.0,0.0,0.0,0.0,0.0,0.0,0.0,0.0,0.0,0.315,0.5032,0.5771,0.5281,0.1352,-0.0,0.0,0.0,0.229,-0.1217,-0.1259,-0.0972,-0.0616,-0.0702,-0.0704,-0.112,-0.359,0.0,0.0,-0.0218,-0.1092,-0.2167,-0.2207,-0.1645,-0.1066,-0.1105,-0.4116,-0.6446,-0.5168,-0.6545,-0.7699,-0.7523,-0.7617,-0.7567,-0.7397,-0.7302,-0.7255,-0.7293,-0.7897,-0.867,-0.9572,-0.9379,-0.9775,-1.095,-1.1963,-1.2689,-1.3242,-1.3873,-1.4302,-1.4509,-1.5303,-1.6191,-1.7253,-1.839,-1.9372,-2.0088,-1.9668,-1.9238,-1.8799,-1.8517,-1.8977,-2.0074,-2.1365,-2.2097,-2.2541,-2.2946,-2.3226,-2.3364,-2.3128,-2.3078,-2.3078,-2.3078,-2.2874,-2.2535,0.0,0.0,0.0,0.0,0.0,0.0,0.0,0.0,0.0,0.0,0.0,0.0,0.0,0.0,0.0,0.0,0.0,0.0,0.0,0.0,0.0,0.0,0.0,0.0,0.0,0.0,0.0,0.0,0.0,0.0,0.0,0.0,0.0,0.0,0.0,0.0,0.0,0.0,0.0,0.0,0.0,0.0,0.0092,0.0177,0.0251,0.0236,0.0079,0.0,0.0,0.0,-0.1824,-0.435,-0.4331,-0.3305,0.0,-0.2528,-0.2394,-0.2356,0.0,0.0,-0.3674,-0.071,-0.394,-0.7742,-0.7747,-0.579,-0.3915,-0.3889,-0.3752,-0.4495,-0.7073,-0.7331,-0.7178,-0.7399,-0.7265,-0.721,-0.7353,-0.7122,-0.7275,-0.8276,-0.8284,-0.9068,0.0,-1.0661,-1.0716,-1.2134,-1.2563,-1.3248,-1.4429,-1.4509,-1.4509,-1.4522,-1.5303,-1.6191,-1.7253,-1.839,-1.9511,-2.0537,-2.0107,-1.9678,-1.9311,-1.9254,-2.0204,-2.1815,-2.1877,-2.2688,-2.3866,-2.3303,-2.3464,-2.3916,-2.3351,-2.3078,-2.3078,-2.3078,-2.3065,-2.3053,0.0,0.0,0.0,0.0,0.0,0.0,0.0,0.0,0.0,0.0,0.0,0.0,0.0,0.0,0.0,0.0,0.0,0.0,0.0,0.0,0.0,0.0,0.0,0.0,0.0,0.0,0.0,0.0,0.0,0.0,0.0,0.0,0.0,0.0,0.0,0.0,0.0,0.0,0.0,0.0,0.0,0.0,-0.1792,-0.156,-0.1454,-0.1443,0.0,0.0,0.0,0.0,-0.2994,-0.3168,-0.4198,-0.4134,0.0,-0.4356,-0.4684,-0.4851,-0.4526,0.0,-0.5697,-0.3526,-0.2811,-0.3621,-0.722,-0.7301,-0.6575,-0.6144,-0.6021,-0.6171,-0.6834,-0.6986,-0.7014,-0.7061,-0.7938,-0.8251,-0.7313,-0.8812,-0.9499,-0.8401,-0.9834,0.0,0.0,0.0,0.0,-1.308,-1.3451,-1.4043,-1.479,-1.4816,-1.4903,-1.5097,-1.5634,-1.6522,-1.7622,-1.8521,-1.952,-2.0557,-2.0117,-1.9826,-1.9725,-2.0283,-2.1023,-2.1939,-2.2445,-2.2996,-2.3414,-2.3153,-2.3251,-2.3401,-2.3153,-2.3078,-2.3078,-2.3078,-2.3078,-2.3078,0.0,0.0,0.0,0.0,0.0,0.0,0.0,0.0,0.0,0.0,0.0,0.0,0.0,0.0,0.0,0.0,0.0,0.0,0.0,0.0,0.0,0.0,0.0,0.0,0.0,0.0,0.0,0.0,0.0,0.0,0.0,0.0,0.0,0.0,0.0,0.0,0.0,0.0,0.0,0.0,0.0,0.0,-0.3434,-0.3248,-0.313,0.0,0.0,0.0,0.0,0.0,-0.3868,-0.3216,-0.4176,-0.4572,-0.472,-0.5157,-0.5683,-0.6014,-0.5616,-0.5862,-0.5916,-0.4972,-0.3852,-0.3802,-0.7278,-0.7959,-0.7825,-0.7325,-0.706,-0.6981,-0.6982,-0.6916,-0.6995,-0.7635,-0.8166,-0.8471,-0.8329,-0.949,-1.0236,-0.9921,-1.1259,-1.2362,0.0,0.0,0.0,-1.3705,-1.4269,-1.4676,-1.495,-1.5064,-1.5157,-1.5237,-1.622,-1.6975,-1.7614,-1.8923,-1.9923,-2.0557,-2.0117,-2.0052,-2.0383,-2.0586,-2.1271,-2.2139,-2.2518,-2.2823,-2.3078,-2.3078,-2.3078,-2.3078,-2.3078,-2.3078,-2.3078,-2.3078,-2.3078,-2.3078,0.0,0.0,0.0,0.0,0.0,0.0,0.0,0.0,0.0,0.0,0.0,0.0,0.0,0.0,0.0,0.0,0.0,0.0,0.0,0.0,0.0,0.0,0.0,0.0,0.0,0.0,0.0,0.0,0.0,0.0,0.0,0.0,0.0,0.0,0.0,0.0,0.0,0.0,0.0,0.0,0.0,0.0,-0.4916,-0.4893,0.0,0.0,0.0,0.0,0.0,0.0,0.0,0.0,-0.4507,-0.4711,-0.4972,-0.5138,-0.5511,-0.6,-0.6586,-0.5747,-0.4771,-0.5147,-0.6753,-0.8252,-0.8006,-0.7926,-0.7702,-0.7482,-0.7052,-0.6926,0.0,0.0,-0.7324,-0.8986,-0.821,-0.8095,-1.0303,-0.9527,-0.975,0.0,0.0,0.0,0.0,0.0,0.0,-1.4135,-1.4903,-1.5257,-1.4997,-1.5257,-1.5284,-1.4997,-1.6845,-1.768,-1.74,-1.9557,-2.0586,-2.0557,-2.0146,-2.0352,-2.1136,-2.0362,-2.094,-2.2438,-2.2115,-2.2408,-2.3078,-2.3078,-2.3078,-2.3078,-2.3078,-2.3078,-2.3078,-2.3078,-2.3078,-2.3078,0.0,0.0,0.0,0.0,0.0,0.0,0.0,0.0,0.0,0.0,0.0,0.0,0.0,0.0,0.0,0.0,0.0,0.0,0.0,0.0,0.0,0.0,0.0,0.0,0.0,0.0,0.0,0.0,0.0,0.0,0.0,0.0,0.0,0.0,0.0,0.0,0.0,0.0,0.0,0.0,0.0,0.0,-0.5041,0.0,0.0,0.0,0.0,0.0,0.0,0.0,0.0,0.0,0.0,-0.5098,-0.5345,-0.583,-0.6366,-0.68,-0.7182,-0.7302,-0.7415,-0.7817,-0.8024,-0.8061,-0.8009,-0.7584,-0.7346,-0.7472,-0.7192,-0.6997,0.0,0.0,0.0,-0.8803,-0.9974,0.0,-1.0948,-1.2483,0.0,-1.2827,0.0,-1.453,-1.4442,-1.4803,0.0,-1.4756,-1.495,-1.5137,-1.5277,-1.5565,-1.5585,-1.5297,-1.7412,-1.8419,-1.8143,-2.0051,-2.0898,-2.0566,-2.0449,-2.0577,-2.078,-2.1588,-2.2015,-2.2091,-2.307,-2.3343,-2.3078,-2.3078,-2.3078,-2.3078,-2.3078,-2.3078,-2.3078,-2.3078,-2.3078,-2.3078,0.0,0.0,0.0,0.0,0.0,0.0,0.0,0.0,0.0,0.0,0.0,0.0,0.0,0.0,0.0,0.0,0.0,0.0,0.0,0.0,0.0,0.0,0.0,0.0,0.0,0.0,0.0,0.0,0.0,0.0,0.0,0.0,0.0,0.0,0.0,0.0,0.0,0.0,0.0,0.0,0.0,0.0,0.0,0.0,0.0,0.0,0.0,0.0,0.0,0.0,0.0,-0.5036,-0.5332,-0.562,-0.5952,-0.6488,0.0,-0.7424,-0.7701,-0.8139,-0.8464,-0.8567,-0.8364,-0.8083,-0.7664,-0.7545,-0.7403,-0.7206,-0.7112,0.0,-0.7696,-0.7984,0.0,0.0,0.0,0.0,-1.2336,-1.3441,-1.4155,0.0,-1.4891,0.0,-1.511,-1.5391,-1.5518,-1.5357,-1.5344,-1.5357,-1.5391,-1.5671,-1.5698,-1.5404,-1.7619,-1.9225,-1.9894,-2.0775,-2.1103,-2.0859,-2.0654,-2.0827,-2.1272,-2.1833,-2.2284,-2.2555,-2.3162,-2.3269,-2.3078,-2.3078,-2.3078,-2.3078,-2.3078,-2.3078,-2.3078,-2.3078,-2.3078,-2.3078,0.0,0.0,0.0,0.0,0.0,0.0,0.0,0.0,0.0,0.0,0.0,0.0,0.0,0.0,0.0,0.0,0.0,0.0,0.0,0.0,0.0,0.0,0.0,0.0,0.0,0.0,0.0,0.0,0.0,0.0,0.0,0.0,0.0,0.0,0.0,0.0,0.0,0.0,0.0,0.0,0.0,0.0,0.0,0.0,0.0,0.0,0.0,0.0,0.0,0.0,-0.5404,-0.5477,-0.5817,-0.6217,-0.6647,-0.7099,-0.7448,-0.7777,-0.8187,-0.8516,-0.8676,-0.8397,-0.8286,-0.8045,-0.7309,-0.7451,-0.7493,-0.6921,0.0,-0.7598,-0.8305,-0.8435,-0.8961,-1.0744,0.0,-1.1132,-1.3805,-1.3357,-1.3573,-1.5597,-1.5605,-1.5551,-1.5805,-1.5832,-1.5832,-1.5832,-1.5832,-1.5718,-1.5471,-1.5691,-1.5806,-1.5913,-1.8002,-2.0043,-2.1973,-2.1592,-2.1348,-2.123,-2.084,-2.1108,-2.1922,-2.1745,-2.2258,-2.3226,-2.3066,-2.3006,-2.3078,-2.3078,-2.3078,-2.3078,-2.3078,-2.3078,-2.3078,-2.3078,-2.3078,-2.3078,0.0,0.0,0.0,0.0,0.0,0.0,0.0,0.0,0.0,0.0,0.0,0.0,0.0,0.0,0.0,0.0,0.0,0.0,0.0,0.0,0.0,0.0,0.0,0.0,0.0,0.0,0.0,0.0,0.0,0.0,0.0,0.0,0.0,0.0,0.0,0.0,0.0,0.0,0.0,0.0,0.0,0.0,0.0,0.0,0.0,0.0,0.0,0.0,0.0,0.0,-0.6237,-0.582,-0.6369,-0.6766,-0.7112,-0.7563,-0.7913,-0.8197,-0.8391,-0.8669,-0.8855,-0.8679,-0.8353,-0.7916,-0.7282,-0.7189,0.0,0.0,-0.7511,-0.7977,-0.8619,-0.9138,-0.9788,-1.0842,0.0,0.0,0.0,0.0,-1.4606,0.0,-1.5785,-1.5772,-1.5825,-1.5832,0.0,-1.5832,-1.5832,-1.5805,-1.5758,-1.5798,-1.672,-1.8768,-1.9909,-2.113,-2.2402,-2.2324,-2.1934,-2.123,-2.1152,-2.1258,-2.1555,-2.2663,-2.3037,-2.2881,-2.3968,-2.3954,-2.3078,-2.3078,-2.3078,-2.3078,-2.3078,-2.3078,-2.3078,-2.3078,-2.3078,-2.3078,0.0,0.0,0.0,0.0,0.0,0.0,0.0,0.0,0.0,0.0,0.0,0.0,0.0,0.0,0.0,0.0,0.0,0.0,0.0,0.0,0.0,0.0,0.0,0.0,0.0,0.0,0.0,0.0,0.0,0.0,0.0,0.0,0.0,0.0,0.0,0.0,0.0,0.0,0.0,0.0,0.0,0.0,0.0,0.0,0.0,0.0,0.0,0.0,0.0,0.0,-0.71,-0.7163,-0.7589,-0.8124,-0.8694,-0.8924,-0.9202,-0.9438,-0.9606,-0.9302,-0.8882,-0.8648,-0.8255,-0.7702,-0.6871,0.0,0.0,0.0,-0.7397,-0.8027,-0.8672,0.0,0.0,0.0,0.0,0.0,0.0,0.0,0.0,0.0,0.0,-1.5832,0.0,-1.5832,-1.5832,-1.5832,-1.6386,-1.6756,-1.6756,-1.7397,-1.8572,-2.0395,-2.0846,-2.1655,-2.2842,-2.2617,-2.2197,-2.1572,-2.1348,-2.1643,-2.2524,-2.3194,-2.3781,-2.4198,-2.4613,-2.4519,-2.3966,-2.3315,-2.3314,-2.3552,-2.319,-2.3314,-2.3552,-2.3251,-2.3326,-2.354,0.0,0.0,0.0,0.0,0.0,0.0,0.0,0.0,0.0,0.0,0.0,0.0,0.0,0.0,0.0,0.0,0.0,0.0,0.0,0.0,0.0,0.0,0.0,0.0,0.0,0.0,0.0,-0.3581,0.0,0.0,0.0,0.0,0.0,0.0,0.0,0.0,0.0,0.0,0.0,0.0,0.0,0.0,0.0,0.0,0.0,0.0,0.0,0.0,0.0,0.0,-0.7742,-0.8113,-0.8702,-0.9446,-1.0071,-1.0214,-1.0209,-1.0323,-1.0615,-0.9761,-0.8866,-0.856,-0.8119,-0.7502,-0.6491,-0.6458,0.0,0.0,-0.6961,-0.767,-0.8427,0.0,-0.9036,0.0,-1.0127,0.0,0.0,0.0,0.0,0.0,0.0,0.0,-1.5832,-1.5832,0.0,-1.6204,-1.7584,-1.8319,-1.8141,-1.9222,-2.0305,-2.1293,-2.1569,-2.2129,-2.3047,-2.2812,-2.2393,-2.1885,-2.1543,-2.207,-2.3514,-2.3514,-2.426,-2.5573,-2.5159,-2.4921,-2.4757,-2.3866,-2.369,-2.3954,-2.3502,-2.3527,-2.3753,-2.3301,-2.3427,-2.3753,0.0,0.0,0.0,0.0,0.0,0.0,0.0,0.0,0.0,0.0,0.0,0.0,0.0,0.0,0.0,0.0,0.0,0.0,0.0,0.0,0.0,0.0,0.0,0.0,0.0,0.0,0.0,-0.3581,-0.3667,0.0,0.0,0.0,0.0,0.0,0.0,-0.4778,0.0,0.0,0.0,0.0,0.0,0.0,0.0,0.0,0.0,0.0,0.0,0.0,0.0,0.0,0.0,-0.7778,-0.905,-0.9764,-1.0211,-1.0226,0.0,0.0,-1.0315,-0.967,-0.8866,-0.856,-0.8048,-0.738,-0.6468,0.0,0.0,-0.5698,-0.6199,-0.6912,-0.767,-0.7794,-0.8251,0.0,0.0,-1.0762,0.0,0.0,0.0,0.0,0.0,0.0,-1.5832,-1.5832,-1.6292,-1.7412,-1.967,-2.0477,-1.9405,-2.0486,-2.1203,-2.1293,-2.2403,-2.296,-2.3135,-2.3096,-2.2676,-2.1885,-2.1846,-2.2377,-2.3514,-2.3514,-2.426,-2.5598,-2.5548,-2.5259,-2.4808,-2.4707,-2.4406,-2.3991,-2.3941,-2.3627,-2.3213,-2.309,-2.3115,-2.314,0.0,0.0,0.0,0.0,0.0,0.0,0.0,0.0,0.0,0.0,0.0,0.0,0.0,0.0,0.0,0.0,0.0,0.0,0.0,0.0,0.0,0.0,0.0,0.0,0.0,0.0,0.0,-0.3581,-0.3581,0.0,0.0,0.0,0.0,0.0,0.0,-0.4443,-0.5303,0.0,0.0,0.0,0.0,0.0,0.0,0.0,0.0,0.0,0.0,0.0,0.0,0.0,0.0,0.0,-0.8391,-0.9354,0.0,0.0,-1.0647,-1.0378,-1.1134,-1.0031,-0.875,-0.8533,-0.797,-0.7251,-0.6444,0.0,-0.5568,-0.5505,-0.6091,-0.6804,-0.7563,-0.8049,-0.8551,0.0,0.0,0.0,0.0,0.0,0.0,0.0,-1.4863,0.0,0.0,0.0,-1.6662,-1.8588,-2.0305,-2.1391,-2.1676,-2.2129,-2.2403,-2.2403,-2.2862,-2.3018,-2.2764,-2.3018,-2.2715,-2.1885,-2.1885,-2.2251,-2.3048,-2.3353,-2.4149,-2.5241,-2.5468,-2.5674,-2.5737,-2.4732,-2.4569,-2.4858,-2.3866,-2.3753,-2.4067,-2.3328,-2.3364,-2.3602,0.0,0.0,0.0,0.0,0.0,0.0,0.0,0.0,0.0,0.0,0.0,0.0,0.0,0.0,0.0,0.0,0.0,0.0,0.0,0.0,0.0,0.0,0.0,0.0,0.0,0.0,0.0,0.0,0.0,-0.3581,0.0,0.0,-0.3581,-0.3626,0.0,0.0,0.0,0.0,0.0,0.0,0.0,0.0,0.0,0.0,0.0,0.0,0.0,0.0,0.0,0.0,0.0,0.0,0.0,0.0,0.0,0.0,-1.064,-1.038,-1.1201,-1.0095,-0.8543,-0.8391,-0.7821,-0.7109,0.0,0.0,-0.5123,-0.5214,-0.5764,-0.6475,-0.7235,-0.799,-0.8533,0.0,0.0,-0.9319,-1.047,0.0,0.0,0.0,0.0,-1.465,-1.5803,-1.685,-1.811,-1.9943,-2.1123,-2.2217,-2.3047,-2.3135,-2.3135,-2.3135,-2.3135,-2.2998,-2.2705,-2.2988,-2.2715,-2.1885,-2.1885,-2.212,-2.251,-2.3152,-2.4036,-2.5063,-2.5592,-2.6088,-2.642,-2.5021,-2.482,-2.5234,-2.3904,-2.3778,-2.423,-2.3366,-2.3389,-2.369,0.0,0.0,0.0,0.0,0.0,0.0,0.0,0.0,0.0,0.0,0.0,0.0,0.0,0.0,0.0,0.0,0.0,0.0,0.0,0.0,0.0,0.0,0.0,0.0,0.0,0.0,0.0,0.0,0.0,0.0,0.0,-0.3581,-0.3581,-0.3622,0.0,0.0,0.0,0.0,0.0,0.0,0.0,0.0,0.0,0.0,0.0,0.0,0.0,0.0,0.0,0.0,0.0,0.0,0.0,0.0,0.0,0.0,-0.9595,-0.979,-1.0308,-0.934,-0.8238,-0.8082,-0.759,-0.6949,0.0,0.0,-0.5003,-0.4611,-0.5058,-0.576,-0.6475,-0.7235,-0.7937,-0.8699,0.0,0.0,-1.0497,-1.1056,0.0,0.0,0.0,-1.4283,-1.6129,-1.9284,-2.1293,-2.1293,-2.2403,-2.3057,-2.3135,-2.3135,-2.3135,-2.3135,-2.3135,-2.3135,-2.3135,-2.3135,-2.2715,-2.1885,-2.1885,-2.196,-2.2038,-2.3073,-2.4036,-2.5087,-2.6082,-2.6521,-2.6483,-2.5824,-2.5285,-2.477,-2.4205,-2.364,-2.309,-2.3078,-2.3078,-2.3078,0.0,0.0,0.0,0.0,0.0,0.0,0.0,0.0,0.0,0.0,0.0,0.0,0.0,0.0,0.0,0.0,0.0,0.0,0.0,0.0,0.0,0.0,0.0,0.0,0.0,0.0,0.0,0.0,0.0,0.0,0.0,0.0,0.0,-0.3626,-0.3796,0.0,0.0,0.0,0.0,0.0,0.0,0.0,0.0,0.0,0.0,0.0,0.0,0.0,0.0,0.0,0.0,0.0,0.0,0.0,0.0,0.0,0.0,0.0,-0.8514,-0.7899,-0.7031,-0.698,-0.6593,-0.6112,-0.5674,-0.5189,-0.4873,-0.5112,-0.5764,-0.6475,-0.7235,-0.7937,-0.8598,-0.9017,-0.9123,0.0,0.0,0.0,0.0,-1.2913,-1.505,-1.6638,0.0,-1.9732,-2.1293,-2.1293,-2.2403,-2.3135,-2.3135,-2.3135,-2.3135,-2.3135,-2.3135,-2.2998,-2.2715,-2.2998,-2.2715,-2.1885,-2.1885,-2.1735,-2.146,-2.2864,-2.3661,-2.4024,-2.5318,-2.5875,-2.5799,-2.4883,-2.4632,-2.4732,-2.3778,-2.354,-2.3678,-2.3215,-2.3078,-2.3078,0.0,0.0,0.0,0.0,0.0,0.0,0.0,0.0,0.0,0.0,0.0,0.0,0.0,0.0,0.0,0.0,0.0,0.0,0.0,0.0,0.0,0.0,0.0,0.0,0.0,0.0,0.0,0.0,0.0,0.0,0.0,0.0,0.0,0.0,0.0,0.0,0.0,0.0,0.0,0.0,0.0,0.0,-0.4136,0.0,0.0,0.0,0.0,0.0,0.0,0.0,0.0,0.0,0.0,0.0,0.0,0.0,-0.532,0.0,0.0,-0.6801,-0.6305,-0.6305,-0.601,-0.5644,-0.5342,-0.4972,-0.4873,-0.536,-0.6091,-0.6804,-0.7563,-0.8321,-0.8864,-0.9051,-0.911,0.0,0.0,0.0,0.0,-1.3628,0.0,0.0,-1.8726,-2.0678,-2.1943,-2.1943,-2.2677,-2.3135,-2.3135,-2.3135,-2.3066,-2.291,-2.3057,-2.3018,-2.2754,-2.3008,-2.2715,-2.1885,-2.1885,-2.1562,-2.1046,-2.2703,-2.3514,-2.3565,-2.4986,-2.5598,0.0,-2.4443,-2.4205,-2.4418,-2.3489,-2.3364,-2.3627,-2.3263,-2.3078,-2.3078,0.0,0.0,0.0,0.0,0.0,0.0,0.0,0.0,0.0,0.0,0.0,0.0,0.0,0.0,0.0,0.0,0.0,0.0,0.0,0.0,0.0,0.0,0.0,0.0,0.0,0.0,0.0,0.0,-0.3411,-0.2781,-0.166,0.0,0.0,0.0,0.0,0.0,0.0,-0.3585,-0.3581,-0.3581,-0.3581,-0.3581,0.0,0.0,0.0,0.0,0.0,0.0,0.0,0.0,0.0,0.0,0.0,0.0,0.0,0.0,0.0,0.0,0.0,0.0,0.0,-0.5918,-0.5711,-0.5433,-0.5148,0.0,0.0,0.0,-0.6091,-0.681,-0.7586,-0.8328,-0.8831,-0.8891,-0.9125,0.0,0.0,-1.0651,0.0,0.0,-1.8043,0.0,-2.0336,-2.2007,-2.3135,-2.3135,-2.3135,-2.3135,-2.3135,-2.3105,-2.292,-2.2519,-2.2938,-2.3047,-2.3047,-2.3047,-2.2646,-2.1836,-2.1836,-2.1477,-2.0789,-2.2638,-2.3503,-2.3666,-2.4961,-2.5548,-2.5398,-2.4406,-2.3966,-2.3891,-2.3339,-2.3078,-2.3078,-2.3078,-2.3078,-2.3078,0.0,0.0,0.0,0.0,0.0,0.0,0.0,0.0,0.0,0.0,0.0,0.0,0.0,0.0,0.0,0.0,0.0,0.0,0.0,0.0,0.0,0.0,0.0,0.0,0.0,0.0,0.0,-0.3595,-0.1753,-0.0703,-0.0423,-0.0436,0.0,0.0,0.0,0.0,-0.2279,-0.322,-0.3581,-0.3581,-0.3581,-0.3581,0.0,0.0,0.0,0.0,-0.4103,-0.4149,0.0,0.0,0.0,0.0,0.0,0.0,0.0,0.0,-0.401,-0.4104,-0.4449,0.0,-0.483,-0.483,-0.4779,-0.4766,0.0,0.0,0.0,0.0,0.0,0.0,0.0,0.0,0.0,0.0,0.0,0.0,-1.0608,0.0,0.0,-1.5567,-1.8862,-2.0766,-2.0165,-2.1911,-2.3135,-2.3135,-2.3135,-2.3135,-2.3135,-2.2832,-2.2617,-2.2519,-2.2988,-2.2867,-2.2178,-2.2178,-2.1914,-2.1387,-2.1387,-2.1471,-2.1735,-2.2925,-2.3686,-2.4108,-2.5167,-2.5134,-2.4356,-2.4104,-2.374,-2.3326,-2.3188,-2.3078,-2.3078,-2.3078,-2.3078,-2.3078,0.0,0.0,0.0,0.0,0.0,0.0,0.0,0.0,0.0,0.0,0.0,0.0,0.0,0.0,0.0,0.0,0.0,0.0,0.0,0.0,0.0,0.0,0.0,0.0,0.0,0.0,0.0,0.0,0.0,-0.0561,0.0,0.0,0.0,0.0,0.0,0.0,-0.1071,-0.2275,-0.3084,-0.3581,-0.3581,0.0,0.0,0.0,0.0,0.0,-0.3717,-0.3737,0.0,-0.3629,-0.3581,-0.3581,0.0,0.0,0.0,0.0,-0.3839,-0.4036,-0.4056,-0.429,-0.4519,-0.4519,-0.4519,-0.4519,0.0,0.0,0.0,0.0,0.0,0.0,0.0,0.0,0.0,0.0,-0.994,0.0,0.0,0.0,-1.6047,-1.6828,-1.9659,-2.1549,-2.1465,-2.2409,-2.3135,-2.3135,-2.2959,-2.2852,-2.2852,-2.2451,-2.2139,-2.1934,-2.2159,-2.2433,-2.2564,-2.2574,-2.2352,-2.1908,-2.1381,-2.145,-2.2027,-2.3073,-2.3773,-2.422,-2.4937,-2.477,-2.3979,-2.3715,-2.3414,-2.3078,-2.3078,-2.3078,-2.3078,-2.3078,-2.3078,-2.3078,0.0,0.0,0.0,0.0,0.0,0.0,0.0,0.0,0.0,0.0,0.0,0.0,0.0,0.0,0.0,0.0,0.0,0.0,0.0,0.0,0.0,0.0,0.0,0.0,0.0,0.0,0.0,0.0,0.0,0.0,0.0,0.0,0.0,0.0,0.0,0.0,-0.0045,-0.1071,-0.2322,-0.3585,-0.3581,0.0,0.0,0.0,0.0,0.0,0.0,0.0,0.0,-0.3629,-0.349,-0.3353,-0.3537,0.0,0.0,0.0,0.0,0.0,-0.413,-0.4355,-0.4494,-0.4525,-0.4519,-0.4519,0.0,0.0,0.0,0.0,0.0,0.0,0.0,0.0,0.0,0.0,0.0,0.0,-1.2716,-1.494,-1.6876,-1.8311,-2.0652,-2.2305,-2.2891,-2.3066,-2.3105,-2.3047,-2.2715,-2.248,-2.2422,-2.2012,-2.1621,-2.125,-2.1322,-2.1899,-2.3113,-2.2964,-2.2697,-2.2403,-2.1501,-2.1527,-2.2253,-2.3147,-2.3798,-2.4306,-2.4756,-2.4531,-2.3841,-2.3427,-2.3153,-2.3078,-2.3078,-2.3078,-2.3078,-2.3078,-2.3078,-2.3078,0.0,0.0,0.0,0.0,0.0,0.0,0.0,0.0,0.0,0.0,0.0,0.0,0.0,0.0,0.0,0.0,0.0,0.0,0.0,0.0,0.0,0.0,0.0,0.0,0.0,0.0,0.0,0.0,0.0,0.0,-0.0,-0.0,-0.0,0.0,0.0,0.0,-0.0,-0.0179,-0.1567,-0.3609,-0.3588,0.0,0.0,0.0,0.0,0.0,0.0,0.0,0.0,-0.3677,-0.2904,-0.2277,-0.3274,0.0,0.0,0.0,0.0,0.0,-0.4026,-0.4267,-0.4474,-0.4497,-0.4519,-0.4519,0.0,0.0,0.0,0.0,0.0,0.0,0.0,0.0,-0.8624,0.0,0.0,-1.323,0.0,0.0,-1.8583,-1.9574,-2.1569,-2.2715,-2.2139,-2.2725,-2.2988,-2.2637,-2.2549,-2.2353,-2.2002,-2.1572,-2.1309,-2.123,-2.1612,-2.1946,-2.2161,-2.1433,-2.0947,-2.0888,-2.0742,-2.1599,-2.3294,-2.3441,-2.3956,-2.4763,-2.5256,-2.4644,-2.3301,-2.3703,-2.3577,-2.3078,-2.3078,-2.3078,-2.3078,-2.3078,-2.3078,-2.3078,0.0,0.0,0.0,0.0,0.0,0.0,0.0,0.0,0.0,0.0,0.0,0.0,0.0,0.0,0.0,0.0,0.0,0.0,0.0,0.0,0.0,0.0,0.0,0.0,0.0,0.0,0.0,0.0,0.0,-0.2352,-0.0,-0.0,-0.0,-0.0,0.0,0.0,-0.0,-0.0,-0.0626,-0.1703,0.0,0.0,0.0,0.0,0.0,0.0,0.0,0.0,0.0,0.0,-0.2679,-0.2635,-0.1876,0.0,0.0,0.0,0.0,0.0,-0.3066,-0.3762,-0.4282,-0.3471,-0.3901,-0.4535,-0.4652,0.0,0.0,0.0,0.0,0.0,0.0,0.0,-0.9005,-1.1405,0.0,-1.3763,-1.5113,-1.683,-1.823,-1.9135,-2.1155,-2.2402,-2.2236,-2.2578,-2.2627,-2.2207,-2.1953,-2.1738,-2.1543,-2.1113,-2.0869,-2.0869,-2.1111,-2.1221,-2.1221,-2.0552,-2.051,-2.1019,-2.1263,-2.185,-2.273,-2.3509,-2.4074,-2.4393,-2.4632,-2.4117,-2.309,-2.3427,-2.3376,-2.3078,-2.3078,-2.3078,-2.3078,-2.3078,-2.3078,-2.3078,0.0,0.0,0.0,0.0,0.0,0.0,0.0,0.0,0.0,0.0,0.0,0.0,0.0,0.0,0.0,0.0,0.0,0.0,0.0,0.0,0.0,0.0,0.0,0.0,0.0,0.0,0.0,-0.3598,-0.3022,-0.1801,-0.0,-0.0,-0.0,0.0,0.0,0.0,-0.0,-0.0,-0.0,-0.009,0.0,0.0,0.0,0.0,0.0,0.0,0.0,0.0,0.0,0.0,0.0,0.0,0.0,0.0,0.0,-0.1397,-0.1725,-0.2161,-0.2607,-0.3575,-0.4196,-0.3046,0.0,-0.4265,-0.4848,0.0,0.0,0.0,0.0,0.0,0.0,-0.7932,0.0,-1.2375,-1.3367,-1.4058,-1.4757,-1.6538,-1.8128,-1.9117,-2.0865,-2.2158,-2.248,-2.2422,-2.2197,-2.1768,-2.1426,-2.1191,-2.1084,-2.0752,-2.0566,-2.0566,-2.0469,-2.041,-2.041,-1.998,-2.0316,-2.1356,-2.1597,-2.1916,-2.2321,-2.3499,-2.402,-2.4004,-2.4004,-2.3665,-2.3078,-2.3078,-2.3078,-2.3078,-2.3078,-2.299,-2.2962,-2.3027,-2.299,-2.2902,0.0,0.0,0.0,0.0,0.0,0.0,0.0,0.0,0.0,0.0,0.0,0.0,0.0,0.0,0.0,0.0,0.0,0.0,0.0,0.0,0.0,0.0,0.0,0.0,0.0,-0.3608,-0.3581,-0.3584,-0.1363,-0.0154,-0.0,-0.0,-0.0,0.0,0.0,0.0,-0.0,-0.0,-0.0,-0.0,-0.009,0.0,0.0,0.0,0.0,0.0,0.0,0.0,0.0,0.0,0.0,0.0,0.0,0.0,-0.0135,-0.0136,-0.014,-0.0816,-0.3604,-0.4417,-0.4477,-0.4338,0.0,0.0,-0.5023,-0.5238,0.0,0.0,0.0,0.0,0.0,-0.841,-1.0597,-1.2516,-1.3707,-1.4986,-1.6705,-1.8308,-1.9808,-2.0935,-2.1891,-2.248,-2.251,-2.2158,-2.1748,-2.1318,-2.125,-2.1055,-2.0635,-2.0586,-2.0566,-2.0566,-2.0176,-1.9961,-1.9961,-1.9541,-1.9952,-2.1199,-2.0885,-2.1559,-2.3211,-2.3325,-2.3591,-2.4004,-2.4004,-2.3665,-2.3078,-2.3078,-2.3078,-2.3078,-2.3078,-2.2824,-2.2435,-2.2949,-2.2752,-2.2447,0.0,0.0,0.0,0.0,0.0,0.0,0.0,0.0,0.0,0.0,0.0,0.0,0.0,0.0,0.0,0.0,0.0,0.0,0.0,0.0,0.0,0.0,0.0,-0.3321,-0.3615,-0.3622,-0.2853,-0.1353,-0.0443,-0.0,-0.0,-0.0,0.0,0.0,0.0,0.0,-0.0,-0.0,-0.0,-0.0,-0.0,-0.0,0.0,0.0,0.0,0.0,0.0,0.0,0.0,0.0,-0.2976,-0.1979,0.0,0.0,-0.0,-0.0,-0.0,-0.0241,-0.1417,-0.3066,-0.4494,-0.4477,0.0,0.0,0.0,0.0,0.0,0.0,0.0,0.0,0.0,0.0,-1.2097,-1.3107,-1.3988,-1.5149,-1.6981,-1.816,-1.9343,-2.0729,-2.1665,-2.2021,-2.1748,-2.1572,-2.1182,-2.0469,-2.041,-2.0225,-1.9795,-1.9766,-1.9766,-1.9766,-1.9609,-1.9531,-1.9531,-1.9646,-2.0188,-2.117,-2.1359,-2.179,-2.2472,-2.3344,-2.3653,-2.3464,-2.3464,-2.3339,-2.3053,-2.2761,-2.2623,-2.2585,-2.2246,-2.2196,-2.2334,-2.2548,-2.2485,-2.2347,0.0,0.0,0.0,0.0,0.0,0.0,0.0,0.0,0.0,0.0,0.0,0.0,0.0,0.0,0.0,0.0,0.0,0.0,0.0,0.0,0.0,0.0,0.0,-0.2974,-0.3577,-0.2876,-0.164,-0.0,-0.0,-0.0,-0.0,0.0,0.0,0.0,0.0,0.0,0.0,0.0,-0.0,-0.0,-0.0,-0.0,0.0,0.0,0.0,0.0,0.0,0.0,0.0,0.0,0.0,0.0,0.0,0.0,0.0,0.0,-0.0561,-0.1185,-0.1367,-0.2859,-0.4404,0.0,0.0,0.0,0.0,0.0,0.0,0.0,0.0,0.0,0.0,0.0,0.0,0.0,-1.4253,-1.5416,-1.6699,-1.8056,-1.9282,-2.0318,-2.1146,-2.1562,-2.126,-2.0986,-2.0566,-1.9961,-2.0009,-1.9875,-1.9307,-1.9568,-1.9558,-1.9287,-1.915,-1.9082,-1.9082,-1.9263,-1.9744,-2.0707,-2.1107,-2.1606,-2.2334,-2.3294,-2.3502,-2.3078,-2.3078,-2.2977,-2.2849,-2.2472,-2.2209,-2.202,-2.1631,-2.1606,-2.1832,-2.2184,-2.2196,-2.2071,0.0,0.0,0.0,0.0,0.0,0.0,0.0,0.0,0.0,0.0,0.0,0.0,0.0,0.0,0.0,0.0,0.0,0.0,0.0,0.0,0.0,0.0,0.0,-0.237,-0.3523,-0.1213,-0.0,-0.0,-0.0,-0.0,-0.0,0.0,0.0,0.0,0.0,0.0,0.0,0.0,0.0,-0.0,-0.0,-0.0,-0.0,0.0,0.0,0.0,0.0,0.0,0.0,0.0,-0.0,0.0,0.0,0.0,0.0,0.0,-0.1708,-0.3698,-0.4341,-0.4345,-0.4231,0.0,0.0,0.0,0.0,0.0,0.0,0.0,0.0,-0.8523,-1.0801,-1.1135,0.0,-1.2623,-1.4689,-1.6089,-1.6097,-1.8329,-2.0018,-2.0018,-2.0702,-2.1221,-2.1221,-2.042,-1.9902,-1.9902,-2.0286,-2.0186,-1.935,-2.0104,-2.0175,-1.935,-1.8857,-1.8562,-1.8562,-1.8223,-1.8553,-1.9705,-1.9705,-2.0903,-2.3065,-2.3065,-2.3125,-2.3078,-2.3065,-2.2811,-2.2309,-2.2297,-2.197,-2.1481,-2.1481,-2.1142,-2.0857,-2.1895,-2.1945,-2.1556,0.0,0.0,0.0,0.0,0.0,0.0,0.0,0.0,0.0,0.0,0.0,0.0,0.0,0.0,0.0,0.0,0.0,0.0,0.0,0.0,0.0,0.0,0.0,0.0,0.0,0.0,-0.0,-0.0,-0.0,-0.0,0.0,0.0,0.0,0.3209,0.0,0.0,0.0,0.0,0.0,-0.0,-0.0,-0.0,-0.0,0.0,0.0,0.0,0.0,0.0,0.0,0.0,0.0,0.0,0.0,0.0,0.0,-0.0,-0.0514,-0.1468,-0.3334,-0.4158,0.0,0.0,0.0,0.0,0.0,0.0,0.0,0.0,0.0,-0.9592,-1.1101,-1.2035,0.0,-1.4029,-1.4939,-1.6226,-1.8286,-1.8663,-1.9222,-2.0324,-2.0062,-1.9863,-1.9863,-1.9629,-1.9346,-1.9033,-1.91,-1.8973,-1.8398,-1.8656,-1.8656,-1.8389,-1.8262,-1.8193,-1.8193,-1.8657,-1.9198,-1.9789,-2.0772,-2.1704,-2.256,-2.256,-2.2761,-2.3053,-2.2723,-2.246,-2.2246,-2.1481,-2.1054,-2.092,-2.0464,-2.0451,-2.0756,-2.1041,-2.1054,-2.0941,0.0,0.0,0.0,0.0,0.0,0.0,0.0,0.0,0.0,0.0,0.0,0.0,0.0,0.0,0.0,0.0,0.0,0.0,0.0,0.0,0.0,0.0,0.0,0.0,0.0,-0.0,-0.0,0.0,0.0,0.0,0.0,0.0,0.0,0.2748,0.0,0.0,0.0,0.0,0.0,-0.0,-0.0,-0.0,-0.0,0.0,0.0,0.0,0.0,0.0,0.0,0.0,0.0,0.0,0.0,0.0,0.0,-0.0,-0.0,-0.0445,-0.2465,0.0,0.0,0.0,0.0,0.0,0.0,0.0,0.0,0.0,0.0,-1.0928,-1.2243,-1.2872,-1.3509,-1.4569,-1.5387,-1.6571,-1.8549,-1.8742,-1.9071,-1.9944,-1.96,-1.9287,-1.9287,-1.8984,-1.8672,-1.8408,-1.8329,-1.8168,-1.7764,-1.8078,-1.8148,-1.8008,-1.7852,-1.7842,-1.8008,-1.8496,-1.8976,-1.9438,-2.0461,-2.1007,-2.1247,-2.1981,-2.2372,-2.2447,-2.1895,-2.1487,-2.1173,-2.0582,-2.0326,-2.0288,-1.9936,-2.0012,-2.0351,-2.063,-2.0718,-2.0718,0.0,0.0,0.0,0.0,0.0,0.0,0.0,0.0,0.0,0.0,0.0,0.0,0.0,0.0,0.0,0.0,0.0,0.0,0.0,0.0,0.0,0.0,0.0,0.0,0.0,0.0,0.0,0.0,0.0,0.0,0.0,0.0,-0.0,0.0102,0.0,0.3922,0.0,0.0,0.0,-0.0,-0.0,-0.0,-0.0,-0.0,0.0,0.0,0.0,0.0,0.0,0.0,0.0,0.0,0.0,0.0,-0.0,-0.0,-0.014,-0.063,0.0,0.0,0.0,0.0,0.0,0.0,0.0,0.0,-0.9208,-1.0768,0.0,-1.2165,-1.3697,-1.3649,-1.3666,-1.4569,-1.5896,-1.7003,-1.7755,-1.8616,-1.9189,-1.9219,-1.9121,-1.9072,-1.9111,-1.8379,-1.7891,-1.7891,-1.7846,-1.7687,-1.737,-1.8053,-1.8236,-1.7881,-1.7529,-1.751,-1.7891,-1.7849,-1.8126,-1.8725,-1.9263,-1.9479,-1.9598,-2.1329,-2.1825,-2.1325,-2.0878,-2.0237,-1.9526,-1.9738,-1.9798,-1.9798,-1.9798,-1.9798,-1.9861,-2.0441,-2.0589,-2.0523,0.0,0.0,0.0,0.0,0.0,0.0,0.0,0.0,0.0,0.0,0.0,0.0,0.0,0.0,0.0,0.0,0.0,0.0,0.0,0.0,0.0,0.0,0.0,0.0,0.0,0.0,0.0,0.0,0.0,0.0,0.0,0.0,0.0,0.0055,0.0,0.2226,0.0,0.0,0.0,-0.0,-0.0,-0.0,-0.0,-0.0,-0.0,0.0,0.0,0.0,0.0,0.0,0.0,0.0,-0.0,-0.0,-0.0,-0.0,-0.1337,-0.2985,0.0,-0.3958,0.0,0.0,0.0,0.0,0.0,-0.8542,-0.9632,-1.0616,-1.1222,-1.1918,-1.3139,-1.3908,-1.4647,-1.5702,-1.6767,-1.78,-1.8848,-1.8569,-1.8408,-1.874,-1.7891,-1.7412,-1.7754,-1.7314,-1.7002,-1.7002,-1.6953,-1.6947,-1.6865,-1.6983,-1.7096,-1.7002,-1.6924,-1.6914,-1.7002,-1.7542,-1.7735,-1.7567,-1.9229,-1.9634,-1.8959,-2.0419,-2.0667,-2.0036,-2.0486,-2.0015,-1.8935,-1.9525,-1.9798,-1.9798,-1.9798,-1.9798,-1.9823,-1.9936,-1.9608,-1.9214,0.0,0.0,0.0,0.0,0.0,0.0,0.0,0.0,0.0,0.0,0.0,0.0,0.0,0.0,0.0,0.0,0.0,0.0,0.0,0.0,0.0,0.0,0.0,0.0,0.0,0.0,0.0,0.0,0.0,0.0,0.0,0.0,0.0,-0.0,0.0,0.0865,0.0,0.0,0.0,-0.0,-0.0,-0.0,-0.0,-0.0,-0.0,-0.0,-0.0,0.0,0.0,0.0,0.0,0.0,0.0,0.0,-0.0309,-0.1739,-0.3026,-0.4058,0.0,0.0,0.0,0.0,0.0,0.0,0.0,-0.9416,-1.0166,-1.0922,-1.1709,-1.2625,-1.3653,-1.4265,-1.4996,-1.6133,-1.6756,-1.7286,-1.7978,-1.7676,-1.748,-1.7695,-1.7074,-1.6826,-1.7051,-1.667,-1.6416,-1.6416,-1.6221,-1.6191,-1.6406,-1.6416,-1.6514,-1.6665,-1.6825,-1.7052,-1.7201,-1.7879,-1.8049,-1.7759,-1.93,-1.9455,-1.8422,-1.9344,-1.9143,-1.8148,-1.8924,-1.8651,-1.7665,-1.8242,-1.8762,-1.923,-1.9037,-1.9086,-1.9254,-1.9254,-1.8821,-1.8286,0.0,0.0,0.0,0.0,0.0,0.0,0.0,0.0,0.0,0.0,0.0,0.0,0.0,0.0,0.0,0.0,0.0,0.0,0.0,0.0,0.0,0.0,0.0,0.0,0.0,0.0,0.0,0.0,0.0,0.0,0.0,0.0,0.0,0.0,0.0,0.0,0.0,0.0,0.0,0.0,-0.0,-0.0,-0.0,-0.0,-0.0,-0.0,-0.0,-0.0,-0.0,-0.0,0.0,0.0,0.0,0.0,-0.1272,-0.3779,-0.444,-0.4383,0.0,0.0,0.0,0.0,0.0,0.0,0.0,-0.995,-1.0441,-1.1184,-1.2218,-1.3276,-1.4172,-1.4425,-1.4879,-1.6131,-1.6405,-1.649,-1.6699,-1.667,-1.6641,-1.6719,-1.6533,-1.6426,-1.6494,-1.6103,-1.59,-1.59,-1.5508,-1.5488,-1.5928,-1.5879,-1.6045,-1.6494,-1.6739,-1.7067,-1.7379,-1.8036,-1.8121,-1.7717,-1.8703,-1.8702,-1.7784,-1.8107,-1.7583,-1.6423,-1.7181,-1.7071,-1.6437,-1.6782,-1.7496,-1.8378,-1.8017,-1.8159,-1.8501,-1.8501,-1.8112,-1.7677,0.0,0.0,0.0,0.0,0.0,0.0,0.0,0.0,0.0,0.0,0.0,0.0,0.0,0.0,0.0,0.0,0.0,0.0,-0.0,0.0,0.0,-0.0,0.0,0.0,0.0,0.0,0.0,0.0,0.0,0.0,0.0,0.0,0.0,0.0,0.0,0.0,0.0,0.0,0.0,0.0,0.0,0.0,-0.0,-0.0,-0.0,-0.0,-0.0,-0.0,-0.0,-0.0,-0.0,0.0,0.0,0.0,-0.3968,-0.4376,-0.4282,-0.4107,0.0,0.0,0.0,0.0,0.0,0.0,0.0,0.0,-0.9741,0.0,-1.1583,-1.2332,-1.3319,-1.3838,-1.4572,-1.5739,-1.6384,-1.6664,-1.6685,-1.6396,-1.6299,-1.6689,-1.5732,-1.5186,-1.5557,-1.5205,-1.4951,-1.4951,-1.4902,-1.5049,-1.5478,-1.5156,-1.5156,-1.5576,-1.5645,-1.5703,-1.5694,-1.6431,-1.6259,-1.5279,-1.6249,-1.6598,-1.6441,-1.6497,-1.6343,-1.6028,-1.674,-1.6686,-1.5997,-1.6336,-1.6786,-1.7217,-1.7149,-1.7368,-1.7743,-1.7743,-1.7688,-1.762,0.0,0.0,0.0,0.0,0.0,0.0,0.0,0.0,0.0,0.0,0.0,0.0,0.0,0.0,0.0,-0.0076,-0.0,-0.0,-0.0,-0.0,-0.0,-0.0,-0.0,0.0,0.0,0.0,0.0,0.0,0.0,0.0,0.0,0.314,0.1604,0.0,0.0,0.0,0.0,0.0,0.0,0.0,0.0,0.0,0.0,0.0,-0.0,-0.0,-0.0,-0.0,-0.0,-0.0,-0.0,-0.0,-0.0,0.0,0.0,0.0,-0.3746,0.0,0.0,0.0,0.0,0.0,0.0,0.0,0.0,0.0,-1.039,-1.073,-1.1442,-1.2375,-1.3545,-1.4322,-1.5045,-1.5907,-1.6206,-1.6269,-1.6025,-1.582,-1.5771,-1.5967,-1.5273,-1.5022,-1.5537,-1.4879,-1.4676,-1.5405,-1.4784,-1.4666,-1.5184,-1.4686,-1.4502,-1.4687,-1.5054,-1.5263,-1.5263,-1.6085,-1.6359,-1.6181,-1.6519,-1.6379,-1.5822,-1.6103,-1.5726,-1.4935,-1.5245,-1.5347,-1.5259,-1.4925,-1.5414,-1.6342,-1.607,-1.6255,-1.6623,-1.6623,-1.6415,-1.6077,0.0,0.0,0.0,0.0,0.0,0.0,0.0,0.0,0.0,0.0,0.0,0.0,0.0,0.0,0.0,0.0,-0.0,-0.0,-0.0,-0.0,-0.0,-0.0,-0.0,-0.0,0.0,0.0,0.0,0.0,0.0,0.0,0.338,0.4123,0.3319,0.0,0.0335,0.0,0.0,0.0,0.0,0.0,0.0,0.0,0.0,0.0,0.0,0.0,-0.0,-0.0,-0.0,-0.0,-0.0,-0.0,-0.0,-0.0989,0.0,0.0,0.0,0.0,0.0,0.0,0.0,0.0,0.0,0.0,0.0,0.0,-1.0907,0.0,-1.1655,-1.2613,-1.363,-1.4292,-1.4912,-1.5642,-1.5644,-1.5459,-1.5137,-1.5088,-1.5088,-1.5088,-1.4873,-1.4878,-1.534,-1.4767,-1.4718,-1.5524,-1.4718,-1.4373,-1.4809,-1.4297,-1.397,-1.4077,-1.4631,-1.4935,-1.4935,-1.5549,-1.6147,-1.6567,-1.6487,-1.598,-1.5067,-1.5443,-1.4908,-1.3818,-1.3873,-1.416,-1.4404,-1.3652,-1.4132,-1.5245,-1.4894,-1.5038,-1.5463,-1.5577,-1.5338,-1.4934,0.0,0.0,0.0,0.0,0.0,0.0,0.0,0.0,0.0,0.0,0.0,0.0,0.0,-0.0134,-0.0088,-0.0,-0.0,-0.0,-0.0,-0.0,-0.0,-0.0,-0.0,0.0,-0.0,0.0,0.0,0.0,0.0,0.0,0.0279,0.3144,0.4396,0.4154,0.1287,-0.0,-0.0,0.0,0.0,0.0,0.0,0.0,0.0,0.0,0.0,0.0,0.0,-0.0,-0.0,-0.0,-0.0,-0.0,-0.0,-0.1008,-0.2189,0.0,0.0,0.0,0.0,0.0,0.0,0.0,0.0,0.0,0.0,0.0,-1.0515,-1.1132,-1.2124,-1.2857,-1.2974,-1.2992,-1.3442,-1.4673,-1.4502,-1.4175,-1.4145,-1.4145,-1.4145,-1.4145,-1.4307,-1.4414,-1.4464,-1.4936,-1.5012,-1.4531,-1.4432,-1.4328,-1.4165,-1.376,-1.3721,-1.4068,-1.4131,-1.4184,-1.4184,-1.4409,-1.4531,-1.457,-1.4755,-1.4488,-1.3905,-1.3926,-1.3577,-1.2969,-1.3369,-1.3555,-1.3535,-1.3096,-1.3224,-1.3616,-1.3596,-1.3851,-1.4272,-1.4684,-1.4982,-1.5164,0.0,0.0,0.0,0.0,0.0,0.0,0.0,0.0,0.0,0.0,0.0,0.0,0.0,-0.0943,-0.0,-0.0,-0.0,0.0674,0.2205,0.2294,0.16,0.0048,-0.0,-0.0,-0.0,0.0,0.0,0.0,0.0,-0.0,-0.0,0.112,0.2637,0.4452,0.3373,0.1792,-0.0,-0.0,0.0,0.0,0.0,0.0,0.0,0.0,0.0,0.0,0.0,0.0,-0.0,-0.0,-0.0,-0.0336,-0.2305,-0.3266,-0.3658,-0.3694,0.0,0.0,0.0,0.0,0.0,0.0,0.0,-0.8776,-0.9614,-1.0208,-1.0805,-1.1473,-1.2319,-1.2916,-1.2916,-1.3342,-1.3793,-1.4282,-1.4238,-1.4077,-1.4077,-1.4077,-1.4077,-1.4077,-1.3957,-1.3972,-1.4351,-1.4003,-1.3983,-1.4533,-1.3886,-1.3579,-1.3879,-1.3412,-1.3174,-1.333,-1.333,-1.333,-1.333,-1.3775,-1.401,-1.401,-1.4463,-1.4376,-1.3815,-1.3815,-1.3467,-1.2891,-1.3037,-1.3262,-1.3477,-1.3057,-1.3125,-1.3506,-1.3506,-1.3603,-1.375,-1.3906,-1.4014,-1.4083,0.0,0.0,0.0,0.0,0.0,0.0,0.0,0.0,0.0,0.0,0.0,0.0,0.0,0.0,-0.0,-0.0,0.0924,0.2173,0.3815,0.3811,0.3005,0.143,0.0961,0.0516,-0.0,-0.0,0.0,0.0,0.0,0.0,0.0,0.0,0.1064,0.303,0.4058,0.3373,0.0,0.0,0.0,-0.0,0.0,0.0,-0.0,0.0,0.0,0.0,0.0,0.0,0.0,-0.1178,-0.1515,-0.1852,-0.3893,-0.4514,0.0,0.0,0.0,0.0,0.0,0.0,0.0,0.0,0.0,-0.882,-0.9915,-1.0466,-1.1065,-1.1981,-1.2559,-1.2881,-1.2881,-1.334,-1.3711,-1.3711,-1.3711,-1.3711,-1.3711,-1.3711,-1.3711,-1.3711,-1.365,-1.376,-1.4171,-1.3776,-1.3742,-1.4329,-1.3658,-1.3286,-1.3505,-1.3334,-1.32,-1.32,-1.32,-1.3104,-1.2881,-1.3505,-1.3684,-1.3505,-1.4097,-1.4097,-1.3505,-1.3505,-1.3286,-1.2881,-1.2881,-1.3037,-1.3271,-1.2998,-1.3047,-1.3301,-1.3301,-1.3301,-1.3311,-1.3457,-1.3418,-1.3281,0.0,0.0,0.0,0.0,0.0,0.0,0.0,0.0,0.0,0.0,0.0,0.0,0.0,0.0,0.0,0.0101,0.2796,0.4517,0.448,0.4164,0.4012,0.399,0.2865,0.1615,0.0167,0.0056,0.0,0.0,0.0,0.0,0.0,0.0,-0.0,0.0,0.3039,0.4409,0.4287,0.0,-0.0,-0.0,0.0,-0.0,-0.0,0.0,0.0,0.0,-0.0,-0.0056,0.0,-0.3498,0.0,0.0,0.0,0.0,0.0,0.0,0.0,0.0,0.0,0.0,0.0,0.0,0.0,0.0,-1.0517,0.0,-1.1225,-1.2618,-1.2881,-1.2881,-1.2881,-1.2881,-1.2881,-1.2881,-1.2881,-1.2881,-1.2881,-1.2881,-1.2881,-1.2881,-1.342,-1.3768,-1.3768,-1.4283,-1.4376,-1.3815,-1.3768,-1.3505,-1.2929,-1.3467,-1.3768,-1.3815,-1.3768,-1.3505,-1.2929,-1.3457,-1.3457,-1.2929,-1.3505,-1.3467,-1.2881,-1.2881,-1.2881,-1.2881,-1.2881,-1.2881,-1.2881,-1.2881,-1.2881,-1.2881,-1.2881,-1.2881,-1.293,-1.334,-1.3232,-1.2939,0.0,0.0,0.0,0.0,0.0,0.0,0.0,0.0,0.0,0.0,0.0,0.0,0.0,0.0,0.0899,0.3044,0.4036,0.4431,0.4303,0.42,0.4161,0.4151,0.3831,0.3514,0.3246,0.1117,0.0,0.0,0.0,0.0,0.0,0.0,0.0,0.0,0.0897,0.2473,0.4297,0.129,0.0,0.0,-0.0,-0.0,0.0,0.0,0.0,0.0,0.0,-0.1403,-0.3383,0.0,-0.4518,-0.4511,0.0,0.0,0.0,0.0,0.0,0.0,-0.7069,0.0,0.0,0.0,0.0,0.0,-1.0618,0.0,-1.1774,-1.2715,-1.2881,-1.2881,-1.2881,-1.2881,-1.2881,-1.2881,-1.2881,-1.2881,-1.2881,-1.2881,-1.2881,-1.2881,-1.3065,-1.3152,-1.3152,-1.3296,-1.3344,-1.3152,-1.3152,-1.3055,-1.2929,-1.3065,-1.3324,-1.3779,-1.3372,-1.3065,-1.2881,-1.3065,-1.3065,-1.2881,-1.3065,-1.3055,-1.2881,-1.2881,-1.2881,-1.2881,-1.2881,-1.2881,-1.2881,-1.2881,-1.2881,-1.2881,-1.2881,-1.2881,-1.2891,-1.3008,-1.2988,-1.29,0.0,0.0,0.0,0.0,0.0,0.0,0.0,0.0,0.0,0.0,0.0,0.0,0.0,0.0,0.26,0.4358,0.451,0.4437,0.4327,0.4327,0.4309,0.4345,0.4348,0.4392,0.4487,0.2794,0.0,0.0,0.0,0.0,0.0,0.0,0.0,0.0,0.0,0.0,0.0,0.0,0.0,0.0,-0.0,0.0,0.0,-0.0,-0.0784,0.0,0.0,0.0,-0.3543,-0.3538,-0.3987,0.0,0.0,0.0,0.0,0.0,0.0,0.0,0.0,0.0,0.0,0.0,0.0,0.0,-1.1015,-1.1516,-1.2021,-1.2774,-1.2881,-1.2881,-1.2881,-1.2881,-1.2881,-1.2881,-1.3104,-1.3286,-1.3286,-1.3286,-1.3382,-1.361,-1.3658,-1.3658,-1.3658,-1.3658,-1.3658,-1.3658,-1.3658,-1.3658,-1.3658,-1.3658,-1.3695,-1.3815,-1.3467,-1.3152,-1.2881,-1.2881,-1.2881,-1.2881,-1.2881,-1.2881,-1.2881,-1.2881,-1.2881,-1.2881,-1.2881,-1.2881,-1.2881,-1.2881,-1.2881,-1.2881,-1.2881,-1.2881,-1.2881,-1.2881,-1.2881,-1.2881,0.0,0.0,0.0,0.0,0.0,0.0,0.0,0.0,0.0,0.0,0.0,0.0,0.0,0.0,0.0,0.0,0.4476,0.4499,0.4525,0.4522,0.4519,0.4519,0.4519,0.4525,0.448,0.449,0.0,0.0,0.0,0.0,0.0,0.0,0.0,0.0,0.0,0.0,0.0,0.0,0.0,-0.0505,-0.0505,-0.028,0.0,0.0,-0.2188,-0.4514,-0.4514,-0.3593,-0.2456,-0.2454,-0.3405,0.0,0.0,0.0,0.0,0.0,-0.6199,0.0,0.0,0.0,0.0,0.0,-0.9814,0.0,-1.1416,-1.1814,-1.2129,-1.2774,-1.2881,-1.2881,-1.2881,-1.2881,-1.2881,-1.2881,-1.3324,-1.3732,-1.3779,-1.3862,-1.4097,-1.4652,-1.4698,-1.4698,-1.4698,-1.4698,-1.4698,-1.4698,-1.4652,-1.4606,-1.4698,-1.456,-1.4283,-1.3815,-1.3732,-1.342,-1.2929,-1.2881,-1.2881,-1.2881,-1.2881,-1.2881,-1.2881,-1.2881,-1.2881,-1.2881,-1.2881,-1.2881,-1.2881,-1.2881,-1.2881,-1.2881,-1.2881,-1.2881,-1.2881,-1.2881,-1.2881,-1.2881,-0.3527,0.0,0.0,0.0,0.0,0.0,0.0,0.0,0.0,0.0,0.0,0.0,0.0,0.0,0.0,0.0,0.4512,0.4501,0.4519,0.4519,0.4519,0.4519,0.4525,0.4477,0.448,0.4501,0.0,0.0,0.0,0.0,0.0,0.0,0.0,0.0,0.0,0.0,0.0,0.0,0.0,-0.3602,-0.3602,0.0,-0.028,-0.2695,-0.3999,-0.4514,-0.4514,-0.4333,-0.4036,-0.403,-0.4625,-0.5332,0.0,0.0,0.0,-0.7069,0.0,0.0,0.0,0.0,0.0,0.0,-0.9814,0.0,-1.0965,-1.1891,-1.2715,-1.2881,-1.2881,-1.2881,-1.2881,-1.2881,-1.2881,-1.2881,-1.3017,-1.3238,-1.3732,-1.4236,-1.456,-1.4709,-1.4698,-1.4698,-1.4698,-1.4698,-1.4698,-1.4698,-1.4236,-1.419,-1.4652,-1.38,-1.342,-1.3779,-1.3334,-1.3017,-1.2881,-1.2881,-1.2881,-1.2881,-1.2881,-1.2881,-1.2881,-1.2881,-1.2881,-1.2881,-1.2881,-1.2881,-1.2881,-1.2881,-1.2881,-1.2881,-1.2881,-1.2881,-1.2881,-1.2881,-1.2881,-1.2881,-0.3581,0.0,0.0,0.0,0.0,0.0,0.0,0.0,0.0,0.0,0.0,0.0,0.0,0.0,0.0,0.0,0.0,0.0,0.0,0.4522,0.4525,0.4525,0.448,0.4144,0.335,0.4104,0.4514,0.0,0.0,0.0,0.0,0.0,0.0,0.0,0.0,0.0,0.0,0.0,-0.3819,-0.4448,-0.3649,0.0,-0.2352,-0.3081,-0.3816,-0.4497,-0.4497,-0.449,-0.448,-0.4473,-0.4952,0.0,-0.5487,-0.5982,-0.6696,0.0,-0.7396,-0.7777,0.0,0.0,0.0,-0.9211,-0.9814,0.0,0.0,-1.1832,-1.2452,-1.2822,-1.2881,-1.2881,-1.2881,-1.2881,-1.2881,-1.2881,-1.3392,-1.3789,-1.3815,-1.4329,-1.4926,-1.5522,-1.5611,-1.5611,-1.5611,-1.5611,-1.5611,-1.5611,-1.505,-1.4687,-1.4698,-1.3826,-1.3324,-1.3324,-1.3065,-1.2881,-1.2881,-1.2881,-1.2881,-1.2881,-1.2881,-1.2881,-1.2881,-1.2881,-1.2881,-1.2881,-1.2881,-1.2881,-1.2881,-1.2881,-1.2881,-1.2881,-1.2881,-1.2881,-1.2881,-1.2881,-1.2881,-1.2881,-0.3581,0.0,0.0,0.0,0.0,0.0,0.0,0.0,0.0,0.0,0.0,0.0,0.0,0.0,0.0,0.0,0.0,0.0,0.0,0.4477,0.4369,0.4082,0.432,0.3928,0.2683,0.3312,0.3658,0.0,0.0,0.0,0.0,0.0,0.0,0.0,0.0,0.0,0.0,0.0,0.0,-0.4379,0.0,-0.3411,-0.4383,-0.313,-0.3408,-0.448,-0.4477,-0.4577,-0.468,-0.4519,-0.5113,-0.5923,-0.576,-0.6308,0.0,0.0,0.0,0.0,0.0,0.0,0.0,-0.9458,-0.9814,-1.0261,0.0,0.0,0.0,-1.2774,-1.2881,-1.2881,-1.2881,-1.2881,-1.2881,-1.2881,-1.3705,-1.4247,-1.3862,-1.4329,-1.5062,-1.6064,-1.6151,-1.6151,-1.6151,-1.625,-1.6281,-1.6151,-1.582,-1.5276,-1.456,-1.405,-1.3505,-1.2929,-1.2881,-1.2881,-1.2881,-1.2881,-1.2881,-1.2881,-1.2881,-1.2881,-1.2881,-1.2881,-1.2881,-1.2881,-1.2881,-1.2881,-1.2881,-1.2881,-1.2881,-1.2881,-1.2881,-1.2881,-1.2881,-1.2881,-1.2881,-1.2881,-0.3581,-0.368,0.0,0.0,0.0,0.0,0.0,0.0,0.0,0.0,0.0,0.0,0.0,0.0,0.0,0.0,0.0,0.0,0.4494,0.0,0.0,0.251,0.3761,0.4399,0.4225,0.1793,0.0505,0.0505,0.0,0.0,0.0,0.0,0.0,0.0,-0.4504,0.0,0.0,0.0,-0.4366,0.0,-0.4301,-0.4363,0.0,-0.4314,-0.4366,-0.4477,-0.4522,-0.4897,-0.5269,-0.468,-0.5823,-0.7343,0.0,-0.745,-0.8427,-0.7777,0.0,0.0,0.0,0.0,-0.799,-0.8745,-0.9814,-1.072,-1.0864,0.0,-1.2774,-1.2881,0.0,-1.2881,-1.2881,0.0,0.0,-1.2881,-1.3027,-1.3286,-1.3732,-1.4329,-1.4744,-1.488,-1.488,-1.488,-1.488,-1.5377,-1.5499,-1.4926,-1.532,-1.5084,-1.3956,-1.3826,-1.3505,-1.2929,-1.2881,-1.2881,-1.2881,-1.2881,-1.2881,-1.2881,-1.2881,-1.2881,-1.2881,-1.2881,-1.2881,-1.2881,-1.2881,-1.2881,-1.2881,-1.2881,-1.2881,-1.2881,-1.2881,-1.2881,-1.2881,-1.2881,-1.2881,-1.2881,-0.3595,-0.3693,0.0,0.0,0.0,0.0,0.0,0.0,0.0,0.0,0.0,0.0,0.0,0.0,0.0,0.0,0.0,0.3188,0.0,0.0,0.0,0.3535,0.2467,0.1906,0.1906,0.0673,-0.0,-0.0,-0.1738,0.0,0.0,0.0,0.0,0.0,-0.4487,0.0,-0.4477,0.0,-0.4525,0.0,0.0,-0.4522,0.0,-0.4525,-0.4525,-0.4525,-0.4519,-0.4948,-0.5433,-0.5164,-0.6253,-0.767,-0.7343,-0.7937,0.0,-0.7937,0.0,0.0,0.0,-0.799,-0.8527,-0.9204,-0.9814,-1.0415,-1.1216,-1.1823,-1.2393,-1.2822,0.0,0.0,0.0,0.0,0.0,0.0,-1.319,-1.3372,-1.3286,-1.3789,-1.4329,-1.4663,-1.5332,-1.5744,-1.5744,-1.5964,-1.6008,-1.5744,-1.5644,-1.5231,-1.4376,-1.4329,-1.4061,-1.342,-1.342,-1.342,-1.342,-1.3055,-1.2881,-1.2881,-1.2881,-1.2881,-1.2881,-1.2881,-1.2881,-1.2881,-1.2881,-1.2881,-1.2881,-1.2881,-1.2881,-1.2881,-1.2881,-1.2881,-1.2881,-1.2881,-1.2881,-1.2881,-0.3721,0.0,0.0,0.0,0.0,0.0,0.0,0.0,0.0,0.0,0.0,0.0,-0.0,0.0949,0.0,0.0,0.0836,0.039,0.0,0.0,0.3086,0.0,0.0,0.0,-0.0616,-0.0616,-0.0616,-0.0616,-0.2805,0.0,0.0,0.0,0.0,0.0,0.0,-0.4525,-0.4519,0.0,-0.4519,-0.4519,-0.4519,-0.4519,-0.4515,-0.468,-0.4787,-0.4787,-0.5007,-0.5492,-0.6032,-0.5651,-0.6465,-0.7616,-0.723,-0.7717,-0.8374,0.0,0.0,0.0,-0.783,-0.8103,-0.8685,-0.9562,-0.9909,-1.0364,-1.1566,-1.1972,-1.2236,-1.2774,-1.2881,0.0,0.0,0.0,-1.2881,-1.2881,0.0,-1.342,-1.2968,-1.342,-1.392,-1.4154,-1.4971,-1.5567,-1.5732,-1.592,-1.602,-1.602,-1.592,-1.5511,-1.4744,-1.488,-1.4595,-1.3815,-1.3815,-1.3732,-1.3552,-1.3104,-1.2881,-1.2881,-1.2881,-1.2881,-1.2881,-1.2881,-1.2881,-1.2881,-1.2881,-1.2881,-1.2881,-1.2881,-1.2881,-1.2881,-1.2881,-1.2881,-1.2881,-1.2881,-1.2881,-1.2881,-0.4005,-0.4076,0.0,0.0,0.0,0.0,0.0,0.0,0.0,0.0,0.0,0.0,0.0,0.0,0.0,0.0,0.0,-0.4284,-0.4284,0.0,-0.0502,0.0,0.0,-0.3652,0.0,-0.212,-0.212,-0.212,-0.2232,-0.3019,0.0,0.0,0.0,0.0,0.0,-0.4519,-0.4519,-0.4519,-0.4519,-0.4519,-0.4519,-0.4519,-0.457,-0.5218,-0.5487,-0.5542,-0.6258,-0.702,-0.7396,-0.5977,-0.6465,-0.745,-0.6032,-0.6578,-0.7616,-0.6858,-0.7182,-0.7723,-0.7723,-0.7723,-0.809,-0.9451,-1.0269,-1.0965,-1.1665,-1.2344,-1.2881,-1.2881,-1.2881,-1.2881,-1.2881,-1.2881,-1.2881,0.0,-1.2929,0.0,0.0,-1.342,-1.36,-1.3017,-1.2968,-1.3238,-1.3815,-1.4422,-1.4755,-1.4755,-1.5832,-1.5964,-1.4744,-1.5231,-1.505,-1.3815,-1.3815,-1.3505,-1.292,-1.2929,-1.2881,-1.2881,-1.2881,-1.2881,-1.2881,-1.2881,-1.2881,-1.2881,-1.2881,-1.2881,-1.2881,-1.2881,-1.2881,-1.2881,-1.2881,-1.2881,-1.2881,-1.2881,-1.2881,-1.2881,0.0,0.0,0.0,0.0,0.0,0.0,0.0,-0.0614,0.0,0.0,-0.2354,0.0,0.0,-0.1452,-0.1452,0.0,0.0,-0.3418,-0.4445,-0.3532,0.0,0.0,0.0,-0.4271,0.0,-0.3697,-0.3697,-0.3697,-0.3747,-0.3971,0.0,0.0,0.0,0.0,0.0,-0.4519,0.0,0.0,0.0,0.0,0.0,-0.5164,-0.5164,-0.4893,-0.5113,-0.5538,-0.576,-0.6632,-0.7563,-0.6578,-0.6907,-0.7503,-0.6529,-0.6583,-0.702,-0.7235,-0.7503,-0.783,-0.8321,-0.8427,-0.8633,-0.9555,-1.0312,-1.0965,-1.1665,-1.2344,-1.2881,-1.2881,-1.2881,-1.2881,-1.2881,-1.2881,0.0,0.0,0.0,-1.2881,0.0,-1.3055,-1.3286,-1.3457,-1.3836,-1.4479,-1.5511,-1.5788,-1.5876,-1.5876,-1.625,-1.6151,-1.532,-1.5864,-1.582,-1.5039,-1.4595,-1.4294,-1.4071,-1.3296,-1.2881,-1.2881,-1.2881,-1.2881,-1.2881,-1.2881,-1.2881,-1.2881,-1.2881,-1.2881,-1.2881,-1.2881,-1.2881,-1.2881,-1.2881,-1.2881,-1.2881,-1.2881,-1.2881,-1.2881,-0.4498,0.0,0.0,0.0,0.0,0.0,0.0,0.0,0.0,0.0,-0.3532,0.0,-0.313,0.0,-0.3019,0.0,-0.3016,-0.3463,-0.4432,-0.449,0.0,-0.3065,-0.3974,-0.4487,0.0,0.0,-0.4484,-0.4484,-0.4477,-0.4473,0.0,0.0,0.0,0.0,0.0,-0.4519,-0.4519,-0.4519,-0.4625,0.0,0.0,-0.5873,-0.5873,-0.5386,-0.5496,-0.5923,-0.6195,-0.674,-0.7235,-0.675,-0.6912,-0.7182,-0.6421,-0.6583,-0.7074,-0.7563,-0.7883,-0.8209,-0.8646,-0.8804,-0.8956,-0.9614,-1.0312,-1.0965,-1.1665,-1.2344,-1.2881,-1.2881,-1.2881,-1.2881,-1.2881,-1.2881,-1.2881,0.0,0.0,0.0,0.0,-1.2881,-1.3104,-1.3732,-1.4143,-1.4824,-1.6051,-1.6194,-1.6281,-1.6466,-1.6522,-1.6324,-1.5952,-1.6281,-1.6238,-1.5632,-1.5017,-1.4606,-1.4376,-1.3382,-1.2881,-1.2881,-1.2881,-1.2881,-1.2881,-1.2881,-1.2881,-1.2881,-1.2881,-1.2881,-1.2881,-1.2881,-1.2881,-1.2881,-1.2881,-1.2881,-1.2881,-1.2881,-1.2881,-1.2881,-0.4519,0.0,0.0,0.0,-0.4525,0.0,0.0,0.0,-0.3981,0.0,-0.3583,-0.4494,-0.4494,-0.4494,-0.4494,-0.4494,-0.4484,-0.448,-0.448,-0.448,0.0,0.0,-0.4473,-0.4529,-0.4574,0.0,0.0,0.0,-0.4519,-0.4519,0.0,0.0,0.0,0.0,-0.4519,0.0,-0.4519,-0.4519,-0.4948,-0.5597,-0.6367,-0.6642,-0.6642,-0.6642,-0.6642,-0.675,-0.7456,-0.7235,-0.6642,-0.6642,-0.6642,-0.6475,-0.576,-0.6519,-0.767,-0.767,-0.8209,-0.8752,-0.8804,-0.8804,-0.8956,-0.9614,-1.0261,-1.0965,-1.1616,-1.2344,-1.2881,-1.2881,-1.2881,-1.2881,-1.2881,-1.2881,-1.2929,0.0,0.0,0.0,-1.2881,-1.2881,-1.3104,-1.3732,-1.3815,-1.4318,-1.5499,-1.5632,-1.5864,-1.6479,-1.6522,-1.6522,-1.6522,-1.6522,-1.6238,-1.5676,-1.5005,-1.4422,-1.3862,-1.32,-1.2881,-1.2881,-1.2881,-1.2881,-1.2881,-1.2881,-1.2881,-1.2881,-1.2881,-1.2881,-1.2881,-1.2881,-1.2881,-1.2881,-1.2881,-1.2881,-1.2881,-1.2881,-1.2881,-1.2881,-0.4519,-0.4519,-0.4519,0.0,-0.4519,-0.4522,-0.4522,-0.4477,0.0,0.0,-0.4249,-0.448,-0.4473,-0.4525,-0.4525,-0.4525,-0.4525,0.0,0.0,0.0,0.0,-0.4519,-0.4522,-0.4736,-0.5218,-0.4732,-0.4732,-0.5218,0.0,0.0,-0.4519,0.0,0.0,0.0,0.0,0.0,-0.4515,-0.5058,-0.5655,-0.6367,-0.7128,-0.7402,-0.7402,-0.7402,-0.7402,-0.745,-0.7616,-0.7563,-0.7402,-0.7402,-0.7074,-0.6588,-0.6367,-0.6583,-0.6966,-0.7557,-0.783,-0.8103,-0.8646,-0.8804,-0.8857,-0.9008,-0.9909,-1.0864,-1.1015,-1.1999,-1.2881,-1.2881,-1.2881,-1.2881,-1.2881,-1.2881,-1.3065,-1.3515,0.0,0.0,-1.2968,-1.2881,-1.3104,-1.3732,-1.419,-1.4789,-1.5543,-1.6008,-1.6324,-1.6479,-1.6522,-1.6522,-1.6522,-1.6522,-1.6423,-1.6281,-1.5242,-1.4606,-1.4468,-1.343,-1.2881,-1.2881,-1.2881,-1.2881,-1.2881,-1.2881,-1.2881,-1.2881,-1.2881,-1.2881,-1.2881,-1.2881,-1.2881,-1.2881,-1.2881,-1.2881,-1.2881,-1.2881,-1.2881,-1.2881,-0.4519,0.0,0.0,-0.4519,0.0,-0.4594,-0.4529,-0.4522,-0.4525,-0.4519,-0.4522,0.0,-0.4519,-0.4519,-0.4625,-0.4897,-0.4948,0.0,-0.5391,0.0,0.0,-0.5445,-0.5445,-0.5605,-0.5982,-0.5605,0.0,-0.5982,0.0,0.0,-0.5391,0.0,0.0,0.0,0.0,-0.468,-0.5003,-0.6032,-0.6686,-0.7128,-0.7883,-0.8156,0.0,-0.8156,-0.8156,-0.8156,-0.8156,-0.7777,-0.7289,-0.7616,-0.7402,-0.7074,-0.7074,-0.7289,-0.7616,-0.8049,-0.8156,-0.8262,-0.8699,-0.8804,-0.8804,-0.8804,-0.9814,-1.0813,-1.0813,-1.1891,-1.2881,-1.2881,-1.2881,-1.2881,-1.2881,-1.2881,-1.3017,-1.3324,-1.3637,-1.3684,-1.3334,-1.3286,-1.3515,-1.4097,-1.4744,-1.5231,-1.5588,-1.6151,-1.6522,-1.6522,-1.6522,-1.6522,-1.6522,-1.6522,-1.6522,-1.6522,-1.5344,-1.4698,-1.4698,-1.3515,-1.2881,-1.2881,-1.2881,-1.2881,-1.2881,-1.2881,-1.2881,-1.2881,-1.2881,-1.2881,-1.2881,-1.2881,-1.2881,-1.2881,-1.2881,-1.2881,-1.2881,-1.2881,-1.2881,-1.2881,-0.4519,0.0,0.0,0.0,0.0,-0.4616,-0.4539,-0.4536,-0.4546,-0.4546,-0.4529,-0.4519,-0.4519,-0.4519,-0.4787,-0.5433,-0.5487,-0.5814,-0.6534,-0.6588,-0.6588,-0.6588,-0.6588,-0.6642,-0.675,-0.6642,-0.6642,-0.675,-0.6642,-0.6588,0.0,0.0,0.0,0.0,0.0,0.0,0.0,-0.7122,-0.7777,-0.7889,-0.8533,-0.8804,-0.8804,-0.8804,-0.8804,-0.8804,-0.8804,-0.7937,-0.6858,-0.7616,-0.7777,-0.7723,-0.783,-0.8262,-0.8804,-0.8804,-0.8804,-0.8804,-0.8804,-0.8804,-0.8804,-0.891,-0.9865,-1.0813,-1.0914,-1.194,-1.2881,-1.2881,-1.2881,-1.2881,-1.2881,-1.2968,-1.2968,-1.2929,-1.342,-1.3768,-1.3684,-1.3732,-1.4003,-1.4514,-1.5186,0.0,-1.5588,-1.6151,-1.6466,-1.638,-1.638,-1.638,-1.638,-1.638,-1.638,-1.638,-1.5287,-1.4663,-1.456,-1.3478,-1.2881,-1.2881,-1.2881,-1.2881,-1.2881,-1.2881,-1.2881,-1.2881,-1.2881,-1.2881,-1.2881,-1.2881,-1.2881,-1.2881,-1.2881,-1.2881,-1.2881,-1.2881,-1.2881,-1.2881,-0.4519,0.0,0.0,0.0,0.0,-0.4549,-0.4522,-0.4568,-0.465,-0.465,-0.4541,-0.4519,-0.4519,-0.4519,-0.4787,-0.5433,-0.5487,-0.5814,-0.6534,-0.6588,-0.6588,-0.6588,-0.6588,-0.6912,-0.7509,-0.6912,-0.6912,-0.7503,-0.6912,-0.6588,-0.6588,0.0,0.0,0.0,0.0,0.0,-0.6475,-0.7343,-0.8049,-0.8646,-0.8752,-0.8804,-0.8804,-0.8804,-0.8804,-0.8804,-0.8804,-0.8262,-0.7616,-0.8374,-0.8209,-0.783,-0.8427,-0.8699,-0.8804,-0.8804,-0.8804,-0.8804,-0.8804,-0.8804,-0.8956,-0.9465,-1.0218,-1.0965,-1.1516,-1.2295,-1.2881,-1.2881,-1.2881,-1.2881,-1.2881,-1.3334,-1.3457,-1.2968,-1.342,-1.3647,-1.3152,-1.3505,-1.3815,-1.3956,-1.4903,-1.5588,-1.5588,-1.6151,-1.6281,-1.582,-1.5764,-1.5764,-1.5764,-1.5764,-1.5764,-1.5764,-1.5062,-1.4468,-1.3956,-1.3238,-1.2881,-1.2881,-1.2881,-1.2881,-1.2881,-1.2881,-1.2881,-1.2881,-1.2881,-1.2881,-1.2881,-1.2881,-1.2881,-1.2881,-1.2881,-1.2881,-1.2881,-1.2881,-1.2881,-1.2881,-0.4701,0.0,0.0,0.0,-0.4701,-0.4701,-0.4701,-0.5111,-0.5214,-0.4649,-0.4834,-0.5003,-0.5003,-0.5386,-0.5878,-0.6578,-0.6632,-0.6956,-0.767,-0.7723,-0.7723,-0.7723,-0.7723,-0.7883,-0.8268,-0.7937,-0.7937,-0.8262,-0.7937,-0.7723,-0.7723,-0.6966,0.0,0.0,0.0,-0.6848,0.0,-0.7943,-0.848,-0.8804,-0.8804,-0.8804,-0.8804,-0.8804,-0.8804,-0.8804,-0.8804,-0.8586,-0.8321,-0.8699,-0.8586,-0.8321,-0.8699,-0.8804,-0.8804,-0.8804,-0.8804,-0.8857,-0.9211,-0.9309,-0.9413,-0.971,-1.0568,-1.1316,-1.1266,-1.2098,-1.2881,-1.2881,-1.2881,-1.2881,-1.2881,-1.3372,-1.3589,-1.3017,-1.342,-1.3684,-1.342,-1.3637,-1.4039,-1.4675,-1.5276,-1.572,-1.6051,-1.6051,-1.6051,-1.6051,-1.5776,-1.5588,-1.5588,-1.532,-1.5141,-1.5141,-1.4549,-1.4097,-1.3815,-1.32,-1.2881,-1.2881,-1.2881,-1.2881,-1.2881,-1.2881,-1.2881,-1.2881,-1.2881,-1.2881,-1.2881,-1.2881,-1.2881,-1.2881,-1.2881,-1.2881,-1.2881,-1.2881,-1.2881,-1.2881,0.0,-0.4823,0.0,0.0,-0.5012,-0.4987,-0.5288,-0.5668,-0.5611,-0.4871,-0.5352,-0.576,-0.576,-0.6253,-0.6912,-0.7616,-0.7723,-0.799,-0.8752,-0.8804,-0.8804,-0.8804,-0.8804,-0.8804,-0.8804,-0.8804,-0.8804,-0.8804,-0.8871,-0.8871,-0.8752,-0.7726,0.0,0.0,0.0,-0.7884,-0.7723,-0.848,-0.8804,-0.8804,-0.8804,-0.8804,-0.8804,-0.8804,-0.8804,-0.8804,-0.8804,-0.8804,-0.8804,-0.8804,-0.8804,-0.8804,-0.8804,-0.8804,-0.8804,-0.8804,-0.8804,-0.891,-0.9465,-0.971,-0.9814,-0.9961,-1.0914,-1.1715,-1.1325,-1.2098,-1.2881,-1.2881,-1.2881,-1.2881,-1.2881,-1.3286,-1.3467,-1.2968,-1.3286,-1.36,-1.36,-1.3732,-1.4179,-1.5276,-1.5543,-1.582,-1.6423,-1.5952,-1.582,-1.6281,-1.5632,-1.5231,-1.5231,-1.4789,-1.4514,-1.4514,-1.405,-1.3732,-1.36,-1.3152,-1.2881,-1.2881,-1.2881,-1.2881,-1.2881,-1.2881,-1.2881,-1.2881,-1.2881,-1.2881,-1.2881,-1.2881,-1.2881,-1.2881,-1.2881,-1.2881,-1.2881,-1.2881,-1.2881,-1.2881,0.0,0.0,-0.514,-0.5924,-0.5329,-0.5231,-0.6663,-0.6099,-0.5588,-0.5669,-0.6156,-0.648,-0.648,-0.6534,-0.6912,-0.7616,-0.7723,-0.799,-0.8752,-0.8804,-0.8804,-0.8804,-0.8804,-0.8804,-0.8804,-0.8804,-0.8804,-0.8804,-0.9072,-0.9065,-0.8818,-0.9233,-0.8934,-0.8187,-0.8805,-0.8549,-0.7723,-0.848,-0.8804,-0.8804,-0.8804,-0.8804,-0.8804,-0.8804,-0.8804,-0.8804,-0.8804,-0.8804,-0.8804,-0.8804,-0.8804,-0.8804,-0.8804,-0.8804,-0.8804,-0.8804,-0.8804,-0.8804,-0.8857,-0.9361,-0.9969,-1.0559,-1.1266,-1.1972,-1.2559,-1.2832,-1.2881,-1.2881,-1.2881,-1.2881,-1.2881,-1.2978,-1.2978,-1.2929,-1.2978,-1.2968,-1.2968,-1.3467,-1.405,-1.4698,-1.5276,-1.582,-1.6423,-1.5952,-1.5632,-1.5676,-1.4641,-1.3956,-1.3956,-1.3909,-1.3862,-1.3862,-1.3815,-1.3552,-1.2968,-1.2929,-1.2881,-1.2881,-1.2881,-1.2881,-1.2881,-1.2881,-1.2881,-1.2881,-1.2881,-1.2881,-1.2881,-1.2881,-1.2881,-1.2881,-1.2881,-1.2881,-1.2881,-1.2881,-1.2881,-1.2881,-0.5186,-0.5111,-0.5321,-0.6354,-0.6038,-0.6065,-0.7066,-0.7255,-0.7187,-0.696,-0.7133,-0.7235,-0.7235,-0.767,-0.8049,-0.8321,-0.8374,-0.848,-0.8758,-0.8804,-0.8804,-0.8804,-0.8804,-0.8804,-0.8804,-0.8804,-0.8804,-0.8804,-0.9044,-0.9123,-0.9017,-0.8851,-0.8465,-0.793,-0.8648,-0.8751,-0.8374,-0.8699,-0.8804,-0.8804,-0.8804,-0.8804,-0.8804,-0.8804,-0.8804,-0.8804,-0.8804,-0.8804,-0.8804,-0.8804,-0.8804,-0.8804,-0.8804,-0.8804,-0.8804,-0.8804,-0.8804,-0.8956,-0.9762,-1.0218,-1.0568,-1.1216,-1.1931,-1.2403,-1.2295,-1.2559,-1.2881,-1.2881,-1.2881,-1.2881,-1.2881,-1.2881,-1.2881,-1.2881,-1.2881,-1.2881,-1.2881,-1.3104,-1.3467,-1.4097,-1.4365,-1.4778,-1.5377,-1.4869,-1.4503,-1.4503,-1.4086,-1.3815,-1.3815,-1.3467,-1.3238,-1.3238,-1.3238,-1.3152,-1.2881,-1.2881,-1.2881,-1.2881,-1.2881,-1.2881,-1.2881,-1.2881,-1.2881,-1.2881,-1.2881,-1.2881,-1.2881,-1.2881,-1.2881,-1.2881,-1.2881,-1.2881,-1.2881,-1.2881,-1.2881,-1.2881,-0.542,-0.5304,-0.5614,-0.6894,-0.6698,-0.6754,-0.7865,-0.8177,-0.8267,-0.8051,-0.8049,-0.8049,-0.8049,-0.848,-0.8804,-0.8804,-0.8804,-0.8804,-0.8804,-0.8804,-0.8804,-0.8804,-0.8804,-0.8804,-0.8804,-0.8804,-0.8804,-0.8804,-0.9044,-0.9143,-0.9064,-0.8694,-0.8349,-0.8165,-0.8663,-0.8884,-0.8804,-0.8804,-0.8804,-0.8804,-0.8804,-0.8804,-0.8804,-0.8804,-0.8804,-0.8804,-0.8804,-0.8804,-0.8804,-0.8804,-0.8804,-0.8804,-0.8804,-0.8804,-0.8804,-0.8804,-0.8962,-0.9309,-1.0269,-1.0813,-1.1216,-1.1665,-1.2344,-1.2774,-1.2236,-1.251,-1.2881,-1.2881,-1.2881,-1.2881,-1.2881,-1.2881,-1.2881,-1.2881,-1.2881,-1.2881,-1.2881,-1.2881,-1.3104,-1.3732,-1.3956,-1.4283,-1.4926,-1.4422,-1.405,-1.405,-1.3732,-1.3552,-1.3552,-1.3152,-1.2881,-1.2881,-1.2881,-1.2881,-1.2881,-1.2881,-1.2881,-1.2881,-1.2881,-1.2881,-1.2881,-1.2881,-1.2881,-1.2881,-1.2881,-1.2881,-1.2881,-1.2881,-1.2881,-1.2881,-1.2881,-1.2881,-1.2881,-1.2881,-1.2881,-1.2881,-0.5559,-0.5464,-0.5947,-0.7702,-0.7081,-0.7121,-0.9304,-0.8858,-0.8355,-0.8738,-0.8804,-0.8804,-0.8804,-0.8804,-0.8804,-0.8804,-0.8804,-0.8804,-0.8804,-0.8804,-0.8804,-0.8804,-0.8804,-0.8804,-0.8804,-0.8804,-0.8804,-0.8804,-0.9044,-0.9037,-0.8818,-0.905,-0.9183,-0.9176,-0.9183,-0.9072,-0.8804,-0.8804,-0.8804,-0.8804,-0.8804,-0.8804,-0.8804,-0.8804,-0.8804,-0.8804,-0.8804,-0.8804,-0.8804,-0.8804,-0.8804,-0.8804,-0.8804,-0.8804,-0.8804,-0.8804,-0.9263,-0.9814,-0.9814,-1.0762,-1.1765,-1.1814,-1.2344,-1.2881,-1.2881,-1.2881,-1.2881,-1.2881,-1.2881,-1.2881,-1.2881,-1.2881,-1.2881,-1.2881,-1.2881,-1.2881,-1.2881,-1.2881,-1.3104,-1.3732,-1.4329,-1.4926,-1.5543,-1.505,-1.4709,-1.4709,-1.3563,-1.2929,-1.2929,-1.2881,-1.2881,-1.2881,-1.2881,-1.2881,-1.2881,-1.2881,-1.2881,-1.2881,-1.2881,-1.2881,-1.2881,-1.2881,-1.2881,-1.2881,-1.2881,-1.2881,-1.2881,-1.2881,-1.2881,-1.2881,-1.2881,-1.2881,-1.2881,-1.2881,-1.2881,-1.2881,-0.7202,-0.7227,-0.7507,-0.8683,-0.8411,-0.8404,-0.9545,-0.9256,-0.8857,-0.8791,-0.8804,-0.8804,-0.8804,-0.8804,-0.8804,-0.8804,-0.8804,-0.8804,-0.8804,-0.8804,-0.8804,-0.8804,-0.8804,-0.8804,-0.8804,-0.8804,-0.8804,-0.8804,-0.9044,-0.9137,-0.905,-0.9143,-0.9077,-0.8945,-0.8945,-0.8891,-0.8804,-0.8804,-0.8804,-0.8804,-0.8804,-0.8804,-0.8804,-0.8804,-0.8804,-0.8804,-0.8804,-0.8804,-0.8804,-0.8804,-0.8804,-0.8857,-0.9361,-0.9465,-0.9465,-0.9465,-0.9961,-1.0568,-1.1065,-1.1466,-1.1922,-1.2403,-1.2715,-1.2881,-1.2881,-1.2881,-1.2881,-1.2881,-1.2881,-1.2881,-1.2881,-1.2881,-1.2881,-1.2881,-1.2881,-1.2881,-1.2881,-1.2881,-1.2968,-1.3152,-1.3382,-1.3695,-1.4318,-1.3836,-1.3647,-1.405,-1.3334,-1.2881,-1.2881,-1.2881,-1.2881,-1.2881,-1.2881,-1.2881,-1.2881,-1.2881,-1.2881,-1.2881,-1.2881,-1.2881,-1.2881,-1.2881,-1.2881,-1.2881,-1.2881,-1.2881,-1.2881,-1.2881,-1.2881,-1.2881,-1.2881,-1.2881,-1.2881,-1.2881,-1.2881,-1.2881,-0.8068,-0.8017,-0.8291,-0.9139,-0.9127,-0.9174,-0.9768,-0.9686,-0.9426,-0.9025,-0.8971,-0.8931,-0.8818,-0.8804,-0.8804,-0.8804,-0.8804,-0.8804,-0.8804,-0.8804,-0.8804,-0.8804,-0.8804,-0.8804,-0.8804,-0.8804,-0.8804,-0.8804,-0.8985,-0.9024,-0.9024,-0.9024,-0.8978,-0.8804,-0.8804,-0.8804,-0.8804,-0.8804,-0.8804,-0.8804,-0.8804,-0.8804,-0.8804,-0.8804,-0.8804,-0.8804,-0.8804,-0.8804,-0.8857,-0.9106,-0.9159,-0.9309,-0.9969,-1.0364,-1.0517,-1.0269,-1.0661,-1.1266,-1.1665,-1.1972,-1.2344,-1.2774,-1.2881,-1.2881,-1.2881,-1.2881,-1.2881,-1.2881,-1.2881,-1.2881,-1.2881,-1.2881,-1.2881,-1.2881,-1.2881,-1.2881,-1.2881,-1.2881,-1.2881,-1.2881,-1.3104,-1.3372,-1.3779,-1.3467,-1.3372,-1.3768,-1.3238,-1.2881,-1.2881,-1.2881,-1.2881,-1.2881,-1.2881,-1.2881,-1.2881,-1.2881,-1.2881,-1.2881,-1.2881,-1.2881,-1.2881,-1.2881,-1.2881,-1.2881,-1.2881,-1.2881,-1.2881,-1.2881,-1.2881,-1.2881,-1.2881,-1.2881,-1.2881,-1.2881,-1.2881,-1.2881,-0.8369,-0.824,-0.8415,-0.9268,-0.9384,-0.9542,-1.0032,-1.01,-0.988,-0.9256,-0.9183,-0.907,-0.8838,-0.8804,-0.8804,-0.8804,-0.8804,-0.8804,-0.8804,-0.8804,-0.8804,-0.8804,-0.8804,-0.8804,-0.8804,-0.8804,-0.8804,-0.8804,-0.8804,-0.8804,-0.8804,-0.8804,-0.8804,-0.8804,-0.8831,-0.8824,-0.8804,-0.8831,-0.8824,-0.8804,-0.8804,-0.8804,-0.8804,-0.8804,-0.8804,-0.8804,-0.8804,-0.8804,-0.891,-0.9562,-0.9814,-0.9917,-1.0669,-1.1316,-1.1665,-1.1065,-1.1366,-1.1864,-1.1864,-1.2393,-1.2881,-1.2881,-1.2881,-1.2881,-1.2881,-1.2881,-1.2881,-1.2881,-1.2881,-1.2881,-1.2881,-1.2881,-1.2881,-1.2881,-1.2881,-1.2881,-1.2881,-1.2881,-1.2881,-1.2881,-1.342,-1.3732,-1.3815,-1.3779,-1.3732,-1.3815,-1.3238,-1.2881,-1.2881,-1.2881,-1.2881,-1.2881,-1.2881,-1.2881,-1.2881,-1.2881,-1.2881,-1.2881,-1.2881,-1.2881,-1.2881,-1.2881,-1.2881,-1.2881,-1.2881,-1.2881,-1.2881,-1.2881,-1.2881,-1.2881,-1.2881,-1.2881,-1.2881,-1.2881,-1.2881,-1.2881,-1.0097,-1.0021,-1.004,-1.0238,-1.0056,-0.9949,-1.0066,-0.9927,-0.9653,-0.923,-0.9183,-0.907,-0.8838,-0.8804,-0.8804,-0.8804,-0.8804,-0.8804,-0.8804,-0.8804,-0.8804,-0.8804,-0.8804,-0.8804,-0.8804,-0.8804,-0.8804,-0.8804,-0.8804,-0.8804,-0.8804,-0.8804,-0.8804,-0.8818,-0.9038,-0.9011,-0.8824,-0.9045,-0.9011,-0.8804,-0.8804,-0.8804,-0.8804,-0.8804,-0.8804,-0.8804,-0.8804,-0.8804,-0.891,-0.9562,-0.9814,-1.002,-1.1216,-1.1665,-1.1765,-1.1616,-1.2089,-1.2657,-1.2657,-1.2774,-1.2881,-1.2881,-1.2881,-1.2881,-1.2881,-1.2881,-1.2881,-1.2881,-1.2881,-1.2881,-1.2881,-1.2881,-1.2881,-1.2881,-1.2881,-1.2881,-1.2881,-1.2881,-1.2881,-1.2881,-1.3017,-1.3286,-1.3779,-1.3372,-1.3286,-1.3779,-1.3238,-1.2881,-1.2881,-1.2881,-1.2881,-1.2881,-1.2881,-1.2881,-1.2881,-1.2881,-1.2881,-1.2881,-1.2881,-1.2881,-1.2881,-1.2881,-1.2881,-1.2881,-1.2881,-1.2881,-1.2881,-1.2881,-1.2881,-1.2881,-1.2881,-1.2881,-1.2881,-1.2881,-1.2881,-1.2881,-1.0678,-1.0624,-1.0624,-1.0624,-1.0428,-1.0321,-1.0321,-1.0074,-0.9773,-0.9479,-0.9269,-0.907,-0.8838,-0.8804,-0.8804,-0.8804,-0.8804,-0.8804,-0.8804,-0.8804,-0.8804,-0.8804,-0.8804,-0.8804,-0.8804,-0.8804,-0.8871,-0.9005,-0.9005,-0.9005,-0.9005,-0.9005,-0.8931,-0.8811,-0.8971,-0.8958,-0.8818,-0.8978,-0.8951,-0.8804,-0.8804,-0.8804,-0.8804,-0.8804,-0.8804,-0.8804,-0.8804,-0.8804,-0.891,-0.9562,-1.0012,-1.0415,-1.1458,-1.203,-1.2295,-1.2295,-1.2608,-1.2881,-1.2881,-1.2881,-1.2881,-1.2881,-1.2881,-1.2881,-1.2881,-1.2881,-1.2881,-1.2881,-1.2881,-1.2881,-1.2881,-1.2881,-1.2881,-1.2881,-1.2881,-1.2881,-1.2881,-1.2881,-1.2881,-1.2881,-1.2881,-1.3017,-1.3372,-1.3104,-1.3065,-1.3372,-1.3113,-1.2881,-1.2881,-1.2881,-1.2881,-1.2881,-1.2881,-1.2881,-1.2881,-1.2881,-1.2881,-1.2881,-1.2881,-1.2881,-1.2881,-1.2881,-1.2881,-1.2881,-1.2881,-1.2881,-1.2881,-1.2881,-1.2881,-1.2881,-1.2881,-1.2715,-1.2393,-1.2393,-1.2197,-1.195,-1.0678,-1.0624,-1.0624,-1.0624,-1.0624,-1.0624,-1.0624,-1.0307,-1.0013,-0.9726,-0.9426,-0.907,-0.8838,-0.8804,-0.8804,-0.8804,-0.8804,-0.8804,-0.8804,-0.8804,-0.8804,-0.8804,-0.8804,-0.8804,-0.8804,-0.8804,-0.8925,-0.9117,-0.9117,-0.9143,-0.9183,-0.9183,-0.9057,-0.8878,-0.8918,-0.8891,-0.8811,-0.8851,-0.8844,-0.8804,-0.8804,-0.8804,-0.8804,-0.8804,-0.8804,-0.8804,-0.8804,-0.8804,-0.891,-0.971,-1.032,-1.0965,-1.1724,-1.2393,-1.2881,-1.2881,-1.2881,-1.2881,-1.2881,-1.2881,-1.2881,-1.2881,-1.2881,-1.2881,-1.2881,-1.2881,-1.2881,-1.2881,-1.2881,-1.2881,-1.2881,-1.2881,-1.2881,-1.2881,-1.2881,-1.2881,-1.2881,-1.2881,-1.2881,-1.2881,-1.2881,-1.2881,-1.2881,-1.2881,-1.2881,-1.2881,-1.2881,-1.2881,-1.2881,-1.2881,-1.2881,-1.2881,-1.2881,-1.2881,-1.2881,-1.2881,-1.2881,-1.2881,-1.2881,-1.2881,-1.2881,-1.2881,-1.2881,-1.2881,-1.2774,-1.2715,-1.2715,-1.2618,-1.2569,-1.2569,-1.2569,-1.2197,-1.1665,-1.1665,-1.1266,-1.0813,-1.0678,-1.0624,-1.0624,-1.0624,-1.0624,-1.0624,-1.0624,-1.0307,-1.0013,-0.9726,-0.9426,-0.907,-0.8838,-0.8804,-0.8804,-0.8804,-0.8804,-0.8804,-0.8804,-0.8804,-0.8804,-0.8804,-0.8804,-0.8804,-0.8804,-0.8804,-0.8831,-0.8878,-0.8878,-0.8998,-0.9183,-0.9183,-0.9157,-0.913,-0.9432,-0.9272,-0.8824,-0.9017,-0.9031,-0.8804,-0.8804,-0.8804,-0.8804,-0.8804,-0.8804,-0.8804,-0.8804,-0.8804,-0.9008,-1.0218,-1.0712,-1.1023,-1.2304,-1.2822,-1.2881,-1.2881,-1.2881,-1.2881,-1.2881,-1.2881,-1.2881,-1.2881,-1.2881,-1.2881,-1.2881,-1.2881,-1.2881,-1.2881,-1.2881,-1.2881,-1.2881,-1.2881,-1.2881,-1.2881,-1.2881,-1.2881,-1.2881,-1.2881,-1.2881,-1.2881,-1.2881,-1.2881,-1.2881,-1.2881,-1.2881,-1.2881,-1.2881,-1.2881,-1.2881,-1.2881,-1.2881,-1.2881,-1.2881,-1.2881,-1.2881,-1.2881,-1.2881,-1.2881,-1.2881,-1.2881,-1.2881,-1.2881,-1.2881,-1.2881,-1.2236,-1.1972,-1.1922,-1.1375,-1.1124,-1.1124,-1.1124,-1.1074,-1.0965,-1.0965,-1.0864,-1.0813,-1.0678,-1.0624,-1.0624,-1.0624,-1.0624,-1.0571,-1.0347,-1.0074,-0.9773,-0.9486,-0.9185,-0.8958,-0.8824,-0.8804,-0.8804,-0.8804,-0.8804,-0.8804,-0.8804,-0.8804,-0.8804,-0.8804,-0.8804,-0.8804,-0.8804,-0.8804,-0.8884,-0.9038,-0.9198,-0.9345,-0.9479,-0.9479,-0.9392,-0.9183,-0.9218,-0.9058,-0.8818,-0.8951,-0.8931,-0.8804,-0.8804,-0.8804,-0.8804,-0.8804,-0.8804,-0.8804,-0.8804,-0.8804,-0.8962,-0.9909,-1.0517,-1.0965,-1.199,-1.2559,-1.2881,-1.2881,-1.2881,-1.2881,-1.2881,-1.2881,-1.2881,-1.2881,-1.2881,-1.2881,-1.2881,-1.2881,-1.2881,-1.2881,-1.2881,-1.2881,-1.2881,-1.2881,-1.2881,-1.2881,-1.2881,-1.2881,-1.2881,-1.2881,-1.2881,-1.2881,-1.2881,-1.2881,-1.2881,-1.2881,-1.2881,-1.2881,-1.2881,-1.2881,-1.2881,-1.2881,-1.2881,-1.2881,-1.2881,-1.2881,-1.2881,-1.2881,-1.2881,-1.2881,-1.2881,-1.2881,-1.2881,-1.2501,-1.2304,-1.2264,-1.1575,-1.1266,-1.1266,-1.0914,-1.0813,-1.0813,-1.0813,-1.0568,-1.0261,-1.0261,-1.0012,-0.971,-1.0665,-1.0624,-1.0624,-1.0624,-1.0624,-1.0461,-1.016,-0.9873,-0.9579,-0.9223,-0.8985,-0.8804,-0.8804,-0.8804,-0.8804,-0.8804,-0.8804,-0.8804,-0.8804,-0.8804,-0.8804,-0.8804,-0.8804,-0.8804,-0.8804,-0.8804,-0.8945,-0.9183,-0.9472,-0.9619,-0.9686,-0.9686,-0.9526,-0.9176,-0.9005,-0.8871,-0.8804,-0.8804,-0.8804,-0.8804,-0.8804,-0.8804,-0.8804,-0.8804,-0.8804,-0.8804,-0.8804,-0.8804,-0.891,-0.9562,-1.0269,-1.0914,-1.1566,-1.2295,-1.2881,-1.2881,-1.2881,-1.2881,-1.2881,-1.2881,-1.2881,-1.2881,-1.2881,-1.2881,-1.2881,-1.2881,-1.2881,-1.2881,-1.2881,-1.2881,-1.2881,-1.2881,-1.2881,-1.2881,-1.2881,-1.2881,-1.2881,-1.2881,-1.2881,-1.2881,-1.2881,-1.2881,-1.2881,-1.2881,-1.2881,-1.2881,-1.2881,-1.2881,-1.2881,-1.2881,-1.2881,-1.2881,-1.2881,-1.2881,-1.2881,-1.2881,-1.2881,-1.2881,-1.2881,-1.2822,-1.2618,-1.208,-1.1724,-1.1543,-1.0872,-1.0568,-1.0568,-1.0415,-1.0364,-1.0364,-1.0364,-1.0012,-0.9562,-0.9562,-0.9263,-0.8804,-1.0624,-1.0624,-1.0624,-1.0624,-1.0624,-1.0461,-1.016,-0.9873,-0.9579,-0.9223,-0.8985,-0.8804,-0.8804,-0.8804,-0.8804,-0.8804,-0.8804,-0.8804,-0.8804,-0.8804,-0.8804,-0.8804,-0.8804,-0.8804,-0.8804,-0.8804,-0.8945,-0.9183,-0.9203,-0.9412,-0.9686,-0.9686,-0.9526,-0.9183,-0.9163,-0.9058,-0.8804,-0.8804,-0.8804,-0.8804,-0.8804,-0.8804,-0.8804,-0.8804,-0.8804,-0.8804,-0.8804,-0.8804,-0.891,-0.9562,-1.0269,-1.0914,-1.1566,-1.2295,-1.2881,-1.2881,-1.2881,-1.2881,-1.2881,-1.2881,-1.2881,-1.2881,-1.2881,-1.2881,-1.2881,-1.2881,-1.2881,-1.2881,-1.2881,-1.2881,-1.2881,-1.2881,-1.2881,-1.2881,-1.2881,-1.2881,-1.2881,-1.2881,-1.2881,-1.2881,-1.2881,-1.2881,-1.2881,-1.2881,-1.2881,-1.2881,-1.2881,-1.2881,-1.2881,-1.2881,-1.2881,-1.2881,-1.2881,-1.2881,-1.2881,-1.2881,-1.2881,-1.2881,-1.2881,-1.2559,-1.1864,-1.1814,-1.1466,-1.0821,-1.0167,-0.9865,-0.9814,-0.9211,-0.8962,-0.8962,-0.8962,-0.891,-0.8857,-0.8857,-0.8857,-0.8804,-1.0624,-1.0624,-1.0624,-1.0624,-1.0361,-1.012,-0.988,-0.9599,-0.9305,-0.9011,-0.8878,-0.8804,-0.8804,-0.8804,-0.8804,-0.8804,-0.8804,-0.8804,-0.8804,-0.8804,-0.8804,-0.8804,-0.8804,-0.8804,-0.8804,-0.8804,-0.8864,-0.8971,-0.9097,-0.9243,-0.9412,-0.9412,-0.9345,-0.9176,-0.9051,-0.8911,-0.8804,-0.8804,-0.8804,-0.8804,-0.8804,-0.8804,-0.8804,-0.8804,-0.8804,-0.8804,-0.8804,-0.8804,-0.8962,-1.0064,-1.0568,-1.1015,-1.2147,-1.2666,-1.2881,-1.2881,-1.2881,-1.2881,-1.2881,-1.2881,-1.2881,-1.2881,-1.2881,-1.2881,-1.2881,-1.2881,-1.2881,-1.2881,-1.2881,-1.2881,-1.2881,-1.2881,-1.2881,-1.2881,-1.2881,-1.2881,-1.2881,-1.2881,-1.2881,-1.2881,-1.2881,-1.2881,-1.2881,-1.2881,-1.2881,-1.2881,-1.2881,-1.2881,-1.2881,-1.2881,-1.2881,-1.2881,-1.2452,-1.2452,-1.2881,-1.2881,-1.2881,-1.2881,-1.2452,-1.208,-1.1765,-1.0965,-1.0415,-1.0167,-0.9458,-0.9159,-0.9159,-0.891,-0.8804,-0.8804,-0.8804,-0.8533,-0.8156,-0.8646,-0.8533,-0.8103,-1.0624,-1.0624,-1.0598,-1.0441,-1.0194,-0.9913,-0.9593,-0.9372,-0.9084,-0.8844,-0.8804,-0.8804,-0.8804,-0.9008,-0.9106,-0.9106,-0.9106,-0.9106,-0.9106,-0.891,-0.8804,-0.8804,-0.8804,-0.8804,-0.8804,-0.8804,-0.8851,-0.8945,-0.909,-0.9183,-0.9183,-0.9183,-0.9137,-0.9044,-0.8898,-0.8804,-0.8804,-0.8804,-0.8804,-0.8804,-0.8804,-0.8804,-0.8804,-0.8804,-0.8804,-0.8804,-0.8804,-0.8956,-0.9263,-1.0167,-1.0771,-1.1266,-1.2246,-1.2715,-1.2881,-1.2881,-1.2881,-1.2881,-1.2881,-1.2881,-1.2881,-1.2881,-1.2881,-1.2881,-1.2881,-1.2881,-1.2881,-1.2881,-1.2881,-1.2881,-1.2881,-1.2881,-1.2881,-1.2881,-1.2881,-1.2881,-1.2881,-1.2881,-1.2881,-1.2881,-1.2881,-1.2881,-1.2881,-1.2881,-1.2881,-1.2881,-1.2666,-1.2559,-1.2559,-1.2353,-1.2461,-1.2881,-1.2187,-1.2129,-1.2881,-1.2666,-1.2559,-1.2559,-1.203,-1.1566,-1.1166,-1.0218,-0.9666,-0.9465,-0.9008,-0.8646,-0.848,-0.848,-0.8315,-0.8103,-0.8103,-0.7777,-0.745,-0.8156,-0.8156,-0.7723,-1.0618,-1.0624,-1.053,-1.0174,-1.0114,-0.9913,-0.9276,-0.919,-0.9084,-0.8844,-0.8811,-0.8811,-0.8811,-0.9413,-0.9814,-0.9814,-0.9814,-0.9814,-0.9814,-0.9159,-0.8804,-0.8804,-0.8804,-0.8804,-0.8804,-0.8804,-0.8945,-0.9183,-0.9183,-0.9183,-0.9183,-0.9183,-0.9078,-0.8804,-0.8811,-0.8811,-0.8811,-0.8804,-0.8804,-0.8804,-0.8804,-0.8804,-0.8804,-0.8804,-0.8804,-0.8804,-0.8804,-0.9263,-0.9814,-0.9814,-1.0712,-1.1814,-1.1814,-1.2295,-1.2881,-1.2881,-1.2881,-1.2881,-1.2881,-1.2881,-1.2881,-1.2881,-1.2881,-1.2881,-1.2881,-1.2881,-1.2881,-1.2881,-1.2881,-1.2881,-1.2881,-1.2881,-1.2881,-1.2881,-1.2881,-1.2881,-1.2881,-1.2881,-1.2881,-1.2881,-1.2881,-1.2881,-1.2881,-1.2881,-1.2881,-1.2881,-1.2236,-1.1814,-1.1814,-1.1166,-1.1434,-1.2832,-1.2187,-1.2138,-1.2881,-1.2187,-1.1814,-1.1814,-1.1765,-1.1065,-0.9814,-0.9814,-0.9413,-0.8804,-0.8804,-0.8374,-0.767,-0.767,-0.7235,-0.6588,-0.6588,-0.6588,-0.6696,-0.7402,-0.767,-0.7777,-1.0294,-1.0414,-1.0598,-1.0441,-1.0087,-0.9826,-0.9853,-0.9449,-0.915,-0.9064,-0.9057,-0.9187,-0.9487,-0.9666,-0.9969,-1.0466,-1.0064,-0.9614,-0.9113,-0.8903,-0.8804,-0.8804,-0.8804,-0.8804,-0.8804,-0.8804,-0.8851,-0.8938,-0.8938,-0.8938,-0.8938,-0.8938,-0.8891,-0.8804,-0.9309,-0.951,-0.951,-1.0012,-1.0218,-1.0218,-1.0218,-1.0218,-1.0218,-1.0218,-1.0218,-1.0218,-1.0218,-1.0312,-1.0559,-1.1065,-1.1466,-1.1873,-1.2403,-1.2715,-1.2881,-1.2881,-1.2881,-1.2881,-1.2881,-1.2881,-1.2881,-1.2881,-1.2881,-1.2881,-1.2881,-1.2881,-1.2881,-1.2881,-1.2881,-1.2969,-1.3271,-1.3076,-1.2978,-1.3271,-1.3076,-1.2881,-1.2881,-1.2881,-1.2881,-1.2881,-1.2881,-1.2881,-1.2881,-1.2452,-1.2344,-1.2871,-1.2236,-1.1616,-1.1116,-1.0914,-1.0973,-1.1434,-1.0771,-1.072,-1.1434,-1.1665,-1.1814,-1.1765,-1.0864,-1.0167,-0.9762,-0.9309,-0.8685,-0.8049,-0.8049,-0.761,-0.6912,-0.6912,-0.6804,-0.6588,-0.6588,-0.6258,-0.5923,-0.6637,-0.6578,-0.6195,-1.0327,-1.0441,-1.0584,-1.0408,-0.9993,-0.9706,-0.976,-0.9372,-0.9017,-0.9017,-0.9275,-0.9521,-0.9784,-1.0261,-1.0669,-1.0762,-1.0167,-0.951,-0.8857,-0.8804,-0.8804,-0.8804,-0.8804,-0.8804,-0.8804,-0.8804,-0.8804,-0.8804,-0.8804,-0.8804,-0.8811,-0.9061,-0.9211,-0.9211,-0.9917,-1.0218,-1.0218,-1.0618,-1.0813,-1.0813,-1.0813,-1.0813,-1.0813,-1.0813,-1.0813,-1.0813,-1.0813,-1.0965,-1.1266,-1.1665,-1.1972,-1.2295,-1.2774,-1.2881,-1.2881,-1.2881,-1.2881,-1.2881,-1.2881,-1.2881,-1.2881,-1.2881,-1.2881,-1.2881,-1.2881,-1.2881,-1.293,-1.3096,-1.3135,-1.3262,-1.3682,-1.3545,-1.3457,-1.3711,-1.3408,-1.3184,-1.335,-1.3232,-1.3135,-1.3135,-1.3135,-1.3066,-1.29,-1.251,-1.2295,-1.2452,-1.1823,-1.1216,-1.0813,-1.0312,-1.0261,-1.0762,-1.0167,-1.0115,-1.0813,-1.0965,-1.1015,-1.1015,-1.0167,-0.9503,-0.8981,-0.8527,-0.7943,-0.7289,-0.7289,-0.6853,-0.6145,-0.6145,-0.5987,-0.5773,-0.5773,-0.5496,-0.5164,-0.5928,-0.5869,-0.5542,-1.0551,-1.0564,-1.0428,-1.0127,-0.984,-0.9559,-0.9263,-0.9031,-0.8844,-0.8844,-0.9404,-0.9851,-0.9821,-1.0965,-1.1466,-1.0864,-1.0167,-0.951,-0.8857,-0.8804,-0.8804,-0.8804,-0.8804,-0.8804,-0.8804,-0.8804,-0.8804,-0.8804,-0.8804,-0.8857,-0.891,-0.951,-0.9814,-0.9917,-1.061,-1.0864,-1.0914,-1.0965,-1.0973,-1.0973,-1.0973,-1.0973,-1.0973,-1.0973,-1.0973,-1.0973,-1.0973,-1.1366,-1.1913,-1.1913,-1.2344,-1.2881,-1.2881,-1.2881,-1.2881,-1.2881,-1.2881,-1.2881,-1.2881,-1.2881,-1.2881,-1.2881,-1.291,-1.293,-1.2891,-1.291,-1.3047,-1.3428,-1.3535,-1.3691,-1.4111,-1.4107,-1.4087,-1.4136,-1.3838,-1.3691,-1.4029,-1.3799,-1.3564,-1.3564,-1.3564,-1.3408,-1.3027,-1.2939,-1.2565,-1.1772,-1.1133,-1.0718,-1.0667,-0.948,-0.9361,-1.0568,-1.0012,-1.0012,-1.0618,-1.0012,-0.9762,-0.9814,-0.9658,-0.8928,-0.7723,-0.7616,-0.7182,-0.648,-0.648,-0.6091,-0.5433,-0.5433,-0.5054,-0.4519,-0.4519,-0.4519,-0.457,-0.5164,-0.5433,-0.5487,-0.992,-1.006,-1.012,-0.9826,-0.9532,-0.9392,-0.9559,-0.9339,-0.909,-0.909,-0.9731,-1.0105,-0.9844,-1.0517,-1.0965,-1.0813,-1.0167,-0.951,-0.8857,-0.8804,-0.8804,-0.8804,-0.8804,-0.8804,-0.8804,-0.8804,-0.8804,-0.8804,-0.8804,-0.9061,-0.9562,-0.971,-1.0064,-1.061,-1.1266,-1.1566,-1.1616,-1.2197,-1.2461,-1.2461,-1.2461,-1.2461,-1.2461,-1.2461,-1.2461,-1.2461,-1.2461,-1.252,-1.2666,-1.2666,-1.2774,-1.2881,-1.2881,-1.2881,-1.2881,-1.2881,-1.2881,-1.2881,-1.2881,-1.2881,-1.2881,-1.2881,-1.3125,-1.3281,-1.2959,-1.3135,-1.3398,-1.3486,-1.3769,-1.4131,-1.4561,-1.4365,-1.4248,-1.459,-1.4277,-1.398,-1.4068,-1.4,-1.3941,-1.3941,-1.3941,-1.3965,-1.3877,-1.3268,-1.2394,-1.1178,-1.0663,-1.0149,-0.9561,-0.9085,-0.8956,-0.9211,-0.9106,-0.9113,-0.9211,-0.9113,-0.9263,-0.9762,-0.8666,-0.7984,-0.767,-0.7128,-0.6421,-0.576,-0.576,-0.5328,-0.4732,-0.4732,-0.4625,-0.4519,-0.4519,-0.4519,-0.4515,-0.468,-0.4732,-0.4732,-0.9952,-0.99,-0.986,-0.9706,-0.9439,-0.9236,-0.9446,-0.9218,-0.914,-0.9449,-1.0121,-1.0465,-1.0285,-1.0864,-1.1015,-1.0364,-0.9718,-0.9159,-0.8804,-0.8804,-0.8804,-0.8804,-0.8804,-0.8804,-0.8804,-0.8804,-0.8956,-0.9256,-0.9256,-0.9614,-1.0261,-1.0618,-1.0965,-1.1316,-1.203,-1.2344,-1.2344,-1.2725,-1.2881,-1.2881,-1.2881,-1.2881,-1.2881,-1.2881,-1.2881,-1.2881,-1.2881,-1.2881,-1.2881,-1.2881,-1.2881,-1.2881,-1.2881,-1.2881,-1.2881,-1.2881,-1.2881,-1.2881,-1.2881,-1.2881,-1.293,-1.3135,-1.334,-1.3447,-1.3232,-1.3506,-1.3867,-1.4072,-1.4297,-1.458,-1.501,-1.4902,-1.4824,-1.5049,-1.4727,-1.4512,-1.4717,-1.457,-1.4443,-1.4443,-1.4443,-1.4192,-1.3603,-1.3141,-1.2474,-1.1343,-1.0796,-1.0324,-0.9939,-0.9466,-0.9158,-0.9018,-0.9011,-0.8777,-0.8268,-0.8262,-0.8318,-0.8413,-0.7931,-0.7337,-0.6627,-0.6253,-0.571,-0.5003,-0.5003,-0.4842,-0.4519,-0.4519,-0.4519,-0.4519,-0.4519,-0.4519,-0.4519,-0.4519,-0.4522,-0.4525,-1.0032,-0.989,-0.9758,-0.9596,-0.9332,-0.911,-0.911,-0.9065,-0.9159,-0.9718,-1.0364,-1.0813,-1.0813,-1.1216,-1.1015,-0.9917,-0.9211,-0.8804,-0.8804,-0.8804,-0.8804,-0.8804,-0.8804,-0.8804,-0.8804,-0.891,-0.9263,-0.9814,-0.9814,-1.0218,-1.0965,-1.1566,-1.1873,-1.2021,-1.2618,-1.2881,-1.2881,-1.2881,-1.2881,-1.2881,-1.2881,-1.2881,-1.2881,-1.2881,-1.2881,-1.2881,-1.2881,-1.2881,-1.2881,-1.2881,-1.2881,-1.2881,-1.2881,-1.2881,-1.2881,-1.2881,-1.2881,-1.2881,-1.2881,-1.293,-1.3066,-1.3418,-1.3613,-1.373,-1.373,-1.3994,-1.4346,-1.4707,-1.4844,-1.5,-1.5352,-1.541,-1.5439,-1.5508,-1.5225,-1.5127,-1.5469,-1.5225,-1.4971,-1.4902,-1.478,-1.4289,-1.3211,-1.2896,-1.2439,-1.1744,-1.102,-1.0595,-1.0595,-1.0047,-0.9573,-0.9269,-0.921,-0.8735,-0.7794,-0.7747,-0.7351,-0.6734,-0.7127,-0.6727,-0.558,-0.544,-0.5045,-0.4556,-0.4529,-0.4519,-0.4519,-0.4519,-0.4519,-0.4519,-0.4519,-0.4519,-0.4522,-0.4522,-0.4359,-0.4082,-0.9562,-0.9813,-0.9973,-0.9072,-0.8891,-0.8864,-0.8864,-0.9337,-0.971,-0.9762,-1.0364,-1.0813,-1.0813,-1.0364,-1.0012,-0.9814,-0.9211,-0.8804,-0.8804,-0.8804,-0.8804,-0.8804,-0.8804,-0.8804,-0.8804,-0.9361,-0.9718,-0.9814,-0.9814,-1.0415,-1.1665,-1.1765,-1.2138,-1.2774,-1.2881,-1.2881,-1.2881,-1.2881,-1.2881,-1.2881,-1.2881,-1.2881,-1.2881,-1.2881,-1.2881,-1.2881,-1.2881,-1.2881,-1.2881,-1.2881,-1.2881,-1.2881,-1.2881,-1.2881,-1.2881,-1.2881,-1.2881,-1.2881,-1.2881,-1.3145,-1.3437,-1.3496,-1.4062,-1.4609,-1.4609,-1.4658,-1.4717,-1.4775,-1.5078,-1.5342,-1.54,-1.541,-1.5537,-1.5918,-1.5988,-1.5908,-1.6027,-1.5988,-1.5752,-1.5371,-1.473,-1.4223,-1.406,-1.2783,-1.1875,-1.1813,-1.0788,-1.0174,-1.0174,-0.9879,-0.9666,-0.9626,-0.9372,-0.888,-0.8114,-0.7835,-0.7132,-0.594,-0.5852,-0.5828,-0.5914,-0.518,-0.4772,-0.4653,-0.4577,-0.4519,-0.4519,-0.4519,-0.4519,-0.4519,-0.4519,-0.4525,-0.4477,-0.4487,-0.3638,-0.251,-1.0532,-1.047,-1.0345,-0.9487,-0.9361,-0.9361,-0.9361,-0.9614,-1.0064,-1.0813,-1.1166,-1.1366,-1.1366,-1.0415,-0.9814,-0.9814,-0.9211,-0.8804,-0.8804,-0.8804,-0.8804,-0.8804,-0.8804,-0.8956,-0.9361,-0.9666,-1.0167,-1.0914,-1.0914,-1.1425,-1.2403,-1.2403,-1.2608,-1.2881,-1.2881,-1.2881,-1.2881,-1.2881,-1.2881,-1.2881,-1.2881,-1.2881,-1.2881,-1.2881,-1.2881,-1.2881,-1.2881,-1.2881,-1.2881,-1.2881,-1.2881,-1.2881,-1.2881,-1.2881,-1.2881,-1.2881,-1.2881,-1.2881,-1.2881,-1.3184,-1.3564,-1.3799,-1.4326,-1.4844,-1.5078,-1.5137,-1.5137,-1.5137,-1.5283,-1.541,-1.541,-1.541,-1.5557,-1.5986,-1.568,-1.5496,-1.6004,-1.5241,-1.4462,-1.407,-1.3848,-1.3523,-1.2948,-1.2197,-1.1586,-1.117,-1.0677,-1.0174,-0.9668,-0.9988,-0.9656,-0.8523,-0.8749,-0.8189,-0.6857,-0.6579,-0.6086,-0.5285,-0.521,-0.5251,-0.5393,-0.4935,-0.4691,-0.4687,-0.4619,-0.4545,-0.4473,-0.4473,-0.4477,-0.448,-0.448,-0.3971,-0.3297,-0.416,-0.4048,-0.3251]},{"header":{"parameterUnit":"m.s-1","parameterCategory":1,"la1":30.6,"la2":28.766,"lo1":-90.7593,"lo2":-88.6598,"dy":0.0162,"dx":0.0183,"nx":116,"ny":114,"refTime":"2023-06-28T12:00:00:Z","depth":0,"parameterNumber":3,"parameterNumberName":"V-component_of_WINDS"},"data":[0.0,0.0,0.0,0.0,0.0,0.0,0.0,0.0,0.0,0.0,0.0,0.0,0.0,0.0,0.0,0.0,0.0,0.0,0.0,0.0,0.0,0.0,0.0,0.0,0.0,0.0,0.0,0.0,0.0,0.0,0.0,0.0,0.0,0.0,0.0,0.0,0.0,0.0,0.0,0.0,0.0,0.0,0.0,0.0,0.0,0.0,0.0,0.0,0.0,0.0,0.0,0.0,0.0,0.0,0.0,0.0,0.0,0.0,0.0,0.0,0.0,0.0,0.0,0.0,0.0,0.0,0.0,0.0,0.0,0.0,0.0,0.0,0.0,0.0,0.0,0.0,0.0,0.0,0.0,0.0,0.0,0.0,0.0,0.0,0.0,0.0,0.0,0.0,0.0,0.0,0.0,0.0,0.0,0.0,0.0,0.0,0.0,0.0,0.0,0.0,0.0,0.0,0.0,0.0,0.0,0.0,0.0,0.0,0.0,0.0,0.0,0.0,0.0,0.0,0.0,0.0,0.0,0.0,0.0,0.0,0.0,0.0,0.0,0.0,0.0,0.0,0.0,0.0,0.0,0.0,0.0,0.0,0.0,0.0,0.0,0.0,0.0,0.0,0.0,0.0,0.0,0.0,0.0,0.0,0.0,0.0,0.0,0.0,0.0,0.0,0.0,0.0,0.0,0.0,0.0,0.0,0.0,0.0,0.0,0.0,0.0,0.0,0.0,0.0,0.0,0.0,0.0,0.0,0.0,0.0,0.0,0.0,0.0,0.0,0.0,0.0,0.0,0.0,0.0,0.0,0.0,0.0,0.0,0.0,0.0,0.0,0.0,0.0,0.0,0.0,0.0,0.0,0.0,0.0,0.0,0.0,0.0,0.0,0.0,0.0,0.0,0.0,0.0,0.0,0.0,0.0,0.0,0.0,0.0,0.0,0.0,0.0,0.0,0.0,0.0,0.0,0.0,0.0,0.0,0.0,0.0,0.0,0.0,0.0,0.0,0.0,0.0,0.0,0.0,0.0,0.0,0.0,0.0,0.0,0.0,0.0,0.0,0.0,0.0,0.0,0.0,0.0,0.0,0.0,0.0,0.0,0.0,0.0,0.0,0.0,0.0,0.0,0.0,0.0,0.0,0.0,0.0,0.0,0.0,0.0,0.0,0.0,0.0,0.0,0.0,0.0,0.0,0.0,0.0,0.0,0.0,0.0,0.0,0.0,0.0,0.0,0.0,0.0,0.0,0.0,0.0,0.0,0.0,0.0,0.0,0.0,0.0,0.0,0.0,0.0,0.0,0.0,0.0,0.0,0.0,0.0,0.0,0.0,0.0,0.0,0.0,0.0,0.0,0.0,0.0,0.0,0.0,0.0,0.0,0.0,0.0,0.0,0.0,0.0,0.0,0.0,0.0,0.0,0.0,0.0,0.0,0.0,0.0,0.0,0.0,0.0,0.0,0.0,0.0,0.0,0.0,0.0,0.0,0.0,0.0,0.0,0.0,0.0,0.0,0.0,0.0,0.0,0.0,0.0,0.0,0.0,0.0,0.0,0.0,0.0,0.0,0.0,0.0,0.0,0.0,0.0,0.0,0.0,0.0,0.0,0.0,0.0,0.0,0.0,0.0,0.0,0.0,0.0,0.0,0.0,0.0,0.0,0.0,0.0,0.0,0.0,0.0,0.0,0.0,0.0,0.0,0.0,0.0,0.0,0.0,0.0,0.0,0.0,0.0,0.0,0.0,0.0,0.0,0.0,0.0,0.0,0.0,0.0,0.0,0.0,0.0,0.0,0.0,0.0,0.0,0.0,0.0,0.0,0.0,0.0,0.0,0.0,0.0,0.0,0.0,0.0,0.0,0.0,0.0,0.0,0.0,0.0,0.0,0.0,0.0,0.0,0.0,0.0,0.0,0.0,0.0,0.0,0.0,0.0,0.0,0.0,0.0,0.0,0.0,0.0,0.0,0.0,0.0,0.0,0.0,0.0,0.0,0.0,0.0,0.0,0.0,0.0,0.0,0.0,0.0,0.0,0.0,0.0,0.0,0.0,0.0,0.0,0.0,0.0,0.0,0.0,0.0,0.0,0.0,0.0,0.0,0.0,0.0,0.0,0.0,0.0,0.0,0.0,0.0,0.0,0.0,0.0,0.0,0.0,0.0,0.0,0.0,0.0,0.0,0.0,0.0,0.0,0.0,0.0,0.0,0.0,0.0,0.0,0.0,0.0,0.0,0.0,0.0,0.0,0.0,0.0,0.0,0.0,0.0,0.0,0.0,0.0,0.0,0.0,0.0,0.0,0.0,0.0,0.0,0.0,0.0,0.0,0.0,0.0,0.0,0.0,0.0,0.0,0.0,0.0,0.0,0.0,0.0,0.0,0.0,0.0,0.0,0.0,0.0,0.0,0.0,0.0,0.0,0.0,0.0,0.0,0.0,0.0,0.0,0.0,0.0,0.0,0.0,0.0,0.0,0.0,0.0,0.0,0.0,0.0,0.0,0.0,0.0,0.0,0.0,0.0,0.0,0.0,0.0,0.0,0.0,0.0,0.0,0.0,0.0,0.0,0.0,0.0,0.0,0.0,0.0,0.0,0.0,0.0,0.0,0.0,0.0,0.0,0.0,0.0,0.0,0.0,0.0,0.0,0.0,0.0,0.0,0.0,0.0,0.0,0.0,0.0,0.0,0.0,0.0,0.0,0.0,0.0,0.0,0.0,0.0,0.0,0.0,0.0,0.0,0.0,0.0,0.0,0.0,0.0,0.0,0.0,0.0,0.0,0.0,0.0,0.0,0.0,0.0,0.0,0.0,0.0,0.0,0.0,0.0,0.0,0.0,0.0,0.0,0.0,0.0,0.0,0.0,0.0,0.0,0.0,0.0,0.0,0.0,0.0,0.0,0.0,0.0,0.0,0.0,0.0,0.0,0.0,0.0,0.0,0.0,0.0,0.0,0.0,0.0,0.0,0.0,0.0,0.0,0.0,0.0,0.0,0.0,0.0,0.0,0.0,0.0,0.0,0.0,0.0,0.0,0.0,0.0,0.0,0.0,0.0,0.0,0.0,0.0,0.0,0.0,0.0,0.0,0.0,0.0,0.0,0.0,0.0,0.0,0.0,0.0,0.0,0.0,0.0,0.0,0.0,0.0,0.0,0.0,0.0,0.0,0.0,0.0,0.0,0.0,0.0,0.0,0.0,0.0,0.0,0.0,0.0,0.0,0.0,0.0,0.0,0.0,0.0,0.0,0.0,0.0,0.0,0.0,0.0,0.0,0.0,0.0,0.0,0.0,0.0,0.0,0.0,0.0,0.0,0.0,0.0,0.0,0.0,0.0,0.0,0.0,0.0,0.0,0.0,0.0,0.0,0.0,0.0,0.0,0.0,0.0,0.0,0.0,0.0,0.0,0.0,0.0,0.0,0.0,0.0,0.0,0.0,0.0,0.0,0.0,0.0,0.0,0.0,0.0,0.0,0.0,0.0,0.0,0.0,0.0,0.0,0.0,0.0,0.0,0.0,0.0,0.0,0.0,0.0,0.0,0.0,0.0,0.0,0.0,0.0,0.0,0.0,0.0,0.0,0.0,0.0,0.0,0.0,0.0,0.0,0.0,0.0,0.0,0.0,0.0,0.0,0.0,0.0,0.0,0.0,0.0,0.0,0.0,0.0,0.0,0.0,0.0,0.0,0.0,0.0,0.0,0.0,0.0,0.0,0.0,0.0,0.0,0.0,0.0,0.0,0.0,0.0,0.0,0.0,0.0,0.0,0.0,0.0,0.0,0.0,0.0,0.0,0.0,0.0,0.0,0.0,0.0,0.0,0.0,0.0,0.0,0.0,0.0,0.0,0.0,0.0,0.0,0.0,0.0,0.0,0.0,0.0,0.0,0.0,0.0,0.0,0.0,0.0,0.0,0.0,0.0,0.0,0.0,0.0,0.0,0.0,0.0,0.0,0.0,0.0,0.0,0.0,0.0,0.0,0.0,0.0,0.0,0.0,0.0,0.0,0.0,0.0,0.0,0.0,0.0,0.0,0.0,0.0,0.0,0.0,0.0,0.0,0.0,0.0,0.0,0.0,0.0,0.0,0.0,0.0,0.0,0.0,0.0,0.0,0.0,0.0,0.0,0.0,0.0,0.0,0.0,0.0,0.0,0.0,0.0,0.0,0.0,0.0,0.0,0.0,0.0,0.0,0.0,0.0,0.0,0.0,0.0,0.0,0.0,0.0,0.0,0.0,0.0,0.0,0.0,0.0,0.0,0.0,0.0,0.0,0.0,0.0,0.0,0.0,0.0,0.0,0.0,0.0,0.0,0.0,0.0,0.0,0.0,0.0,0.0,0.0,0.0,0.0,0.0,0.0,0.0,0.0,0.0,0.0,0.0,0.0,0.0,0.0,0.0,0.0,0.0,0.0,0.0,0.0,0.0,0.0,0.0,0.0,0.0,0.0,0.0,0.0,0.0,0.0,0.0,0.0,0.0,0.0,0.0,0.0,0.0,0.0,0.0,0.0,0.0,0.0,0.0,0.0,0.0,0.0,0.0,0.0,0.0,0.0,0.0,0.0,0.0,0.0,0.0,0.0,0.0,0.0,0.0,0.0,0.0,0.0,0.0,0.0,0.0,0.0,0.0,0.0,0.0,0.0,0.0,0.0,0.0,0.0,0.0,0.0,0.0,0.0,0.0,0.0,0.0,0.0,0.0,0.0,0.0,0.0,0.0,0.0,0.0,0.0,0.0,0.0,0.0,0.0,0.0,0.0,0.0,0.0,0.0,0.0,0.0,0.0,0.0,0.0,0.0,0.0,0.0,0.0,0.0,0.0,0.0,0.0,0.0,0.0,0.0,0.0,0.0,0.0,0.0,0.0,0.0,0.0,0.0,0.0,0.0,0.0,0.0,0.0,0.0,0.0,0.0,0.0,0.0,0.0,0.0,0.0,0.0,0.0,0.0,0.0,0.0,0.0,0.0,0.0,0.0,0.0,0.0,0.0,0.0,0.0,0.0,0.0,0.0,0.0,0.0,0.0,0.0,0.0,0.0,0.0,0.0,0.0,0.0,0.0,0.0,0.0,0.0,0.0,0.0,0.0,0.0,0.0,0.0,0.0,0.0,0.0,0.0,0.0,0.0,0.0,0.0,0.0,0.0,0.0,0.0,0.0,0.0,0.0,0.0,0.0,0.0,0.0,0.0,0.0,0.0,0.0,0.0,0.0,0.0,0.0,0.0,0.0,0.0,0.0,0.0,0.0,0.0,0.0,0.0,0.0,0.0,0.0,0.0,0.0,0.0,0.0,0.0,0.0,0.0,0.0,0.0,0.0,0.0,0.0,0.0,0.0,0.0,0.0,0.0,0.0,0.0,0.0,0.0,0.0,0.0,0.0,0.0,0.0,0.0,0.0,0.0,0.0,0.0,0.0,0.0,0.0,0.0,0.0,0.0,0.0,0.0,0.0,0.0,0.0,0.0,0.0,0.0,0.0,0.0,0.0,0.0,0.0,0.0,0.0,0.0,0.0,0.0,0.0,0.0,0.0,0.0,0.0,0.0,0.0,0.0,0.0,0.0,0.0,0.0,0.0,0.0,0.0,0.0,0.0,0.0,0.0,0.0,0.0,0.0,0.0,0.0,0.0,0.0,0.0,0.0,0.0,0.0,0.0,0.0,0.0,0.0,0.0,0.0,0.0,0.0,0.0,0.0,0.0,0.0,0.0,0.0,0.0,0.0,0.0,0.0,0.0,0.0,0.0,0.0,0.0,0.0,0.0,0.0,0.0,0.0,0.0,0.0,0.0,0.0,0.0,0.0,0.0,0.0,0.0,0.0,0.0,0.0,0.0,0.0,0.0,0.0,0.0,0.0,0.0,0.0,0.0,0.0,0.0,0.0,0.0,0.0,0.0,0.0,0.0,0.0,0.0,0.0,0.0,0.0,0.0,0.0,0.0,0.0,0.0,0.0,0.0,0.0,0.0,0.0,0.0,0.0,0.0,0.0,0.0,0.0,0.0,0.0,0.0,0.0,0.0,0.0,0.0,0.0,0.0,0.0,0.0,0.0,0.0,0.0,0.0,0.0,0.0,0.0,0.0,0.0,0.0,0.0,0.0,0.0,0.0,0.0,0.0,0.0,0.0,0.0,0.0,-1.6698,-1.6923,0.0,0.0,0.0,0.0,0.0,0.0,0.0,0.0,0.0,0.0,0.0,0.0,0.0,0.0,0.0,0.0,0.0,0.0,0.0,0.0,0.0,0.0,0.0,0.0,0.0,0.0,0.0,0.0,0.0,0.0,0.0,0.0,0.0,0.0,0.0,0.0,0.0,0.0,0.0,0.0,0.0,0.0,0.0,0.0,0.0,0.0,0.0,0.0,0.0,0.0,0.0,0.0,0.0,0.0,0.0,0.0,0.0,0.0,0.0,0.0,0.0,0.0,0.0,0.0,0.0,0.0,0.0,0.0,0.0,0.0,0.0,0.0,0.0,0.0,0.0,0.0,0.0,0.0,0.0,0.0,0.0,0.0,0.0,0.0,0.0,0.0,0.0,0.0,0.0,0.0,0.0,0.0,0.0,0.0,0.0,0.0,0.0,0.0,0.0,0.0,0.0,0.0,0.0,0.0,0.0,0.0,0.0,0.0,0.0,0.0,0.0,0.0,0.0,0.0,-1.7961,-1.7499,0.0,0.0,0.0,0.0,0.0,0.0,0.0,0.0,0.0,0.0,0.0,0.0,0.0,0.0,0.0,0.0,0.0,0.0,0.0,0.0,0.0,0.0,0.0,0.0,0.0,0.0,0.0,0.0,0.0,0.0,0.0,0.0,0.0,0.0,0.0,0.0,0.0,0.0,0.0,0.0,0.0,0.0,0.0,0.0,0.0,0.0,0.0,0.0,0.0,0.0,0.0,0.0,0.0,0.0,0.0,0.0,0.0,0.0,0.0,0.0,0.0,0.0,0.0,0.0,0.0,0.0,0.0,0.0,0.0,0.0,0.0,0.0,0.0,0.0,0.0,0.0,0.0,0.0,0.0,0.0,0.0,0.0,0.0,0.0,0.0,0.0,0.0,0.0,0.0,0.0,0.0,0.0,0.0,0.0,0.0,0.0,0.0,0.0,0.0,0.0,0.0,0.0,0.0,0.0,0.0,0.0,0.0,0.0,-2.1778,-2.1504,-2.0748,-2.0686,-2.0334,-1.9805,-1.961,-1.8624,-1.7254,-1.8361,0.0,0.0,0.0,0.0,0.0,0.0,0.0,0.0,0.0,0.0,0.0,0.0,0.0,0.0,0.0,0.0,0.0,0.0,0.0,0.0,0.0,0.0,0.0,0.0,0.0,0.0,0.0,0.0,0.0,0.0,0.0,0.0,0.0,0.0,0.0,0.0,0.0,0.0,0.0,0.0,0.0,0.0,0.0,0.0,0.0,0.0,0.0,0.0,0.0,0.0,0.0,0.0,0.0,0.0,0.0,0.0,0.0,0.0,0.0,0.0,0.0,0.0,0.0,0.0,0.0,0.0,0.0,0.0,0.0,0.0,0.0,0.0,0.0,0.0,0.0,0.0,0.0,0.0,0.0,0.0,0.0,0.0,0.0,0.0,0.0,0.0,-2.1331,-2.1339,0.0,0.0,0.0,0.0,0.0,0.0,0.0,0.0,0.0,0.0,0.0,0.0,0.0,-2.369,-2.3286,-2.3353,-2.2763,-2.1569,-2.1345,-2.0689,-1.9707,-1.941,-1.9219,-1.9154,-1.9679,0.0,-1.8995,-1.8639,0.0,0.0,0.0,0.0,0.0,0.0,0.0,0.0,0.0,0.0,0.0,0.0,0.0,0.0,0.0,0.0,0.0,0.0,0.0,0.0,0.0,0.0,0.0,0.0,0.0,0.0,0.0,0.0,0.0,0.0,0.0,0.0,0.0,0.0,0.0,0.0,0.0,0.0,0.0,0.0,0.0,0.0,0.0,0.0,-2.6894,-2.6016,0.0,0.0,0.0,0.0,0.0,0.0,0.0,0.0,0.0,0.0,0.0,0.0,0.0,0.0,0.0,0.0,0.0,0.0,0.0,0.0,0.0,0.0,0.0,0.0,0.0,0.0,0.0,0.0,0.0,0.0,0.0,0.0,0.0,0.0,0.0,0.0,0.0,0.0,0.0,-2.3056,-2.2947,-2.2049,-2.3353,-2.4288,0.0,0.0,0.0,0.0,0.0,0.0,0.0,0.0,0.0,-2.3694,-2.4025,-2.4132,-2.3996,-2.4433,-2.4136,-2.313,-2.3431,-2.3123,-2.2295,-2.2161,-2.2102,-2.2119,-2.2391,-2.2292,-2.1827,-2.0416,-1.9672,-1.9386,0.0,0.0,0.0,0.0,-1.7786,-1.7299,0.0,0.0,0.0,0.0,0.0,0.0,0.0,0.0,0.0,0.0,0.0,0.0,0.0,0.0,0.0,-2.1735,0.0,0.0,0.0,0.0,0.0,0.0,0.0,0.0,0.0,0.0,0.0,0.0,0.0,0.0,0.0,0.0,0.0,0.0,0.0,0.0,0.0,0.0,-2.6147,0.0,0.0,0.0,0.0,0.0,0.0,0.0,0.0,0.0,0.0,0.0,0.0,0.0,0.0,0.0,0.0,0.0,0.0,0.0,0.0,0.0,0.0,0.0,0.0,0.0,0.0,0.0,0.0,0.0,0.0,0.0,0.0,0.0,0.0,0.0,0.0,0.0,0.0,-2.3511,-2.361,-2.238,-2.3739,-2.4712,0.0,0.0,0.0,0.0,0.0,0.0,-2.3399,-2.434,-2.4763,-2.452,-2.4905,-2.5126,-2.5126,-2.5695,-2.5655,-2.4925,-2.5305,-2.515,-2.4506,-2.4506,-2.4506,-2.4506,-2.4506,-2.432,-2.3917,-2.2248,-2.0972,-2.011,-2.0339,-2.0187,-1.9823,-1.9566,-1.893,-1.83,0.0,0.0,0.0,0.0,0.0,0.0,0.0,0.0,0.0,0.0,0.0,0.0,0.0,0.0,-2.0966,-2.2581,-2.2073,-2.1977,0.0,0.0,0.0,0.0,0.0,0.0,0.0,0.0,0.0,0.0,0.0,0.0,0.0,0.0,0.0,0.0,0.0,0.0,0.0,0.0,0.0,0.0,0.0,0.0,0.0,0.0,0.0,0.0,0.0,0.0,0.0,0.0,0.0,0.0,0.0,0.0,0.0,0.0,0.0,0.0,0.0,0.0,0.0,0.0,0.0,0.0,0.0,0.0,0.0,0.0,0.0,0.0,0.0,0.0,0.0,0.0,0.0,0.0,0.0,0.0,0.0,-2.1545,-2.3092,0.0,0.0,0.0,0.0,-2.4728,-2.5431,-2.5434,-2.4476,-2.591,-2.6321,-2.5366,-2.6814,-2.7622,-2.7622,-2.7658,-2.7344,-2.665,-2.5879,-2.515,-2.4506,-2.4506,-2.4506,-2.4506,-2.4506,-2.4475,-2.4397,-2.3403,-2.2575,-2.1885,-2.1011,-2.0521,-2.0135,-1.9144,-1.8732,-1.8578,0.0,0.0,0.0,0.0,0.0,0.0,0.0,0.0,0.0,0.0,0.0,0.0,0.0,-2.1735,-2.237,-2.3552,-2.3889,-2.397,-2.3754,0.0,0.0,0.0,0.0,0.0,0.0,0.0,0.0,0.0,0.0,0.0,0.0,0.0,0.0,0.0,0.0,0.0,0.0,0.0,0.0,0.0,0.0,0.0,0.0,0.0,0.0,0.0,0.0,0.0,0.0,0.0,0.0,0.0,0.0,0.0,0.0,0.0,0.0,0.0,0.0,0.0,0.0,0.0,0.0,0.0,0.0,0.0,0.0,0.0,0.0,0.0,0.0,0.0,0.0,0.0,0.0,0.0,0.0,0.0,0.0,-2.4707,-2.5832,0.0,-2.6442,-2.6181,-2.5972,-2.5837,-2.6059,-2.5996,-2.5552,-2.6893,-2.7773,-2.7972,-2.8872,-2.9586,-3.0099,-3.0118,-2.9904,-2.944,-2.882,-2.8268,-2.7751,-2.7521,-2.7419,-2.7419,-2.7419,-2.7419,-2.7265,-2.5782,-2.4211,-2.27,-2.1997,-2.15,-2.1145,-2.0783,-2.0632,-2.0602,0.0,0.0,0.0,0.0,0.0,0.0,0.0,0.0,0.0,0.0,0.0,-2.11,-2.11,-2.212,-2.3254,-2.4409,-2.4534,-2.4574,-2.4637,0.0,0.0,0.0,0.0,0.0,0.0,0.0,0.0,0.0,0.0,0.0,0.0,0.0,0.0,0.0,0.0,0.0,0.0,0.0,0.0,0.0,0.0,0.0,-2.666,0.0,0.0,0.0,0.0,0.0,0.0,0.0,0.0,0.0,0.0,0.0,0.0,0.0,0.0,0.0,0.0,0.0,0.0,0.0,0.0,0.0,0.0,0.0,0.0,0.0,0.0,0.0,0.0,0.0,0.0,0.0,0.0,0.0,0.0,0.0,-2.591,-2.6918,-2.7794,-2.8294,-2.8294,-2.8044,-2.7857,-2.7757,-2.7994,-2.8006,-2.7721,-2.8837,-2.9659,-3.0064,-3.0673,-3.1274,-3.1806,-3.1806,-3.1634,-3.1281,-3.0553,-2.998,-2.9589,-2.9193,-2.9011,-2.9011,-2.9011,-2.9011,-2.8887,-2.7492,-2.5841,-2.4037,-2.2879,-2.2137,-2.1695,-2.1695,-2.1695,-2.1665,0.0,0.0,0.0,0.0,0.0,0.0,0.0,0.0,0.0,0.0,-1.8792,-2.0369,-2.035,-2.185,-2.3524,-2.5149,-2.3832,-2.3647,-2.5381,-2.3207,0.0,0.0,0.0,0.0,0.0,0.0,0.0,0.0,0.0,0.0,0.0,0.0,0.0,0.0,0.0,0.0,0.0,0.0,0.0,0.0,0.0,0.0,-2.8965,0.0,0.0,0.0,0.0,0.0,0.0,0.0,0.0,0.0,0.0,0.0,0.0,0.0,0.0,0.0,0.0,0.0,0.0,0.0,0.0,0.0,0.0,0.0,0.0,0.0,0.0,0.0,0.0,0.0,0.0,0.0,0.0,0.0,-2.5015,-2.5998,-2.7005,-2.7909,-2.8717,-2.9217,-2.9217,-2.9987,-3.0475,-3.0475,-3.1244,-3.1489,-3.0977,-3.1751,-3.2004,-3.147,-3.221,-3.2651,-3.2651,-3.2651,-3.2474,-3.2123,-3.0856,-3.005,-2.9658,-2.9261,-2.9096,-2.9096,-2.9096,-2.9059,-2.9006,-2.8417,-2.745,-2.6094,-2.3707,-2.2379,-2.1754,-2.1754,-2.1754,-2.1665,0.0,0.0,0.0,0.0,0.0,0.0,0.0,0.0,0.0,0.0,-2.0071,-2.187,-2.1235,-2.3235,-2.4812,-2.5264,-2.3832,-2.3634,-2.5383,0.0,0.0,0.0,0.0,0.0,0.0,0.0,0.0,0.0,0.0,0.0,0.0,0.0,0.0,0.0,0.0,0.0,0.0,0.0,0.0,0.0,0.0,0.0,-2.9872,0.0,0.0,0.0,0.0,0.0,0.0,0.0,0.0,0.0,0.0,0.0,0.0,0.0,0.0,0.0,0.0,0.0,0.0,0.0,0.0,0.0,0.0,0.0,0.0,0.0,0.0,0.0,0.0,0.0,0.0,0.0,0.0,-2.6899,-2.7078,-2.7849,-2.8967,-3.0487,-3.1371,-3.1852,-3.1852,-3.2064,-3.2218,-3.2218,-3.2239,-3.2222,-3.2072,-3.252,-3.2709,-3.2548,-3.314,-3.3476,-3.3476,-3.3476,-3.3296,-3.2889,-3.221,-3.1649,-3.1201,-3.0776,-3.0581,-3.0581,-3.0581,-3.037,-2.9847,-2.8804,-2.7876,-2.7027,-2.5369,-2.4051,-2.3071,-2.3071,-2.3071,-2.2981,0.0,0.0,0.0,0.0,0.0,0.0,0.0,0.0,0.0,0.0,-1.9391,-2.165,-2.0049,-2.2487,-2.4255,-2.4255,-2.3398,-2.33,-2.4347,0.0,0.0,0.0,0.0,0.0,0.0,0.0,0.0,0.0,0.0,0.0,0.0,0.0,0.0,0.0,0.0,0.0,0.0,0.0,0.0,0.0,0.0,0.0,-3.3788,-3.0171,-2.9267,-2.9725,-2.8131,-2.8019,-2.8392,-2.7058,0.0,0.0,0.0,0.0,0.0,0.0,0.0,0.0,0.0,0.0,0.0,0.0,0.0,0.0,0.0,0.0,0.0,0.0,0.0,0.0,0.0,0.0,0.0,0.0,-2.8614,-2.9737,-3.0429,-3.0333,-3.0679,-3.2045,-3.2929,-3.343,-3.343,-3.4083,-3.4487,-3.4487,-3.4697,-3.4697,-3.4433,-3.4292,-3.4097,-3.3845,-3.4144,-3.4055,-3.355,-3.3897,-3.3676,-3.2921,-3.2433,-3.2057,-3.1789,-3.1372,-3.119,-3.119,-3.119,-3.1015,-3.0584,-2.9606,-2.8677,-2.7709,0.0,0.0,0.0,0.0,-2.3595,-2.3505,0.0,0.0,0.0,0.0,0.0,0.0,0.0,0.0,0.0,0.0,0.0,-2.0326,-1.7616,-2.0337,-2.2408,-2.2504,-2.2427,-2.2513,0.0,0.0,0.0,0.0,0.0,0.0,0.0,0.0,0.0,0.0,0.0,0.0,0.0,0.0,0.0,0.0,0.0,0.0,0.0,0.0,0.0,0.0,0.0,0.0,-3.8911,-3.4199,-3.3262,-3.4115,-3.1595,-3.0383,-2.9847,-2.8783,0.0,0.0,0.0,0.0,0.0,0.0,0.0,0.0,0.0,0.0,0.0,0.0,0.0,0.0,0.0,0.0,0.0,0.0,0.0,0.0,0.0,0.0,0.0,0.0,-3.1064,-3.2718,-3.4391,-3.343,-3.2795,-3.3391,-3.416,-3.4622,-3.4622,-3.5968,-3.6853,-3.6853,-3.7502,-3.7653,-3.7133,-3.6368,0.0,0.0,0.0,-3.4629,-3.3563,-3.4099,-3.3827,-3.2608,-3.2074,-3.1789,-3.1733,-3.1351,-3.119,-3.119,-3.119,-3.1112,-3.0975,-3.0435,-2.941,-2.7973,-2.5636,-2.4642,-2.4507,-2.3939,-2.367,-2.352,0.0,0.0,0.0,0.0,0.0,0.0,0.0,0.0,0.0,-1.3902,-1.7622,-1.927,-1.5943,-1.8071,-2.0031,-2.0716,-2.0139,-2.0635,0.0,0.0,0.0,0.0,0.0,0.0,0.0,0.0,0.0,0.0,0.0,0.0,0.0,0.0,0.0,0.0,0.0,0.0,0.0,0.0,0.0,0.0,0.0,0.0,-4.0008,-3.7661,-3.6142,-3.5007,-3.3103,-3.3237,-3.3968,-3.1802,-3.1907,-3.2566,-3.0396,0.0,0.0,0.0,0.0,0.0,0.0,0.0,0.0,0.0,0.0,0.0,0.0,0.0,0.0,0.0,0.0,0.0,0.0,0.0,0.0,-3.2833,-3.4083,-3.5353,-3.7026,-3.7584,-3.7623,-3.7084,-3.7161,-3.7276,-3.7276,-3.7565,-3.7757,-3.7757,-3.745,-3.7217,-3.7112,-3.6547,-3.615,-3.6046,-3.6046,-3.5944,-3.5721,-3.4848,-3.4096,-3.3454,-3.2354,0.0,-3.1329,-3.123,-3.119,-3.119,-3.119,-3.0658,-2.9717,-2.9629,-2.8541,-2.6866,-2.5813,-2.5091,-2.4567,-2.4433,-2.4073,-2.358,0.0,0.0,0.0,0.0,0.0,0.0,0.0,0.0,0.0,0.0,-1.7554,-1.9265,-1.6554,-1.8196,-1.9682,-2.0114,-1.9838,0.0,0.0,0.0,0.0,0.0,0.0,0.0,0.0,0.0,0.0,0.0,0.0,0.0,0.0,0.0,0.0,0.0,0.0,0.0,0.0,0.0,0.0,0.0,0.0,0.0,-4.2967,-4.0812,-3.9215,-3.793,-3.6617,-3.6194,-3.5982,-3.427,-3.407,-3.4144,-3.2052,-3.0562,-2.9336,0.0,0.0,0.0,0.0,0.0,0.0,0.0,0.0,0.0,0.0,0.0,0.0,0.0,0.0,-3.0217,0.0,0.0,-3.4193,-3.5834,-3.7546,-3.8796,-3.9181,-4.0008,-3.9912,-3.82,-3.8392,-3.8469,-3.8046,-3.8392,-3.8642,-3.8642,-3.8631,-3.8546,-3.8376,-3.7541,-3.7036,-3.6919,-3.6626,-3.6173,-3.5548,-3.508,-3.4233,-3.3006,-3.2342,-3.173,-3.119,-3.119,-3.119,-3.119,-3.119,-3.0699,-2.9805,-2.918,-2.8199,-2.7051,-2.6722,-2.5779,-2.4627,-2.5001,-2.4702,-2.4118,0.0,0.0,0.0,0.0,0.0,0.0,0.0,0.0,0.0,0.0,0.0,-1.9008,-1.6921,-1.8116,-1.9334,0.0,0.0,0.0,0.0,0.0,0.0,0.0,0.0,0.0,0.0,0.0,0.0,0.0,0.0,0.0,0.0,0.0,0.0,0.0,0.0,0.0,0.0,0.0,0.0,0.0,0.0,0.0,-4.5661,-4.3593,-4.2144,-4.1089,-4.0048,-3.8521,-3.6881,-3.6125,-3.5302,-3.4378,-3.3211,-3.2174,-3.1016,-2.9101,-2.8398,0.0,0.0,0.0,0.0,0.0,0.0,0.0,0.0,0.0,-3.0078,-3.1662,-3.2649,-3.3615,-3.4933,-3.6535,-3.7882,-3.8642,-4.0489,-4.1546,-4.0854,-4.1354,-4.0989,-3.8757,-3.9104,-3.9258,-3.8546,-3.9123,-3.9512,-3.9445,-3.9814,-3.9859,-3.9529,-3.8588,-3.7942,-3.7746,-3.7303,-3.6548,-3.5403,-3.5422,-3.457,-3.29,-3.249,-3.1968,-3.1393,-3.1258,-3.119,-3.119,-3.0958,-3.0601,-3.0043,-2.8826,-2.8118,-2.7754,-2.7619,-2.6512,-2.5076,-2.5615,-2.539,-2.4776,0.0,0.0,0.0,0.0,0.0,0.0,0.0,0.0,0.0,0.0,0.0,0.0,0.0,0.0,0.0,0.0,0.0,0.0,0.0,0.0,0.0,0.0,0.0,0.0,0.0,0.0,0.0,0.0,0.0,0.0,0.0,0.0,0.0,0.0,0.0,0.0,0.0,0.0,0.0,0.0,0.0,0.0,-4.5871,-4.5712,-4.4573,-4.2888,-4.1238,-3.9069,-3.6993,-3.689,-3.585,-3.4691,-3.5277,-3.4392,-3.2637,-3.0176,0.0,-2.8086,-2.7109,-2.6972,-2.7641,-2.9804,-2.9898,-3.0604,0.0,0.0,-3.5311,-3.6344,-3.7109,-3.7669,-3.7919,-3.9235,-4.0554,-4.1412,-4.17,-4.1777,-4.1681,-4.1739,-4.1412,-4.0354,-4.0296,-4.0315,-4.0219,-4.0296,-4.0255,-4.0024,-3.9802,-3.9529,-3.916,-3.882,-3.8591,-3.8579,-3.8499,-3.8168,-3.7554,-3.6452,-3.5601,-3.4915,-3.3168,-3.2239,-3.2138,-3.1495,-3.119,-3.1151,-3.0081,-2.9575,-2.951,-2.8236,-2.8021,-2.8427,-2.7814,-2.7081,-2.6378,-2.6452,-2.6063,-2.5495,0.0,0.0,0.0,0.0,0.0,0.0,0.0,0.0,0.0,0.0,0.0,0.0,0.0,0.0,0.0,0.0,0.0,0.0,0.0,0.0,0.0,0.0,0.0,0.0,0.0,0.0,0.0,0.0,0.0,0.0,0.0,0.0,0.0,0.0,0.0,0.0,0.0,0.0,0.0,0.0,0.0,0.0,-4.6027,-4.5075,-4.3307,-4.1261,-4.0448,-3.8551,0.0,0.0,-3.4749,-3.4542,-3.3933,-3.3262,-3.2187,-2.9609,-2.9297,0.0,-2.9318,-2.9617,-3.0272,0.0,-3.2838,-3.4648,-3.6816,-3.7383,-3.7871,-3.9277,-4.0137,-4.0776,-4.1234,-4.2183,-4.2852,0.0,-4.2989,-4.2912,-4.195,-4.1797,-4.1296,-3.995,-3.9663,-3.9749,-4.0229,-4.0269,-4.0139,-3.9819,-3.9505,-3.9444,-3.9788,-3.9102,-3.8909,-3.9386,-3.862,-3.7998,-3.7506,-3.6647,-3.5769,-3.4839,-3.3549,-3.2713,-3.2256,-3.1529,-3.1015,-3.0617,-2.9406,-2.8904,-2.8865,-2.7966,-2.779,-2.7979,-2.7679,-2.7445,-2.7156,-2.7156,-2.6752,-2.6183,0.0,0.0,0.0,0.0,0.0,0.0,0.0,0.0,0.0,0.0,0.0,0.0,0.0,0.0,0.0,0.0,0.0,0.0,0.0,0.0,0.0,0.0,0.0,0.0,0.0,0.0,0.0,0.0,0.0,0.0,0.0,0.0,0.0,0.0,0.0,0.0,0.0,0.0,0.0,0.0,0.0,0.0,-4.5046,-4.3322,-4.1061,-3.8802,-3.8707,-3.6758,0.0,0.0,-3.2752,-3.279,-3.2046,-3.1801,-3.1361,-2.923,-2.9327,-3.0174,-3.0335,0.0,0.0,-3.3261,-3.5745,-3.8161,-3.8863,-3.9673,-4.0709,-4.2192,-4.2751,-4.3134,-4.366,-4.3791,-4.3662,-4.3217,-4.3201,-4.2912,-4.195,-4.1412,-4.0627,-3.9349,-3.8814,-3.8709,-3.9119,-3.9447,-3.9572,-3.9486,-3.9436,-3.964,-4.0158,-3.9448,-3.9294,-3.9863,-3.8601,-3.7685,-3.721,-3.6684,-3.5864,-3.4793,-3.4066,-3.3322,-3.256,-3.1436,-3.0518,-2.9761,-2.8873,-2.8539,-2.8465,-2.7836,-2.7679,-2.7844,-2.7685,-2.7625,-2.7625,-2.7625,-2.726,-2.6856,0.0,0.0,0.0,0.0,0.0,0.0,0.0,0.0,0.0,0.0,0.0,0.0,0.0,0.0,0.0,0.0,0.0,0.0,0.0,0.0,0.0,0.0,0.0,0.0,0.0,0.0,0.0,0.0,0.0,0.0,0.0,0.0,0.0,0.0,0.0,0.0,0.0,0.0,0.0,0.0,0.0,0.0,-4.2344,-4.0644,-3.8398,-3.6112,-3.6113,0.0,0.0,0.0,-2.9827,-2.8676,-3.0337,-3.08,0.0,-2.9638,-2.8807,-2.8359,0.0,0.0,-3.2881,-3.6145,-3.8294,-4.0298,-4.284,-4.3976,-4.4751,-4.5596,-4.5157,-4.4637,-4.4658,-4.323,-4.2325,-4.306,-4.1736,-4.0893,-4.17,-4.0392,-3.9253,-3.8935,-3.8154,-3.7413,0.0,-3.7803,-3.8639,-3.9077,-3.9844,-4.0177,-3.9913,-3.9863,-3.9863,-3.99,-3.8601,-3.7685,-3.721,-3.6684,-3.6122,-3.5571,-3.4827,-3.4083,-3.328,-3.1266,-2.9673,-2.8559,-2.8511,-2.8522,-2.8569,-2.7895,-2.7964,-2.8502,-2.7829,-2.7625,-2.7625,-2.7625,-2.761,-2.7595,0.0,0.0,0.0,0.0,0.0,0.0,0.0,0.0,0.0,0.0,0.0,0.0,0.0,0.0,0.0,0.0,0.0,0.0,0.0,0.0,0.0,0.0,0.0,0.0,0.0,0.0,0.0,0.0,0.0,0.0,0.0,0.0,0.0,0.0,0.0,0.0,0.0,0.0,0.0,0.0,0.0,0.0,-4.1035,-3.7624,-3.5048,-3.3054,0.0,0.0,0.0,0.0,-2.7336,-2.7278,-2.7276,-2.7661,0.0,-2.9149,-2.9573,-3.0199,-3.2203,0.0,-3.7559,-3.9315,-4.1506,-4.358,-4.4951,-4.5452,-4.5346,-4.4421,-4.3531,-4.2563,-4.1393,-4.0654,-4.0292,-4.0562,-4.0837,-4.1014,-4.0954,-4.1017,-4.0342,-3.8288,-3.8369,0.0,0.0,0.0,0.0,-3.7987,-3.8789,-3.9657,-4.0634,-4.0708,-4.0946,-4.1479,-3.9688,-3.8456,-3.8008,-3.6946,-3.6139,-3.5605,-3.4844,-3.3657,-3.2031,-3.0936,-2.9747,-2.8463,-2.8091,-2.7896,-2.7904,-2.7715,-2.7709,-2.7889,-2.7715,-2.7625,-2.7625,-2.7625,-2.7625,-2.7625,0.0,0.0,0.0,0.0,0.0,0.0,0.0,0.0,0.0,0.0,0.0,0.0,0.0,0.0,0.0,0.0,0.0,0.0,0.0,0.0,0.0,0.0,0.0,0.0,0.0,0.0,0.0,0.0,0.0,0.0,0.0,0.0,0.0,0.0,0.0,0.0,0.0,0.0,0.0,0.0,0.0,0.0,-3.6499,-3.3731,-3.178,0.0,0.0,0.0,0.0,0.0,-2.5884,-2.619,-2.5639,-2.6265,-2.7468,-2.8879,-3.0292,-3.2058,-3.4962,-3.8087,-4.0804,-4.2011,-4.4031,-4.576,-4.5951,-4.5719,-4.4949,-4.3192,-4.1632,-4.01,-3.8612,-3.7314,-3.6842,-3.795,-3.8419,-3.9013,-4.0041,-4.0304,-3.994,-3.871,-3.8627,-3.8329,0.0,0.0,0.0,-3.7911,-3.9203,-4.0322,-4.1075,-4.1387,-4.1644,-4.1864,-3.9895,-3.8579,-3.799,-3.6741,-3.5941,-3.5605,-3.4844,-3.3705,-3.2149,-3.125,-3.0098,-2.8852,-2.8183,-2.781,-2.7625,-2.7625,-2.7625,-2.7625,-2.7625,-2.7625,-2.7625,-2.7625,-2.7625,-2.7625,0.0,0.0,0.0,0.0,0.0,0.0,0.0,0.0,0.0,0.0,0.0,0.0,0.0,0.0,0.0,0.0,0.0,0.0,0.0,0.0,0.0,0.0,0.0,0.0,0.0,0.0,0.0,0.0,0.0,0.0,0.0,0.0,0.0,0.0,0.0,0.0,0.0,0.0,0.0,0.0,0.0,0.0,-2.9377,-2.9242,0.0,0.0,0.0,0.0,0.0,0.0,0.0,0.0,-2.5563,-2.6717,-2.8198,-2.914,-3.1256,-3.4026,-3.7353,-4.0256,-4.2703,-4.4311,-4.5873,-4.6797,-4.5988,-4.4951,-4.3682,-4.1896,-3.9492,-3.7371,0.0,0.0,-3.2365,-3.5381,-3.4867,-3.5415,-3.9135,-3.8567,-3.8391,0.0,0.0,0.0,0.0,0.0,0.0,-3.8836,-4.0946,-4.1919,-4.1203,-4.1919,-4.1992,-4.1203,-3.9444,-3.8132,-3.7314,-3.6208,-3.5656,-3.5605,-3.4895,-3.4208,-3.3499,-3.2116,-3.0755,-2.9508,-2.8821,-2.8171,-2.7625,-2.7625,-2.7625,-2.7625,-2.7625,-2.7625,-2.7625,-2.7625,-2.7625,-2.7625,0.0,0.0,0.0,0.0,0.0,0.0,0.0,0.0,0.0,0.0,0.0,0.0,0.0,0.0,0.0,0.0,0.0,0.0,0.0,0.0,0.0,0.0,0.0,0.0,0.0,0.0,0.0,0.0,0.0,0.0,0.0,0.0,0.0,0.0,0.0,0.0,0.0,0.0,0.0,0.0,0.0,0.0,-2.8959,0.0,0.0,0.0,0.0,0.0,0.0,0.0,0.0,0.0,0.0,-2.8909,-3.0314,-3.3064,-3.6103,-3.9061,-4.1254,-4.4225,-4.6819,-4.7347,-4.7313,-4.691,-4.6007,-4.4138,-4.1662,-3.8441,-3.5748,-3.3276,0.0,0.0,0.0,-3.3734,-3.5663,0.0,-4.0155,-4.083,0.0,-4.0375,0.0,-4.0749,-3.968,-4.0671,0.0,-4.0543,-4.1075,-4.1589,-4.1974,-4.2763,-4.2818,-4.2029,-4.0773,-3.9727,-3.8907,-3.7317,-3.6197,-3.5622,-3.5419,-3.4415,-3.2776,-3.2461,-3.1007,-2.879,-2.8617,-2.8192,-2.7625,-2.7625,-2.7625,-2.7625,-2.7625,-2.7625,-2.7625,-2.7625,-2.7625,-2.7625,0.0,0.0,0.0,0.0,0.0,0.0,0.0,0.0,0.0,0.0,0.0,0.0,0.0,0.0,0.0,0.0,0.0,0.0,0.0,0.0,0.0,0.0,0.0,0.0,0.0,0.0,0.0,0.0,0.0,0.0,0.0,0.0,0.0,0.0,0.0,0.0,0.0,0.0,0.0,0.0,0.0,0.0,0.0,0.0,0.0,0.0,0.0,0.0,0.0,0.0,0.0,-2.8563,-3.0237,-3.1872,-3.3757,-3.6796,0.0,-4.2104,-4.4237,-4.6758,-4.8624,-4.7971,-4.7432,-4.6431,-4.4025,-4.1726,-3.8991,-3.5028,-3.2413,0.0,-2.8228,-2.831,0.0,0.0,0.0,0.0,-3.9424,-4.0463,-4.1108,0.0,-4.2051,0.0,-4.1515,-4.2286,-4.2635,-4.2194,-4.2158,-4.2194,-4.2286,-4.3057,-4.313,-4.2323,-4.1258,-4.0081,-3.8834,-3.7479,-3.6552,-3.6129,-3.5774,-3.4834,-3.339,-3.3142,-3.1678,-2.9394,-2.9118,-2.848,-2.7625,-2.7625,-2.7625,-2.7625,-2.7625,-2.7625,-2.7625,-2.7625,-2.7625,-2.7625,0.0,0.0,0.0,0.0,0.0,0.0,0.0,0.0,0.0,0.0,0.0,0.0,0.0,0.0,0.0,0.0,0.0,0.0,0.0,0.0,0.0,0.0,0.0,0.0,0.0,0.0,0.0,0.0,0.0,0.0,0.0,0.0,0.0,0.0,0.0,0.0,0.0,0.0,0.0,0.0,0.0,0.0,0.0,0.0,0.0,0.0,0.0,0.0,0.0,0.0,-2.9886,-3.1064,-3.2987,-3.5257,-3.77,-4.0258,-4.2239,-4.4105,-4.6432,-4.8298,-4.9202,-4.7625,-4.699,-4.5624,-4.145,-3.8783,-3.6026,-3.1874,0.0,-2.7869,-2.6748,-2.6154,-2.6783,-2.9719,0.0,-3.3512,-3.8187,-3.9069,-4.0274,-4.3146,-4.2873,-4.2727,-4.3424,-4.3497,-4.3497,-4.3497,-4.3497,-4.3185,-4.2506,-4.3112,-4.3133,-4.228,-4.1157,-3.9765,-3.8058,-3.7398,-3.6975,-3.6772,-3.6096,-3.5304,-3.4411,-3.3806,-3.2386,-3.0406,-2.979,-2.8793,-2.7625,-2.7625,-2.7625,-2.7625,-2.7625,-2.7625,-2.7625,-2.7625,-2.7625,-2.7625,0.0,0.0,0.0,0.0,0.0,0.0,0.0,0.0,0.0,0.0,0.0,0.0,0.0,0.0,0.0,0.0,0.0,0.0,0.0,0.0,0.0,0.0,0.0,0.0,0.0,0.0,0.0,0.0,0.0,0.0,0.0,0.0,0.0,0.0,0.0,0.0,0.0,0.0,0.0,0.0,0.0,0.0,0.0,0.0,0.0,0.0,0.0,0.0,0.0,0.0,-3.1,-3.3006,-3.6122,-3.8373,-4.0335,-4.2893,-4.4874,-4.649,-4.7586,-4.9163,-5.0221,-4.9221,-4.7375,-4.4893,-4.1296,-3.7421,0.0,0.0,-2.7549,-2.5889,-2.4856,-2.5627,-2.7261,-2.9787,0.0,0.0,0.0,0.0,-4.068,0.0,-4.3369,-4.3332,-4.3479,-4.3497,0.0,-4.3497,-4.3497,-4.3424,-4.3296,-4.3406,-4.2996,-4.1907,-4.0595,-3.9531,-3.8802,-3.8667,-3.799,-3.6772,-3.6637,-3.5555,-3.3672,-3.3599,-3.2149,-2.9685,-2.9598,-2.8801,-2.7625,-2.7625,-2.7625,-2.7625,-2.7625,-2.7625,-2.7625,-2.7625,-2.7625,-2.7625,0.0,0.0,0.0,0.0,0.0,0.0,0.0,0.0,0.0,0.0,0.0,0.0,0.0,0.0,0.0,0.0,0.0,0.0,0.0,0.0,0.0,0.0,0.0,0.0,0.0,0.0,0.0,0.0,0.0,0.0,0.0,0.0,0.0,0.0,0.0,0.0,0.0,0.0,0.0,0.0,0.0,0.0,0.0,0.0,0.0,0.0,0.0,0.0,0.0,0.0,-3.0753,-3.3341,-3.7721,-4.084,-4.3216,-4.4863,-4.6262,-4.7449,-4.8292,-4.9584,-5.0375,-4.9048,-4.6817,-4.3682,-3.8969,0.0,0.0,0.0,-2.5796,-2.489,-2.432,0.0,0.0,0.0,0.0,0.0,0.0,0.0,0.0,0.0,0.0,-4.3497,0.0,-4.3497,-4.3497,-4.3497,-4.325,-4.3087,-4.3087,-4.279,-4.2208,-4.1358,-4.0694,-4.0092,-3.9563,-3.9174,-3.8447,-3.7364,-3.6975,-3.5666,-3.3551,-3.359,-3.2285,-3.0015,-2.9726,-2.922,-2.8562,-2.791,-2.7784,-2.8068,-2.776,-2.7784,-2.8068,-2.7709,-2.7799,-2.8053,0.0,0.0,0.0,0.0,0.0,0.0,0.0,0.0,0.0,0.0,0.0,0.0,0.0,0.0,0.0,0.0,0.0,0.0,0.0,0.0,0.0,0.0,0.0,0.0,0.0,0.0,0.0,-2.0312,0.0,0.0,0.0,0.0,0.0,0.0,0.0,0.0,0.0,0.0,0.0,0.0,0.0,0.0,0.0,0.0,0.0,0.0,0.0,0.0,0.0,0.0,-2.967,-3.2539,-3.6958,-4.0916,-4.4059,-4.4687,-4.605,-4.7544,-4.838,-4.9635,-5.0279,-4.8548,-4.6047,-4.2547,-3.6815,-3.3226,0.0,0.0,-2.4682,-2.4512,-2.4303,0.0,-2.5518,0.0,-2.7824,0.0,0.0,0.0,0.0,0.0,0.0,0.0,-4.3497,-4.3497,0.0,-4.3339,-4.2714,-4.2382,-4.248,-4.1937,-4.1402,-4.0903,-4.078,-4.0546,-4.0121,-3.9512,-3.8785,-3.7905,-3.7313,-3.5839,-3.3582,-3.3582,-3.2488,-3.0477,-2.9983,-2.9699,-2.9505,-2.8442,-2.8233,-2.8547,-2.8008,-2.8038,-2.8308,-2.7769,-2.7919,-2.8308,0.0,0.0,0.0,0.0,0.0,0.0,0.0,0.0,0.0,0.0,0.0,0.0,0.0,0.0,0.0,0.0,0.0,0.0,0.0,0.0,0.0,0.0,0.0,0.0,0.0,0.0,0.0,-2.0312,-2.0277,0.0,0.0,0.0,0.0,0.0,0.0,-1.9903,0.0,0.0,0.0,0.0,0.0,0.0,0.0,0.0,0.0,0.0,0.0,0.0,0.0,0.0,0.0,-3.0347,-3.2088,-3.6125,-4.0208,-4.0265,0.0,0.0,-4.7506,-4.9175,-5.0279,-4.8548,-4.5643,-4.1854,-3.668,0.0,0.0,-2.5704,-2.4864,-2.4716,-2.4512,-2.4534,-2.5022,0.0,0.0,-2.9567,0.0,0.0,0.0,0.0,0.0,0.0,-4.3497,-4.3497,-4.3286,-4.2826,-4.1707,-4.1296,-4.1853,-4.1313,-4.0949,-4.0903,-4.0417,-4.0171,-4.007,-4.0003,-3.9276,-3.7905,-3.7838,-3.6338,-3.3582,-3.3582,-3.2488,-3.0507,-3.0447,-3.0103,-2.9564,-2.9445,-2.9086,-2.8592,-2.8532,-2.8158,-2.7664,-2.764,-2.767,-2.77,0.0,0.0,0.0,0.0,0.0,0.0,0.0,0.0,0.0,0.0,0.0,0.0,0.0,0.0,0.0,0.0,0.0,0.0,0.0,0.0,0.0,0.0,0.0,0.0,0.0,0.0,0.0,-2.0312,-2.0312,0.0,0.0,0.0,0.0,0.0,0.0,-2.0041,-1.979,0.0,0.0,0.0,0.0,0.0,0.0,0.0,0.0,0.0,0.0,0.0,0.0,0.0,0.0,0.0,-2.7233,-3.0124,0.0,0.0,-4.0802,-4.3646,-4.5935,-4.8226,-4.9625,-4.8394,-4.5201,-4.1123,-3.6546,0.0,-2.8644,-2.5626,-2.4891,-2.4746,-2.4545,-2.441,-2.4487,0.0,0.0,0.0,0.0,0.0,0.0,0.0,-4.0836,0.0,0.0,0.0,-4.3124,-4.2244,-4.1402,-4.0874,-4.0767,-4.0546,-4.0417,-4.0417,-4.0204,-3.9868,-3.9428,-3.9868,-3.9343,-3.7905,-3.7905,-3.685,-3.4821,-3.3979,-3.2935,-3.1732,-3.0895,-3.0597,-3.0672,-2.9475,-2.928,-2.9624,-2.8442,-2.8308,-2.8682,-2.7925,-2.7844,-2.8128,0.0,0.0,0.0,0.0,0.0,0.0,0.0,0.0,0.0,0.0,0.0,0.0,0.0,0.0,0.0,0.0,0.0,0.0,0.0,0.0,0.0,0.0,0.0,0.0,0.0,0.0,0.0,0.0,0.0,-2.0312,0.0,0.0,-2.0312,-2.0304,0.0,0.0,0.0,0.0,0.0,0.0,0.0,0.0,0.0,0.0,0.0,0.0,0.0,0.0,0.0,0.0,0.0,0.0,0.0,0.0,0.0,0.0,-3.7727,-4.087,-4.3705,-4.6495,-4.8452,-4.7586,-4.4355,-4.0315,0.0,0.0,-2.833,-2.5627,-2.4968,-2.4814,-2.4623,-2.4409,-2.4266,0.0,0.0,-2.5603,-2.8572,0.0,0.0,0.0,0.0,-3.9978,-4.1988,-4.2504,-4.2408,-4.1578,-4.1013,-4.0497,-4.0121,-4.007,-4.007,-4.007,-4.007,-3.9834,-3.9326,-3.9817,-3.9343,-3.7905,-3.7905,-3.6997,-3.5333,-3.4163,-3.3235,-3.2516,-3.1324,-3.1091,-3.1347,-2.9819,-2.9579,-3.0073,-2.8487,-2.8338,-2.8876,-2.797,-2.7874,-2.8233,0.0,0.0,0.0,0.0,0.0,0.0,0.0,0.0,0.0,0.0,0.0,0.0,0.0,0.0,0.0,0.0,0.0,0.0,0.0,0.0,0.0,0.0,0.0,0.0,0.0,0.0,0.0,0.0,0.0,0.0,0.0,-2.0312,-2.0312,-2.0285,0.0,0.0,0.0,0.0,0.0,0.0,0.0,0.0,0.0,0.0,0.0,0.0,0.0,0.0,0.0,0.0,0.0,0.0,0.0,0.0,0.0,0.0,-3.374,-3.8904,-4.0586,-4.394,-4.6721,-4.5836,-4.3047,-3.9411,0.0,0.0,-2.8371,-2.5822,-2.5141,-2.4949,-2.4814,-2.4623,-2.4426,-2.4228,0.0,0.0,-2.8645,-3.0375,0.0,0.0,0.0,-3.7948,-3.894,-4.0204,-4.0903,-4.0903,-4.0417,-4.0138,-4.007,-4.007,-4.007,-4.007,-4.007,-4.007,-4.007,-4.007,-3.9343,-3.7905,-3.7905,-3.6729,-3.4592,-3.3887,-3.3235,-3.2547,-3.1781,-3.1467,-3.1422,-3.0776,-3.0133,-2.952,-2.8846,-2.8173,-2.764,-2.7625,-2.7625,-2.7625,0.0,0.0,0.0,0.0,0.0,0.0,0.0,0.0,0.0,0.0,0.0,0.0,0.0,0.0,0.0,0.0,0.0,0.0,0.0,0.0,0.0,0.0,0.0,0.0,0.0,0.0,0.0,0.0,0.0,0.0,0.0,0.0,0.0,-2.0304,-2.0233,0.0,0.0,0.0,0.0,0.0,0.0,0.0,0.0,0.0,0.0,0.0,0.0,0.0,0.0,0.0,0.0,0.0,0.0,0.0,0.0,0.0,0.0,0.0,-3.6159,-3.8395,-3.9873,-3.9585,-3.7392,-3.4661,-3.2179,-2.9429,-2.6946,-2.5409,-2.4968,-2.4814,-2.4623,-2.4426,-2.445,-2.4944,-2.5237,0.0,0.0,0.0,0.0,-3.5477,-3.8951,-4.118,0.0,-4.1137,-4.0903,-4.0903,-4.0417,-4.007,-4.007,-4.007,-4.007,-4.007,-4.007,-3.9834,-3.9343,-3.9834,-3.9343,-3.7905,-3.7905,-3.727,-3.6071,-3.438,-3.3479,-3.3219,-3.1546,-3.0836,-3.0746,-2.9654,-2.9355,-2.9475,-2.8338,-2.8053,-2.8218,-2.779,-2.7625,-2.7625,0.0,0.0,0.0,0.0,0.0,0.0,0.0,0.0,0.0,0.0,0.0,0.0,0.0,0.0,0.0,0.0,0.0,0.0,0.0,0.0,0.0,0.0,0.0,0.0,0.0,0.0,0.0,0.0,0.0,0.0,0.0,0.0,0.0,0.0,0.0,0.0,0.0,0.0,0.0,0.0,0.0,0.0,-2.0106,0.0,0.0,0.0,0.0,0.0,0.0,0.0,0.0,0.0,0.0,0.0,0.0,0.0,-2.5027,0.0,0.0,-3.4193,-3.5757,-3.5757,-3.4083,-3.2006,-3.0294,-2.8198,-2.629,-2.5218,-2.4891,-2.4746,-2.4545,-2.4339,-2.4355,-2.4869,-2.5201,0.0,0.0,0.0,0.0,-3.5501,0.0,0.0,-4.109,-4.0802,-4.0625,-4.0625,-4.0286,-4.007,-4.007,-4.007,-3.9952,-3.9681,-3.9935,-3.9868,-3.9411,-3.9851,-3.9343,-3.7905,-3.7905,-3.7347,-3.627,-3.4464,-3.3582,-3.3499,-3.1411,-3.0507,0.0,-2.9131,-2.8846,-2.9101,-2.7993,-2.7844,-2.8158,-2.7724,-2.7625,-2.7625,0.0,0.0,0.0,0.0,0.0,0.0,0.0,0.0,0.0,0.0,0.0,0.0,0.0,0.0,0.0,0.0,0.0,0.0,0.0,0.0,0.0,0.0,0.0,0.0,0.0,0.0,0.0,0.0,-2.0381,-2.0437,-2.0519,0.0,0.0,0.0,0.0,0.0,0.0,-2.0331,-2.0312,-2.0312,-2.0312,-2.0312,0.0,0.0,0.0,0.0,0.0,0.0,0.0,0.0,0.0,0.0,0.0,0.0,0.0,0.0,0.0,0.0,0.0,0.0,0.0,-3.3564,-3.2391,-3.0814,-2.9198,0.0,0.0,0.0,-2.4891,-2.4764,-2.462,-2.4358,-2.4263,-2.4428,-2.5071,0.0,0.0,-2.9067,0.0,0.0,-3.679,0.0,-3.8449,-3.9498,-4.007,-4.007,-4.007,-4.007,-4.007,-4.002,-3.9698,-3.9005,-3.953,-3.9918,-3.9918,-3.9918,-3.9225,-3.7821,-3.7821,-3.7013,-3.547,-3.4202,-3.3566,-3.3332,-3.1381,-3.0447,-3.0268,-2.9086,-2.8562,-2.8472,-2.7814,-2.7625,-2.7625,-2.7625,-2.7625,-2.7625,0.0,0.0,0.0,0.0,0.0,0.0,0.0,0.0,0.0,0.0,0.0,0.0,0.0,0.0,0.0,0.0,0.0,0.0,0.0,0.0,0.0,0.0,0.0,0.0,0.0,0.0,0.0,-2.0389,-2.1099,-2.1473,-2.1558,-2.2183,0.0,0.0,0.0,0.0,-2.04,-2.0332,-2.0312,-2.0312,-2.0312,-2.0312,0.0,0.0,0.0,0.0,-2.1109,-2.11,0.0,0.0,0.0,0.0,0.0,0.0,0.0,0.0,-2.1902,-2.3274,-2.4005,0.0,-2.739,-2.739,-2.7101,-2.6687,0.0,0.0,0.0,0.0,0.0,0.0,0.0,0.0,0.0,0.0,0.0,0.0,-2.9145,0.0,0.0,-3.8052,-3.9324,-3.968,-3.8737,-3.9529,-4.007,-4.007,-4.007,-4.007,-4.007,-3.9546,-3.9174,-3.9005,-3.807,-3.787,-3.8413,-3.8413,-3.7956,-3.7043,-3.7043,-3.6269,-3.4783,-3.3987,-3.3054,-3.1992,-3.094,-2.9953,-2.9026,-2.8727,-2.8293,-2.7799,-2.7634,-2.7625,-2.7625,-2.7625,-2.7625,-2.7625,0.0,0.0,0.0,0.0,0.0,0.0,0.0,0.0,0.0,0.0,0.0,0.0,0.0,0.0,0.0,0.0,0.0,0.0,0.0,0.0,0.0,0.0,0.0,0.0,0.0,0.0,0.0,0.0,0.0,-2.1418,0.0,0.0,0.0,0.0,0.0,0.0,-2.0441,-2.0362,-2.0334,-2.0312,-2.0312,0.0,0.0,0.0,0.0,0.0,-2.1081,-2.1196,0.0,-2.0581,-2.0312,-2.0312,0.0,0.0,0.0,0.0,-2.1773,-2.2889,-2.3302,-2.4332,-2.5303,-2.5303,-2.5303,-2.5303,0.0,0.0,0.0,0.0,0.0,0.0,0.0,0.0,0.0,0.0,-2.731,0.0,0.0,0.0,-3.6042,-3.8473,-3.9215,-3.9483,-3.9328,-3.981,-4.007,-4.007,-3.9766,-3.958,-3.958,-3.8886,-3.8345,-3.799,-3.7246,-3.6968,-3.7368,-3.7385,-3.7017,-3.6281,-3.6662,-3.6055,-3.4576,-3.3887,-3.2871,-3.1564,-3.0522,-2.952,-2.8577,-2.8263,-2.7904,-2.7625,-2.7625,-2.7625,-2.7625,-2.7625,-2.7625,-2.7625,0.0,0.0,0.0,0.0,0.0,0.0,0.0,0.0,0.0,0.0,0.0,0.0,0.0,0.0,0.0,0.0,0.0,0.0,0.0,0.0,0.0,0.0,0.0,0.0,0.0,0.0,0.0,0.0,0.0,0.0,0.0,0.0,0.0,0.0,0.0,0.0,-2.0508,-2.0441,-2.0376,-2.0331,-2.0312,0.0,0.0,0.0,0.0,0.0,0.0,0.0,0.0,-2.0581,-2.0308,-2.0311,-2.0319,0.0,0.0,0.0,0.0,0.0,-2.3725,-2.4697,-2.5486,-2.5341,-2.5303,-2.5303,0.0,0.0,0.0,0.0,0.0,0.0,0.0,0.0,0.0,0.0,0.0,0.0,-3.4238,-3.4566,-3.5381,-3.7963,-3.8236,-3.8633,-3.9648,-3.9952,-4.002,-3.9918,-3.9343,-3.8937,-3.8836,-3.8125,-3.7449,-3.6806,-3.6561,-3.6446,-3.6455,-3.6572,-3.6324,-3.5678,-3.632,-3.5827,-3.4431,-3.3836,-3.2756,-3.125,-3.0165,-2.9235,-2.8412,-2.7919,-2.7715,-2.7625,-2.7625,-2.7625,-2.7625,-2.7625,-2.7625,-2.7625,0.0,0.0,0.0,0.0,0.0,0.0,0.0,0.0,0.0,0.0,0.0,0.0,0.0,0.0,0.0,0.0,0.0,0.0,0.0,0.0,0.0,0.0,0.0,0.0,0.0,0.0,0.0,0.0,0.0,0.0,-2.3027,-2.4453,-2.4355,0.0,0.0,0.0,-2.0586,-2.0507,-2.0487,-2.0465,-2.035,0.0,0.0,0.0,0.0,0.0,0.0,0.0,0.0,-2.0592,-2.0341,-2.0381,-2.0383,0.0,0.0,0.0,0.0,0.0,-2.3129,-2.4831,-2.6381,-2.5505,-2.5303,-2.5303,0.0,0.0,0.0,0.0,0.0,0.0,0.0,0.0,-2.6154,0.0,0.0,-3.5151,0.0,0.0,-3.8526,-3.8624,-3.9316,-3.9343,-3.8345,-3.936,-3.9817,-3.9208,-3.9056,-3.8717,-3.8108,-3.7364,-3.6907,-3.6772,-3.5616,-3.4951,-3.4954,-3.5496,-3.5739,-3.5638,-3.5746,-3.5074,-3.3735,-3.3633,-3.2228,-2.9907,-3.0233,-2.937,-2.7769,-2.8248,-2.8098,-2.7625,-2.7625,-2.7625,-2.7625,-2.7625,-2.7625,-2.7625,0.0,0.0,0.0,0.0,0.0,0.0,0.0,0.0,0.0,0.0,0.0,0.0,0.0,0.0,0.0,0.0,0.0,0.0,0.0,0.0,0.0,0.0,0.0,0.0,0.0,0.0,0.0,0.0,0.0,-2.3358,-2.3867,-2.4648,-2.4355,-2.3164,0.0,0.0,-2.0605,-2.0527,-2.0498,-2.0496,0.0,0.0,0.0,0.0,0.0,0.0,0.0,0.0,0.0,0.0,-2.0352,-2.0357,-2.0422,0.0,0.0,0.0,0.0,0.0,-2.4103,-2.517,-2.5938,-2.5507,-2.5721,-2.6053,-2.6053,0.0,0.0,0.0,0.0,0.0,0.0,0.0,-2.878,-3.1765,0.0,-3.7058,-3.9115,-3.8706,-3.8435,-3.9017,-3.8963,-3.8802,-3.8514,-3.9106,-3.9191,-3.8464,-3.8024,-3.7652,-3.7313,-3.6569,-3.6146,-3.6146,-3.5484,-3.5144,-3.5144,-3.5065,-3.4818,-3.4468,-3.4868,-3.4133,-3.2462,-3.2507,-3.1232,-2.9071,-2.9355,-2.8742,-2.764,-2.7919,-2.7859,-2.7625,-2.7625,-2.7625,-2.7625,-2.7625,-2.7625,-2.7625,0.0,0.0,0.0,0.0,0.0,0.0,0.0,0.0,0.0,0.0,0.0,0.0,0.0,0.0,0.0,0.0,0.0,0.0,0.0,0.0,0.0,0.0,0.0,0.0,0.0,0.0,0.0,-2.1498,-2.2572,-2.3544,-2.4394,-2.4609,-2.4277,0.0,0.0,0.0,-2.0898,-2.0625,-2.0527,-2.0527,0.0,0.0,0.0,0.0,0.0,0.0,0.0,0.0,0.0,0.0,0.0,0.0,0.0,0.0,0.0,-2.2046,-2.2551,-2.2965,-2.4294,-2.5039,-2.5418,-2.5266,0.0,-2.6554,-2.7149,0.0,0.0,0.0,0.0,0.0,0.0,-2.9094,0.0,-3.4467,-3.6725,-3.8365,-3.9209,-3.8726,-3.8656,-3.9634,-3.8831,-3.8379,-3.8937,-3.8836,-3.8447,-3.7702,-3.711,-3.6705,-3.6518,-3.5943,-3.5622,-3.5622,-3.5453,-3.5351,-3.5351,-3.4607,-3.3979,-3.3521,-3.39,-3.3111,-3.1292,-3.1326,-3.0333,-2.8607,-2.8607,-2.8203,-2.7625,-2.7625,-2.7625,-2.7625,-2.7625,-2.752,-2.7365,-2.7565,-2.752,-2.7415,0.0,0.0,0.0,0.0,0.0,0.0,0.0,0.0,0.0,0.0,0.0,0.0,0.0,0.0,0.0,0.0,0.0,0.0,0.0,0.0,0.0,0.0,0.0,0.0,0.0,-2.1278,-2.1402,-2.0589,-2.2283,-2.3554,-2.4414,-2.5234,-2.5137,0.0,0.0,0.0,-2.1758,-2.0937,-2.0586,-2.0586,-2.0527,0.0,0.0,0.0,0.0,0.0,0.0,0.0,0.0,0.0,0.0,0.0,0.0,0.0,-2.0605,-2.0742,-2.1347,-2.1997,-2.213,-2.3832,-2.539,-2.4601,0.0,0.0,-2.8486,-2.8964,0.0,0.0,0.0,0.0,0.0,-3.0847,-3.2372,-3.4623,-3.7661,-4.0083,-4.1089,-4.1364,-4.1296,-4.0868,-3.9696,-3.8937,-3.8988,-3.8379,-3.7669,-3.6924,-3.6806,-3.6468,-3.574,-3.5656,-3.5622,-3.5622,-3.4945,-3.4573,-3.4573,-3.3846,-3.3537,-3.3598,-3.2941,-3.1963,-3.0663,-3.0674,-2.9925,-2.8607,-2.8607,-2.8203,-2.7625,-2.7625,-2.7625,-2.7625,-2.7625,-2.72,-2.6737,-2.735,-2.7235,-2.6752,0.0,0.0,0.0,0.0,0.0,0.0,0.0,0.0,0.0,0.0,0.0,0.0,0.0,0.0,0.0,0.0,0.0,0.0,0.0,0.0,0.0,0.0,0.0,-1.9584,-2.0504,-2.1355,-2.1668,-2.1363,-2.2535,-2.3555,-2.4414,-2.4746,0.0,0.0,0.0,0.0,-2.2656,-2.1777,-2.1406,-2.1406,-2.1387,-2.1348,0.0,0.0,0.0,0.0,0.0,0.0,0.0,0.0,-2.0527,-2.0549,0.0,0.0,-2.0703,-2.125,-2.1602,-2.2069,-2.316,-2.4103,-2.4851,-2.5072,0.0,0.0,0.0,0.0,0.0,0.0,0.0,0.0,0.0,0.0,-3.44,-3.6258,-3.8432,-4.0251,-4.1251,-4.0788,-4.0327,-4.0249,-3.9084,-3.8142,-3.7669,-3.7364,-3.6688,-3.5453,-3.5351,-3.503,-3.4286,-3.4235,-3.4235,-3.4235,-3.3964,-3.3829,-3.3829,-3.2696,-3.1996,-3.1683,-3.1816,-3.0975,-2.9286,-2.9348,-2.8822,-2.7964,-2.7964,-2.7814,-2.7595,-2.7126,-2.6961,-2.6916,-2.6512,-2.6452,-2.6617,-2.6871,-2.6797,-2.6632,0.0,0.0,0.0,0.0,0.0,0.0,0.0,0.0,0.0,0.0,0.0,0.0,0.0,0.0,0.0,0.0,0.0,0.0,0.0,0.0,0.0,0.0,0.0,-1.9896,-2.055,-2.1133,-2.1441,-2.1484,-2.2324,-2.3027,-2.3613,0.0,0.0,0.0,0.0,0.0,0.0,0.0,-2.1719,-2.1504,-2.1797,-2.1875,0.0,0.0,0.0,0.0,0.0,0.0,0.0,0.0,0.0,0.0,0.0,0.0,0.0,0.0,-2.1438,-2.1706,-2.3182,-2.3715,-2.4053,0.0,0.0,0.0,0.0,0.0,0.0,0.0,0.0,0.0,0.0,0.0,0.0,0.0,-3.8376,-3.9899,-4.0564,-3.985,-3.9315,-3.945,-3.8345,-3.7347,-3.6823,-3.6349,-3.5622,-3.4573,-3.4139,-3.3741,-3.344,-3.322,-3.3203,-3.3406,-3.3169,-3.3051,-3.3051,-3.1901,-3.0843,-2.9849,-3.0284,-2.9738,-2.8204,-2.8258,-2.8008,-2.7625,-2.7625,-2.7505,-2.723,-2.6782,-2.6467,-2.6243,-2.5779,-2.5749,-2.6019,-2.6437,-2.6452,-2.6303,0.0,0.0,0.0,0.0,0.0,0.0,0.0,0.0,0.0,0.0,0.0,0.0,0.0,0.0,0.0,0.0,0.0,0.0,0.0,0.0,0.0,0.0,0.0,-2.041,-2.05,-2.057,-2.0605,-2.0605,-2.1465,-2.1894,-2.1953,0.0,0.0,0.0,0.0,0.0,0.0,0.0,0.0,-2.0703,-2.1562,-2.1914,-2.2012,0.0,0.0,0.0,0.0,0.0,0.0,0.0,-2.0605,0.0,0.0,0.0,0.0,0.0,-2.0554,-2.0708,-2.1579,-2.2355,-2.3112,0.0,0.0,0.0,0.0,0.0,0.0,0.0,0.0,-3.6197,-3.5605,-3.4785,0.0,-3.4917,-3.7289,-3.9083,-3.9102,-3.8863,-3.866,-3.866,-3.7541,-3.6755,-3.6755,-3.5368,-3.4472,-3.4472,-3.3267,-3.2779,-3.3347,-3.2807,-3.2763,-3.3347,-3.2662,-3.2313,-3.2313,-3.1562,-3.0275,-2.8405,-2.8405,-2.8121,-2.761,-2.761,-2.756,-2.7625,-2.761,-2.7186,-2.6587,-2.6572,-2.6183,-2.56,-2.56,-2.5196,-2.4746,-2.6093,-2.6153,-2.5689,0.0,0.0,0.0,0.0,0.0,0.0,0.0,0.0,0.0,0.0,0.0,0.0,0.0,0.0,0.0,0.0,0.0,0.0,0.0,0.0,0.0,0.0,0.0,0.0,0.0,0.0,-2.0605,-2.0605,-2.0859,-2.1602,0.0,0.0,0.0,-2.5226,0.0,0.0,0.0,0.0,0.0,-2.2441,-2.2715,-2.3144,-2.375,0.0,0.0,0.0,0.0,0.0,0.0,0.0,0.0,0.0,0.0,0.0,0.0,-2.0781,-2.142,-2.2393,-2.2646,-2.3284,0.0,0.0,0.0,0.0,0.0,0.0,0.0,0.0,0.0,-3.6111,-3.631,-3.597,0.0,-3.5387,-3.6515,-3.7542,-3.791,-3.7027,-3.6343,-3.6478,-3.528,-3.4404,-3.4404,-3.3998,-3.3508,-3.2966,-3.2588,-3.221,-3.1867,-3.1672,-3.1672,-3.185,-3.163,-3.1512,-3.1512,-3.0898,-2.9847,-2.8394,-2.846,-2.7905,-2.6886,-2.6886,-2.7126,-2.7595,-2.7081,-2.6767,-2.6512,-2.56,-2.5091,-2.4821,-2.4388,-2.4373,-2.4627,-2.5076,-2.5091,-2.4956,0.0,0.0,0.0,0.0,0.0,0.0,0.0,0.0,0.0,0.0,0.0,0.0,0.0,0.0,0.0,0.0,0.0,0.0,0.0,0.0,0.0,0.0,0.0,0.0,0.0,-2.0605,-2.0605,0.0,0.0,0.0,0.0,0.0,0.0,-2.4593,0.0,0.0,0.0,0.0,0.0,-2.2207,-2.2539,-2.3164,-2.3984,0.0,0.0,0.0,0.0,0.0,0.0,0.0,0.0,0.0,0.0,0.0,0.0,-2.0859,-2.1543,-2.2652,-2.2974,0.0,0.0,0.0,0.0,0.0,0.0,0.0,0.0,0.0,0.0,-3.6892,-3.7403,-3.686,-3.6131,-3.5612,-3.6032,-3.6363,-3.6209,-3.5249,-3.4582,-3.4718,-3.3947,-3.3406,-3.3406,-3.2882,-3.2341,-3.1884,-3.1116,-3.069,-3.0768,-3.0538,-3.0656,-3.119,-3.092,-3.0903,-3.119,-3.0035,-2.8943,-2.8019,-2.7525,-2.6888,-2.6122,-2.6429,-2.6662,-2.6752,-2.6093,-2.595,-2.6031,-2.4747,-2.4223,-2.4178,-2.3759,-2.3849,-2.4253,-2.4477,-2.4582,-2.4582,0.0,0.0,0.0,0.0,0.0,0.0,0.0,0.0,0.0,0.0,0.0,0.0,0.0,0.0,0.0,0.0,0.0,0.0,0.0,0.0,0.0,0.0,0.0,0.0,0.0,0.0,0.0,0.0,0.0,0.0,0.0,0.0,-2.248,-2.332,0.0,-2.3127,0.0,0.0,0.0,-2.0781,-2.168,-2.2461,-2.3203,-2.4062,0.0,0.0,0.0,0.0,0.0,0.0,0.0,0.0,0.0,0.0,-2.1855,-2.0977,-2.1347,-2.2198,0.0,0.0,0.0,0.0,0.0,0.0,0.0,0.0,-3.8725,-3.984,0.0,-3.8003,-3.8412,-3.7246,-3.6072,-3.5612,-3.5703,-3.5449,-3.4289,-3.3584,-3.3237,-3.3288,-3.3119,-3.3034,-3.3102,-3.1833,-3.0987,-3.0987,-2.9265,-2.8721,-2.9935,-2.9459,-2.9759,-3.097,-3.0362,-3.0328,-3.0987,-2.9126,-2.7912,-2.7372,-2.6152,-2.5501,-2.5311,-2.6105,-2.6126,-2.5526,-2.4881,-2.4879,-2.5219,-2.4051,-2.3595,-2.3595,-2.3595,-2.3595,-2.367,-2.4253,-2.4537,-2.4567,0.0,0.0,0.0,0.0,0.0,0.0,0.0,0.0,0.0,0.0,0.0,0.0,0.0,0.0,0.0,0.0,0.0,0.0,0.0,0.0,0.0,0.0,0.0,0.0,0.0,0.0,0.0,0.0,0.0,0.0,0.0,0.0,0.0,-2.5,0.0,-2.3116,0.0,0.0,0.0,-2.1699,-2.2578,-2.3027,-2.3262,-2.4082,-2.3984,0.0,0.0,0.0,0.0,0.0,0.0,0.0,-2.0605,-2.168,-2.2754,-2.1875,-2.2675,-2.3877,0.0,-2.3972,0.0,0.0,0.0,0.0,0.0,-3.4908,-3.5331,-3.4722,-3.5863,-3.6954,-3.6849,-3.6231,-3.558,-3.5062,-3.4761,-3.4376,-3.3656,-3.249,-3.1884,-3.2459,-3.0987,-3.0159,-3.0751,-2.9989,-2.9448,-2.9448,-2.907,-2.8915,-2.9211,-2.9121,-2.9168,-2.9448,-2.9313,-2.9296,-2.9448,-2.8627,-2.7838,-2.718,-2.6588,-2.5703,-2.4596,-2.4881,-2.5183,-2.5415,-2.4852,-2.4606,-2.4565,-2.3897,-2.3595,-2.3595,-2.3595,-2.3595,-2.3625,-2.3759,-2.4106,-2.4372,0.0,0.0,0.0,0.0,0.0,0.0,0.0,0.0,0.0,0.0,0.0,0.0,0.0,0.0,0.0,0.0,0.0,0.0,0.0,0.0,0.0,0.0,0.0,0.0,0.0,0.0,0.0,0.0,0.0,0.0,0.0,0.0,0.0,-2.4961,0.0,-2.3324,0.0,0.0,0.0,-2.1934,-2.2383,-2.2812,-2.3242,-2.4082,-2.4375,-2.4238,-2.3398,0.0,0.0,0.0,0.0,0.0,0.0,0.0,-2.3592,-2.2726,-2.3379,-2.4253,0.0,0.0,0.0,0.0,0.0,0.0,0.0,-3.3669,-3.3512,-3.2408,-3.4493,-3.6408,-3.6035,-3.5755,-3.5115,-3.3635,-3.3242,-3.2683,-3.1455,-3.0615,-3.0277,-3.0649,-2.9722,-2.9144,-2.9533,-2.8873,-2.8433,-2.8433,-2.8095,-2.8044,-2.8416,-2.8433,-2.8602,-2.9011,-2.8421,-2.8239,-2.8628,-2.714,-2.6509,-2.6704,-2.5612,-2.4679,-2.39,-2.4319,-2.4947,-2.5679,-2.5113,-2.4977,-2.5112,-2.4209,-2.3907,-2.396,-2.3614,-2.3675,-2.3991,-2.3991,-2.4307,-2.4712,0.0,0.0,0.0,0.0,0.0,0.0,0.0,0.0,0.0,0.0,0.0,0.0,0.0,0.0,0.0,0.0,0.0,0.0,0.0,0.0,0.0,0.0,0.0,0.0,0.0,0.0,0.0,0.0,0.0,0.0,0.0,0.0,0.0,0.0,0.0,0.0,0.0,0.0,0.0,0.0,-2.2266,-2.2656,-2.3203,-2.4062,-2.4746,-2.5156,-2.4434,-2.3769,-2.3086,-2.2363,0.0,0.0,0.0,0.0,-2.4264,-2.3527,-2.3669,-2.3938,0.0,0.0,0.0,0.0,0.0,0.0,0.0,-3.18,-3.2135,-3.1366,-3.3568,-3.5509,-3.5077,-3.4826,-3.4017,-3.2004,-3.1513,-3.085,-2.9217,-2.8873,-2.8822,-2.8958,-2.8636,-2.845,-2.8569,-2.7892,-2.7401,-2.7401,-2.686,-2.6826,-2.7588,-2.7503,-2.7791,-2.8569,-2.7584,-2.7313,-2.7947,-2.5758,-2.5171,-2.6144,-2.4374,-2.3407,-2.3282,-2.392,-2.4764,-2.5779,-2.5234,-2.5308,-2.5678,-2.4418,-2.4081,-2.4278,-2.3693,-2.388,-2.4552,-2.4552,-2.4816,-2.5128,0.0,0.0,0.0,0.0,0.0,0.0,0.0,0.0,0.0,0.0,0.0,0.0,0.0,0.0,0.0,0.0,0.0,0.0,-1.7988,0.0,0.0,-2.0586,0.0,0.0,0.0,0.0,0.0,0.0,0.0,0.0,0.0,0.0,0.0,0.0,0.0,0.0,0.0,0.0,0.0,0.0,0.0,0.0,-2.3281,-2.4082,-2.4004,-2.3437,-2.332,-2.3242,-2.3184,-2.3066,-2.2988,0.0,0.0,0.0,-2.4366,-2.4197,-2.3678,-2.3293,0.0,0.0,0.0,0.0,0.0,0.0,0.0,0.0,-2.9981,0.0,-3.1825,-3.2985,-3.2557,-3.1637,-3.0896,-3.0889,-3.0019,-2.9304,-2.9045,-2.8399,-2.823,-2.8907,-2.7249,-2.6302,-2.6945,-2.6336,-2.5896,-2.5896,-2.5812,-2.6065,-2.681,-2.6251,-2.6251,-2.6979,-2.6826,-2.6792,-2.691,-2.6168,-2.5768,-2.5681,-2.3977,-2.3163,-2.3155,-2.3235,-2.389,-2.4919,-2.4471,-2.4507,-2.487,-2.3658,-2.3533,-2.4137,-2.4042,-2.4461,-2.5105,-2.5105,-2.5144,-2.5048,0.0,0.0,0.0,0.0,0.0,0.0,0.0,0.0,0.0,0.0,0.0,0.0,0.0,0.0,0.0,-1.748,-1.7773,-1.8203,-1.8691,-1.9902,-2.0605,-2.0605,-2.1074,0.0,0.0,0.0,0.0,0.0,0.0,0.0,0.0,-2.5117,-2.532,0.0,0.0,0.0,0.0,0.0,0.0,0.0,0.0,0.0,0.0,0.0,-2.459,-2.3887,-2.4375,-2.4258,-2.3867,-2.3867,-2.3848,-2.3828,-2.3828,0.0,0.0,0.0,-2.4698,0.0,0.0,0.0,0.0,0.0,0.0,0.0,0.0,0.0,-2.8164,-2.7953,-2.8681,-2.9692,-3.0784,-3.0366,-2.9687,-2.9145,-2.8643,-2.818,-2.7757,-2.7402,-2.7317,-2.7655,-2.6454,-2.5629,-2.5731,-2.526,-2.479,-2.4298,-2.4726,-2.5023,-2.5146,-2.5056,-2.5118,-2.5439,-2.5179,-2.503,-2.503,-2.4533,-2.4139,-2.3764,-2.3052,-2.2647,-2.2492,-2.2892,-2.3647,-2.4612,-2.4398,-2.468,-2.5146,-2.3769,-2.3735,-2.4457,-2.4051,-2.4327,-2.4997,-2.4997,-2.5157,-2.5236,0.0,0.0,0.0,0.0,0.0,0.0,0.0,0.0,0.0,0.0,0.0,0.0,0.0,0.0,0.0,0.0,-1.8535,-1.8945,-1.959,-2.0234,-2.0703,-2.0918,-2.1543,-2.1797,0.0,0.0,0.0,0.0,0.0,0.0,-2.5677,-2.5667,-2.5645,0.0,-2.5603,0.0,0.0,0.0,0.0,0.0,0.0,0.0,0.0,0.0,0.0,0.0,-2.5469,-2.5273,-2.4727,-2.4727,-2.4727,-2.4727,-2.4727,-2.5176,0.0,0.0,0.0,0.0,0.0,0.0,0.0,0.0,0.0,0.0,0.0,0.0,-2.6495,0.0,-2.6025,-2.6896,-2.8576,-2.8666,-2.8194,-2.7369,-2.7097,-2.6776,-2.6218,-2.6133,-2.6133,-2.6133,-2.5376,-2.4761,-2.4431,-2.4097,-2.3668,-2.3124,-2.3668,-2.4039,-2.4048,-2.4152,-2.432,-2.4506,-2.4111,-2.3901,-2.3901,-2.3271,-2.2741,-2.2389,-2.218,-2.1995,-2.1923,-2.247,-2.3178,-2.3934,-2.415,-2.4526,-2.4949,-2.3646,-2.3636,-2.4398,-2.3835,-2.4067,-2.4746,-2.4928,-2.503,-2.4977,0.0,0.0,0.0,0.0,0.0,0.0,0.0,0.0,0.0,0.0,0.0,0.0,0.0,-2.0488,-2.0136,-1.9297,-1.998,-2.0488,-2.0527,-2.0566,-2.0977,-2.1797,-2.1875,0.0,-2.418,0.0,0.0,0.0,0.0,0.0,-2.5604,-2.5608,-2.5582,-2.5504,-2.5632,-2.5664,-2.5605,0.0,0.0,0.0,0.0,0.0,0.0,0.0,0.0,0.0,0.0,-2.5664,-2.5625,-2.5625,-2.5625,-2.5625,-2.5625,-2.5664,-2.5668,0.0,0.0,0.0,0.0,0.0,0.0,0.0,0.0,0.0,0.0,0.0,-2.4923,-2.4568,-2.4857,-2.5234,-2.5327,-2.5362,-2.5414,-2.5673,-2.5118,-2.4675,-2.4625,-2.4625,-2.4625,-2.4625,-2.3577,-2.2845,-2.2813,-2.246,-2.2362,-2.27,-2.2764,-2.3266,-2.4411,-2.3833,-2.3765,-2.4489,-2.4475,-2.4444,-2.4444,-2.3285,-2.27,-2.2652,-2.1569,-2.1278,-2.1617,-2.165,-2.194,-2.2462,-2.3156,-2.3477,-2.3444,-2.2682,-2.2789,-2.3465,-2.3431,-2.387,-2.4596,-2.5306,-2.4812,-2.3803,0.0,0.0,0.0,0.0,0.0,0.0,0.0,0.0,0.0,0.0,0.0,0.0,0.0,-2.0564,-2.0469,-2.0156,-2.043,-2.0575,-2.0546,-2.0536,-2.0915,-2.1797,-2.2363,-2.2969,-2.3613,0.0,0.0,0.0,0.0,-2.5684,-2.5664,-2.5659,-2.5626,-2.5572,-2.5619,-2.5621,-2.5605,-2.5664,0.0,0.0,0.0,0.0,0.0,0.0,0.0,0.0,0.0,0.0,-2.5703,-2.5703,-2.5703,-2.5701,-2.5698,-2.5672,-2.5619,-2.5476,0.0,0.0,0.0,0.0,0.0,0.0,0.0,-2.3472,-2.3648,-2.3759,-2.3709,-2.3393,-2.329,-2.33,-2.33,-2.4069,-2.4756,-2.4862,-2.4661,-2.4506,-2.4506,-2.4506,-2.4506,-2.4506,-2.3695,-2.3026,-2.2745,-2.241,-2.2054,-2.1648,-2.2115,-2.2488,-2.2648,-2.2656,-2.2818,-2.3088,-2.3088,-2.3088,-2.3088,-2.2368,-2.1991,-2.1991,-2.1342,-2.1213,-2.1582,-2.1582,-2.1869,-2.2327,-2.2581,-2.297,-2.3342,-2.2615,-2.2733,-2.3393,-2.3393,-2.3562,-2.3816,-2.4086,-2.391,-2.3438,0.0,0.0,0.0,0.0,0.0,0.0,0.0,0.0,0.0,0.0,0.0,0.0,0.0,0.0,-2.1152,-2.1445,-2.1171,-2.1119,-2.1361,-2.1342,-2.1727,-2.2572,-2.3164,-2.3647,-2.4004,-2.5098,0.0,0.0,0.0,0.0,0.0,0.0,-2.5661,-2.5602,-2.5618,-2.5619,0.0,0.0,0.0,-2.5703,0.0,0.0,-2.4902,0.0,0.0,0.0,0.0,0.0,0.0,-2.5696,-2.5697,-2.5675,-2.5663,-2.5601,0.0,0.0,0.0,0.0,0.0,0.0,0.0,0.0,0.0,-2.3434,-2.3502,-2.3369,-2.3069,-2.2652,-2.2426,-2.231,-2.231,-2.3105,-2.3748,-2.3748,-2.3748,-2.3748,-2.3748,-2.3748,-2.3748,-2.3748,-2.3173,-2.2675,-2.2351,-2.2046,-2.1675,-2.1244,-2.1751,-2.2003,-2.1823,-2.1974,-2.2077,-2.2077,-2.2077,-2.2135,-2.231,-2.1823,-2.1688,-2.1823,-2.1399,-2.1399,-2.1823,-2.1823,-2.2003,-2.231,-2.231,-2.2581,-2.2987,-2.2513,-2.2598,-2.3038,-2.3038,-2.3038,-2.3054,-2.3308,-2.3241,-2.3004,0.0,0.0,0.0,0.0,0.0,0.0,0.0,0.0,0.0,0.0,0.0,0.0,0.0,0.0,0.0,-2.3125,-2.2365,-2.2201,-2.3045,-2.3025,-2.3349,-2.4165,-2.4206,-2.4635,-2.5585,-2.5605,0.0,0.0,0.0,0.0,0.0,0.0,-2.5664,0.0,-2.568,-2.5659,-2.562,0.0,-2.5703,-2.5703,0.0,-2.5703,-2.5703,0.0,0.0,0.0,-2.5703,-2.5703,0.0,-2.5701,0.0,0.0,0.0,0.0,0.0,0.0,0.0,0.0,0.0,0.0,0.0,0.0,0.0,0.0,-2.3346,0.0,-2.3014,-2.2415,-2.231,-2.231,-2.231,-2.231,-2.231,-2.231,-2.231,-2.231,-2.231,-2.231,-2.231,-2.231,-2.1899,-2.1612,-2.1612,-2.1275,-2.1213,-2.1582,-2.1612,-2.1823,-2.2282,-2.1869,-2.1612,-2.1582,-2.1612,-2.1823,-2.2282,-2.1853,-2.1853,-2.2282,-2.1823,-2.1869,-2.231,-2.231,-2.231,-2.231,-2.231,-2.231,-2.231,-2.231,-2.231,-2.231,-2.231,-2.231,-2.2395,-2.3105,-2.2919,-2.2412,0.0,0.0,0.0,0.0,0.0,0.0,0.0,0.0,0.0,0.0,0.0,0.0,0.0,0.0,-2.2873,-2.3121,-2.2889,-2.2796,-2.294,-2.2939,-2.3303,-2.4158,-2.4191,-2.4614,-2.5517,-2.5581,0.0,0.0,0.0,0.0,0.0,0.0,0.0,0.0,-2.5687,-2.5682,-2.5678,-2.569,0.0,0.0,-2.5703,-2.5703,0.0,0.0,0.0,0.0,0.0,-2.5704,-2.5696,0.0,-2.562,-2.5582,0.0,0.0,0.0,0.0,0.0,0.0,-2.4651,0.0,0.0,0.0,0.0,0.0,-2.33,0.0,-2.2738,-2.236,-2.231,-2.231,-2.231,-2.231,-2.231,-2.231,-2.231,-2.231,-2.231,-2.231,-2.231,-2.231,-2.218,-2.2106,-2.2106,-2.202,-2.1991,-2.2106,-2.2106,-2.2163,-2.2282,-2.218,-2.1957,-2.1628,-2.1928,-2.218,-2.231,-2.218,-2.218,-2.231,-2.218,-2.2163,-2.231,-2.231,-2.231,-2.231,-2.231,-2.231,-2.231,-2.231,-2.231,-2.231,-2.231,-2.231,-2.2327,-2.253,-2.2496,-2.2344,0.0,0.0,0.0,0.0,0.0,0.0,0.0,0.0,0.0,0.0,0.0,0.0,0.0,0.0,-2.3745,-2.4101,-2.3755,-2.365,-2.3928,-2.3928,-2.413,-2.4639,-2.4659,-2.4909,-2.5447,-2.5511,0.0,0.0,0.0,0.0,0.0,0.0,0.0,0.0,0.0,0.0,0.0,0.0,0.0,0.0,-2.5703,0.0,0.0,-2.5703,-2.5672,0.0,0.0,0.0,-2.5615,-2.5577,-2.553,0.0,0.0,0.0,0.0,0.0,0.0,0.0,0.0,0.0,0.0,0.0,0.0,0.0,-2.3093,-2.2848,-2.2608,-2.2349,-2.231,-2.231,-2.231,-2.231,-2.231,-2.231,-2.2135,-2.2003,-2.2003,-2.2003,-2.1945,-2.1781,-2.1751,-2.1751,-2.1751,-2.1751,-2.1751,-2.1751,-2.1751,-2.1751,-2.1751,-2.1751,-2.1705,-2.1582,-2.1869,-2.2106,-2.231,-2.231,-2.231,-2.231,-2.231,-2.231,-2.231,-2.231,-2.231,-2.231,-2.231,-2.231,-2.231,-2.231,-2.231,-2.231,-2.231,-2.231,-2.231,-2.231,-2.231,-2.231,0.0,0.0,0.0,0.0,0.0,0.0,0.0,0.0,0.0,0.0,0.0,0.0,0.0,0.0,0.0,0.0,-2.4755,-2.4572,-2.5341,-2.5322,-2.5303,-2.5303,-2.5303,-2.5341,-2.5409,-2.5466,0.0,0.0,0.0,0.0,0.0,0.0,0.0,0.0,0.0,0.0,0.0,0.0,0.0,-2.5698,-2.5698,-2.5682,0.0,0.0,-2.5649,-2.5601,-2.5601,-2.5569,-2.5507,-2.5488,-2.5437,0.0,0.0,0.0,0.0,0.0,-2.4864,0.0,0.0,0.0,0.0,0.0,-2.3692,0.0,-2.2898,-2.2695,-2.2573,-2.2349,-2.231,-2.231,-2.231,-2.231,-2.231,-2.231,-2.1957,-2.1658,-2.1628,-2.1552,-2.1399,-2.1023,-2.0991,-2.0991,-2.0991,-2.0991,-2.0991,-2.0991,-2.1023,-2.1055,-2.0991,-2.1086,-2.1275,-2.1582,-2.1658,-2.1899,-2.2282,-2.231,-2.231,-2.231,-2.231,-2.231,-2.231,-2.231,-2.231,-2.231,-2.231,-2.231,-2.231,-2.231,-2.231,-2.231,-2.231,-2.231,-2.231,-2.231,-2.231,-2.231,-2.0004,0.0,0.0,0.0,0.0,0.0,0.0,0.0,0.0,0.0,0.0,0.0,0.0,0.0,0.0,0.0,-2.5264,-2.5207,-2.5303,-2.5303,-2.5303,-2.5303,-2.5341,-2.539,-2.5409,-2.5524,0.0,0.0,0.0,0.0,0.0,0.0,0.0,0.0,0.0,0.0,0.0,0.0,0.0,-2.5627,-2.5627,0.0,-2.5682,-2.564,-2.5608,-2.5601,-2.5601,-2.5553,-2.5483,-2.5444,-2.5264,-2.5084,0.0,0.0,0.0,-2.4651,0.0,0.0,0.0,0.0,0.0,0.0,-2.3692,0.0,-2.3117,-2.2721,-2.236,-2.231,-2.231,-2.231,-2.231,-2.231,-2.231,-2.231,-2.2209,-2.2032,-2.1658,-2.1306,-2.1086,-2.1007,-2.0991,-2.0991,-2.0991,-2.0991,-2.0991,-2.0991,-2.1306,-2.1337,-2.1023,-2.1661,-2.1899,-2.1628,-2.1974,-2.2209,-2.231,-2.231,-2.231,-2.231,-2.231,-2.231,-2.231,-2.231,-2.231,-2.231,-2.231,-2.231,-2.231,-2.231,-2.231,-2.231,-2.231,-2.231,-2.231,-2.231,-2.231,-2.231,-2.0312,0.0,0.0,0.0,0.0,0.0,0.0,0.0,0.0,0.0,0.0,0.0,0.0,0.0,0.0,0.0,0.0,0.0,0.0,-2.5322,-2.5341,-2.5341,-2.5409,-2.5446,-2.5444,-2.5551,-2.5601,0.0,0.0,0.0,0.0,0.0,0.0,0.0,0.0,0.0,0.0,0.0,-2.5556,-2.5553,-2.5561,0.0,-2.5595,-2.5557,-2.5537,-2.5505,-2.5505,-2.5466,-2.5409,-2.537,-2.5182,0.0,-2.501,-2.4917,-2.4775,0.0,-2.4575,-2.4478,0.0,0.0,0.0,-2.3996,-2.3692,0.0,0.0,-2.273,-2.2463,-2.2321,-2.231,-2.231,-2.231,-2.231,-2.231,-2.231,-2.1961,-2.1645,-2.1582,-2.1244,-2.0829,-2.0413,-2.0345,-2.0345,-2.0345,-2.0345,-2.0345,-2.0345,-2.0715,-2.0975,-2.0991,-2.1598,-2.1957,-2.1957,-2.218,-2.231,-2.231,-2.231,-2.231,-2.231,-2.231,-2.231,-2.231,-2.231,-2.231,-2.231,-2.231,-2.231,-2.231,-2.231,-2.231,-2.231,-2.231,-2.231,-2.231,-2.231,-2.231,-2.231,-2.0312,0.0,0.0,0.0,0.0,0.0,0.0,0.0,0.0,0.0,0.0,0.0,0.0,0.0,0.0,0.0,0.0,0.0,0.0,-2.539,-2.5428,-2.5416,-2.5476,-2.552,-2.5523,-2.5587,-2.5619,0.0,0.0,0.0,0.0,0.0,0.0,0.0,0.0,0.0,0.0,0.0,0.0,-2.5486,0.0,-2.5476,-2.5505,-2.5492,-2.5456,-2.5409,-2.539,-2.5312,-2.5253,-2.5303,-2.513,-2.4911,-2.4949,-2.4836,0.0,0.0,0.0,0.0,0.0,0.0,0.0,-2.3858,-2.3692,-2.3459,0.0,0.0,0.0,-2.2349,-2.231,-2.231,-2.231,-2.231,-2.231,-2.231,-2.1721,-2.1323,-2.1552,-2.1244,-2.0731,-2.0015,-1.9945,-1.9945,-1.9945,-1.9889,-1.9839,-1.9945,-2.0158,-2.055,-2.1086,-2.143,-2.1823,-2.2282,-2.231,-2.231,-2.231,-2.231,-2.231,-2.231,-2.231,-2.231,-2.231,-2.231,-2.231,-2.231,-2.231,-2.231,-2.231,-2.231,-2.231,-2.231,-2.231,-2.231,-2.231,-2.231,-2.231,-2.231,-2.0312,-2.0869,0.0,0.0,0.0,0.0,0.0,0.0,0.0,0.0,0.0,0.0,0.0,0.0,0.0,0.0,0.0,0.0,-2.5486,0.0,0.0,-2.5482,-2.5545,-2.5601,-2.5591,-2.564,-2.5698,-2.5698,0.0,0.0,0.0,0.0,0.0,0.0,-2.5543,0.0,0.0,0.0,-2.5409,0.0,-2.5361,-2.539,0.0,-2.5438,-2.5409,-2.539,-2.5322,-2.5192,-2.5057,-2.5253,-2.4975,-2.4591,0.0,-2.4559,-2.4303,-2.4478,0.0,0.0,0.0,0.0,-2.4409,-2.419,-2.3692,-2.3253,-2.3165,0.0,-2.2349,-2.231,0.0,-2.231,-2.231,0.0,0.0,-2.231,-2.2225,-2.2003,-2.1658,-2.1244,-2.0959,-2.0862,-2.0862,-2.0862,-2.0862,-2.0499,-2.0382,-2.0829,-2.0516,-2.0667,-2.1491,-2.1598,-2.1823,-2.2282,-2.231,-2.231,-2.231,-2.231,-2.231,-2.231,-2.231,-2.231,-2.231,-2.231,-2.231,-2.231,-2.231,-2.231,-2.231,-2.231,-2.231,-2.231,-2.231,-2.231,-2.231,-2.231,-2.231,-2.231,-2.0389,-2.0946,0.0,0.0,0.0,0.0,0.0,0.0,0.0,0.0,0.0,0.0,0.0,0.0,0.0,0.0,0.0,-2.5505,0.0,0.0,0.0,-2.5557,-2.5624,-2.5652,-2.5652,-2.5694,-2.5703,-2.5703,-2.5664,0.0,0.0,0.0,0.0,0.0,-2.5447,0.0,-2.539,0.0,-2.5341,0.0,0.0,-2.5322,0.0,-2.5341,-2.5341,-2.5341,-2.5303,-2.5163,-2.5022,-2.5099,-2.485,-2.4512,-2.4591,-2.4426,0.0,-2.4426,0.0,0.0,0.0,-2.4409,-2.4247,-2.3978,-2.3692,-2.3392,-2.2996,-2.2712,-2.2473,-2.2321,0.0,0.0,0.0,0.0,0.0,0.0,-2.2061,-2.1928,-2.2003,-2.1645,-2.1244,-2.1039,-2.0532,-2.0243,-2.0243,-2.007,-2.0035,-2.0243,-2.0296,-2.0583,-2.1213,-2.1244,-2.1446,-2.1899,-2.1899,-2.1899,-2.1899,-2.2163,-2.231,-2.231,-2.231,-2.231,-2.231,-2.231,-2.231,-2.231,-2.231,-2.231,-2.231,-2.231,-2.231,-2.231,-2.231,-2.231,-2.231,-2.231,-2.231,-2.231,-2.11,0.0,0.0,0.0,0.0,0.0,0.0,0.0,0.0,0.0,0.0,0.0,-2.5625,-2.5588,0.0,0.0,-2.5533,-2.5524,0.0,0.0,-2.5596,0.0,0.0,0.0,-2.5657,-2.5657,-2.5657,-2.5657,-2.5609,0.0,0.0,0.0,0.0,0.0,0.0,-2.5341,-2.5303,0.0,-2.5303,-2.5303,-2.5303,-2.5303,-2.5284,-2.5253,-2.5214,-2.5214,-2.5171,-2.503,-2.4885,-2.4974,-2.4776,-2.4528,-2.4604,-2.4476,-2.4321,0.0,0.0,0.0,-2.4461,-2.4393,-2.4191,-2.3816,-2.3631,-2.3414,-2.2822,-2.2634,-2.2537,-2.2349,-2.231,0.0,0.0,0.0,-2.231,-2.231,0.0,-2.1899,-2.2237,-2.1899,-2.1538,-2.1385,-2.0797,-2.0379,-2.0227,-2.0104,-2.005,-2.005,-2.0104,-2.0398,-2.0959,-2.0862,-2.1039,-2.1582,-2.1582,-2.1658,-2.1794,-2.2135,-2.231,-2.231,-2.231,-2.231,-2.231,-2.231,-2.231,-2.231,-2.231,-2.231,-2.231,-2.231,-2.231,-2.231,-2.231,-2.231,-2.231,-2.231,-2.231,-2.231,-2.2716,-2.3417,0.0,0.0,0.0,0.0,0.0,0.0,0.0,0.0,0.0,0.0,0.0,0.0,0.0,0.0,0.0,-2.5601,-2.5601,0.0,-2.5561,0.0,0.0,-2.558,0.0,-2.5517,-2.5517,-2.5517,-2.5508,-2.5506,0.0,0.0,0.0,0.0,0.0,-2.5303,-2.5303,-2.5303,-2.5303,-2.5303,-2.5303,-2.5303,-2.5274,-2.5088,-2.501,-2.4998,-2.4869,-2.4685,-2.4575,-2.4898,-2.4776,-2.4559,-2.4885,-2.4766,-2.4528,-2.4731,-2.4639,-2.4495,-2.4495,-2.4495,-2.4355,-2.384,-2.3477,-2.3117,-2.2772,-2.25,-2.231,-2.231,-2.231,-2.231,-2.231,-2.231,-2.231,0.0,-2.2282,0.0,0.0,-2.1899,-2.1764,-2.2209,-2.2237,-2.2032,-2.1582,-2.1181,-2.0975,-2.0975,-2.0174,-2.007,-2.0959,-2.0583,-2.0715,-2.1582,-2.1582,-2.1823,-2.2265,-2.2282,-2.231,-2.231,-2.231,-2.231,-2.231,-2.231,-2.231,-2.231,-2.231,-2.231,-2.231,-2.231,-2.231,-2.231,-2.231,-2.231,-2.231,-2.231,-2.231,-2.231,0.0,0.0,0.0,0.0,0.0,0.0,0.0,-2.5598,0.0,0.0,-2.5615,0.0,0.0,-2.5564,-2.5564,0.0,0.0,-2.5534,-2.5534,-2.5538,0.0,0.0,0.0,-2.5524,0.0,-2.5495,-2.5495,-2.5495,-2.5448,-2.5434,0.0,0.0,0.0,0.0,0.0,-2.5303,0.0,0.0,0.0,0.0,0.0,-2.5099,-2.5099,-2.5173,-2.513,-2.4979,-2.4949,-2.4752,-2.4545,-2.4766,-2.4697,-2.4543,-2.4799,-2.4785,-2.4685,-2.4623,-2.4543,-2.4461,-2.4339,-2.4303,-2.421,-2.3798,-2.3437,-2.3117,-2.2772,-2.25,-2.231,-2.231,-2.231,-2.231,-2.231,-2.231,0.0,0.0,0.0,-2.231,0.0,-2.2163,-2.2003,-2.1853,-2.1615,-2.1166,-2.0398,-2.0208,-2.0139,-2.0139,-1.9889,-1.9945,-2.0516,-2.0124,-2.0158,-2.0699,-2.1039,-2.1291,-2.1462,-2.202,-2.231,-2.231,-2.231,-2.231,-2.231,-2.231,-2.231,-2.231,-2.231,-2.231,-2.231,-2.231,-2.231,-2.231,-2.231,-2.231,-2.231,-2.231,-2.231,-2.231,-2.5187,0.0,0.0,0.0,0.0,0.0,0.0,0.0,0.0,0.0,-2.5538,0.0,-2.5492,0.0,-2.5506,0.0,-2.5486,-2.5449,-2.5457,-2.5466,0.0,-2.5421,-2.5453,-2.5447,0.0,0.0,-2.5428,-2.5428,-2.539,-2.537,0.0,0.0,0.0,0.0,0.0,-2.5303,-2.5303,-2.5303,-2.5264,0.0,0.0,-2.4943,-2.4943,-2.5072,-2.5049,-2.4911,-2.4845,-2.4723,-2.4623,-2.476,-2.4716,-2.4639,-2.4828,-2.4785,-2.467,-2.4545,-2.4444,-2.4357,-2.4247,-2.419,-2.4113,-2.3795,-2.3437,-2.3117,-2.2772,-2.25,-2.231,-2.231,-2.231,-2.231,-2.231,-2.231,-2.231,0.0,0.0,0.0,0.0,-2.231,-2.2135,-2.1658,-2.1368,-2.0878,-2.0,-1.9909,-1.9839,-1.9711,-1.969,-1.9803,-2.0054,-1.9839,-1.9874,-2.028,-2.0764,-2.1055,-2.1213,-2.1945,-2.231,-2.231,-2.231,-2.231,-2.231,-2.231,-2.231,-2.231,-2.231,-2.231,-2.231,-2.231,-2.231,-2.231,-2.231,-2.231,-2.231,-2.231,-2.231,-2.231,-2.5303,0.0,0.0,0.0,-2.5341,0.0,0.0,0.0,-2.5492,0.0,-2.5492,-2.5486,-2.5486,-2.5486,-2.5486,-2.5486,-2.5428,-2.5409,-2.5409,-2.5409,0.0,0.0,-2.537,-2.536,-2.5293,0.0,0.0,0.0,-2.5303,-2.5303,0.0,0.0,0.0,0.0,-2.5303,0.0,-2.5303,-2.5303,-2.5163,-2.4986,-2.4842,-2.479,-2.479,-2.479,-2.479,-2.476,-2.4578,-2.4623,-2.479,-2.479,-2.479,-2.4814,-2.4949,-2.4762,-2.4512,-2.4512,-2.4357,-2.4209,-2.419,-2.419,-2.4113,-2.3795,-2.3459,-2.3117,-2.2797,-2.25,-2.231,-2.231,-2.231,-2.231,-2.231,-2.231,-2.2282,0.0,0.0,0.0,-2.231,-2.231,-2.2135,-2.1658,-2.1582,-2.1228,-2.0382,-2.028,-2.0124,-1.9726,-1.969,-1.969,-1.969,-1.969,-1.9874,-2.0246,-2.0748,-2.1181,-2.1552,-2.2077,-2.231,-2.231,-2.231,-2.231,-2.231,-2.231,-2.231,-2.231,-2.231,-2.231,-2.231,-2.231,-2.231,-2.231,-2.231,-2.231,-2.231,-2.231,-2.231,-2.231,-2.5303,-2.5303,-2.5303,0.0,-2.5303,-2.5322,-2.5322,-2.539,0.0,0.0,-2.5389,-2.5409,-2.537,-2.5341,-2.5341,-2.5341,-2.5341,0.0,0.0,0.0,0.0,-2.5303,-2.5322,-2.5243,-2.5088,-2.5224,-2.5224,-2.5088,0.0,0.0,-2.5303,0.0,0.0,0.0,0.0,0.0,-2.5284,-2.5141,-2.4993,-2.4842,-2.4654,-2.4594,-2.4594,-2.4594,-2.4594,-2.4559,-2.4528,-2.4545,-2.4594,-2.4594,-2.467,-2.4804,-2.4842,-2.4785,-2.47,-2.4526,-2.4461,-2.4393,-2.4247,-2.419,-2.417,-2.4094,-2.3631,-2.3165,-2.3093,-2.2686,-2.231,-2.231,-2.231,-2.231,-2.231,-2.231,-2.218,-2.184,0.0,0.0,-2.2237,-2.231,-2.2135,-2.1658,-2.1337,-2.0926,-2.0348,-2.0035,-1.9803,-1.9726,-1.969,-1.969,-1.969,-1.969,-1.9747,-1.9839,-2.0599,-2.1055,-2.115,-2.1915,-2.231,-2.231,-2.231,-2.231,-2.231,-2.231,-2.231,-2.231,-2.231,-2.231,-2.231,-2.231,-2.231,-2.231,-2.231,-2.231,-2.231,-2.231,-2.231,-2.231,-2.5303,0.0,0.0,-2.5303,0.0,-2.5726,-2.536,-2.5322,-2.5341,-2.5303,-2.5322,0.0,-2.5303,-2.5303,-2.5264,-2.5192,-2.5163,0.0,-2.5091,0.0,0.0,-2.508,-2.508,-2.5024,-2.4917,-2.5024,0.0,-2.4917,0.0,0.0,-2.5091,0.0,0.0,0.0,0.0,-2.5253,-2.5152,-2.4885,-2.4737,-2.4654,-2.4444,-2.4375,0.0,-2.4375,-2.4375,-2.4375,-2.4375,-2.4478,-2.4607,-2.4528,-2.4594,-2.467,-2.467,-2.4607,-2.4528,-2.441,-2.4375,-2.4339,-2.4228,-2.419,-2.419,-2.419,-2.3692,-2.3189,-2.3189,-2.2721,-2.231,-2.231,-2.231,-2.231,-2.231,-2.231,-2.2209,-2.1957,-2.1718,-2.1688,-2.1974,-2.2003,-2.184,-2.1399,-2.0959,-2.0583,-2.0314,-1.9945,-1.969,-1.969,-1.969,-1.969,-1.969,-1.969,-1.969,-1.969,-2.0548,-2.0991,-2.0991,-2.184,-2.231,-2.231,-2.231,-2.231,-2.231,-2.231,-2.231,-2.231,-2.231,-2.231,-2.231,-2.231,-2.231,-2.231,-2.231,-2.231,-2.231,-2.231,-2.231,-2.231,-2.5303,0.0,0.0,0.0,0.0,-2.6178,-2.5418,-2.5399,-2.5457,-2.5457,-2.536,-2.5303,-2.5303,-2.5303,-2.5214,-2.5022,-2.501,-2.4937,-2.4818,-2.4804,-2.4804,-2.4804,-2.4804,-2.479,-2.476,-2.479,-2.479,-2.476,-2.479,-2.4804,0.0,0.0,0.0,0.0,0.0,0.0,0.0,-2.4636,-2.4478,-2.4462,-2.4266,-2.419,-2.419,-2.419,-2.419,-2.419,-2.419,-2.4426,-2.4731,-2.4528,-2.4478,-2.4495,-2.4461,-2.4339,-2.419,-2.419,-2.419,-2.419,-2.419,-2.419,-2.419,-2.4151,-2.3671,-2.3189,-2.3141,-2.2695,-2.231,-2.231,-2.231,-2.231,-2.231,-2.2237,-2.2237,-2.2282,-2.1899,-2.1612,-2.1688,-2.1658,-2.146,-2.1118,-2.0616,0.0,-2.0314,-1.9945,-1.9711,-1.9782,-1.9782,-1.9782,-1.9782,-1.9782,-1.9782,-1.9782,-2.0565,-2.1039,-2.1086,-2.1886,-2.231,-2.231,-2.231,-2.231,-2.231,-2.231,-2.231,-2.231,-2.231,-2.231,-2.231,-2.231,-2.231,-2.231,-2.231,-2.231,-2.231,-2.231,-2.231,-2.231,-2.5303,0.0,0.0,0.0,0.0,-2.5476,-2.5322,-2.5909,-2.637,-2.637,-2.5755,-2.5303,-2.5303,-2.5303,-2.5214,-2.5022,-2.501,-2.4937,-2.4818,-2.4804,-2.4804,-2.4804,-2.4804,-2.4716,-2.4561,-2.4716,-2.4716,-2.4543,-2.4716,-2.4804,-2.4804,0.0,0.0,0.0,0.0,0.0,-2.4814,-2.4591,-2.441,-2.4247,-2.4209,-2.419,-2.419,-2.419,-2.419,-2.419,-2.419,-2.4339,-2.4528,-2.4321,-2.4357,-2.4461,-2.4303,-2.4228,-2.419,-2.419,-2.419,-2.419,-2.419,-2.419,-2.4113,-2.3876,-2.35,-2.3117,-2.2848,-2.2527,-2.231,-2.231,-2.231,-2.231,-2.231,-2.1974,-2.1853,-2.2237,-2.1899,-2.1735,-2.2106,-2.1823,-2.1582,-2.1491,-2.0797,-2.0314,-2.0314,-1.9945,-1.9839,-2.0158,-2.0177,-2.0177,-2.0177,-2.0177,-2.0177,-2.0177,-2.0731,-2.115,-2.1491,-2.2032,-2.231,-2.231,-2.231,-2.231,-2.231,-2.231,-2.231,-2.231,-2.231,-2.231,-2.231,-2.231,-2.231,-2.231,-2.231,-2.231,-2.231,-2.231,-2.231,-2.231,-2.6659,0.0,0.0,0.0,-2.6659,-2.6659,-2.6659,-2.6921,-2.6822,-2.6033,-2.5463,-2.5152,-2.5152,-2.5072,-2.4962,-2.4766,-2.4752,-2.4663,-2.4512,-2.4495,-2.4495,-2.4495,-2.4495,-2.4444,-2.4358,-2.4426,-2.4426,-2.4339,-2.4426,-2.4495,-2.4495,-2.47,0.0,0.0,0.0,-2.4693,0.0,-2.4445,-2.4284,-2.419,-2.419,-2.419,-2.419,-2.419,-2.419,-2.419,-2.419,-2.4247,-2.4339,-2.4228,-2.4247,-2.4339,-2.4228,-2.419,-2.419,-2.419,-2.419,-2.417,-2.3996,-2.3937,-2.3896,-2.3735,-2.3323,-2.2947,-2.2972,-2.2634,-2.231,-2.231,-2.231,-2.231,-2.231,-2.1928,-2.1748,-2.2209,-2.1899,-2.1688,-2.1899,-2.1718,-2.1413,-2.0959,-2.055,-2.0212,-2.0,-2.0,-2.0,-2.0,-2.0193,-2.0314,-2.0314,-2.0516,-2.0649,-2.0649,-2.107,-2.1399,-2.1582,-2.2077,-2.231,-2.231,-2.231,-2.231,-2.231,-2.231,-2.231,-2.231,-2.231,-2.231,-2.231,-2.231,-2.231,-2.231,-2.231,-2.231,-2.231,-2.231,-2.231,-2.231,0.0,-2.7351,0.0,0.0,-2.7715,-2.758,-2.7524,-2.7249,-2.6682,-2.5655,-2.518,-2.4949,-2.4949,-2.485,-2.4716,-2.4528,-2.4495,-2.4409,-2.4209,-2.419,-2.419,-2.419,-2.419,-2.419,-2.419,-2.419,-2.419,-2.419,-2.4373,-2.4373,-2.4209,-2.4883,0.0,0.0,0.0,-2.4628,-2.4495,-2.4284,-2.419,-2.419,-2.419,-2.419,-2.419,-2.419,-2.419,-2.419,-2.419,-2.419,-2.419,-2.419,-2.419,-2.419,-2.419,-2.419,-2.419,-2.419,-2.419,-2.4151,-2.3876,-2.3735,-2.3692,-2.361,-2.3141,-2.2746,-2.2965,-2.2634,-2.231,-2.231,-2.231,-2.231,-2.231,-2.2003,-2.1869,-2.2237,-2.2003,-2.1764,-2.1764,-2.1658,-2.1321,-2.055,-2.0348,-2.0158,-1.9747,-2.0054,-2.0158,-1.9839,-2.028,-2.0583,-2.0583,-2.0926,-2.1118,-2.1118,-2.143,-2.1658,-2.1764,-2.2106,-2.231,-2.231,-2.231,-2.231,-2.231,-2.231,-2.231,-2.231,-2.231,-2.231,-2.231,-2.231,-2.231,-2.231,-2.231,-2.231,-2.231,-2.231,-2.231,-2.231,0.0,0.0,-2.7731,-2.7574,-2.7098,-2.66,-2.6237,-2.5652,-2.5468,-2.611,-2.5397,-2.4832,-2.4832,-2.4818,-2.4716,-2.4528,-2.4495,-2.4409,-2.4209,-2.419,-2.419,-2.419,-2.419,-2.419,-2.419,-2.419,-2.419,-2.419,-2.4924,-2.4905,-2.4226,-2.5717,-2.6132,-2.5577,-2.5392,-2.5005,-2.4495,-2.4284,-2.419,-2.419,-2.419,-2.419,-2.419,-2.419,-2.419,-2.419,-2.419,-2.419,-2.419,-2.419,-2.419,-2.419,-2.419,-2.419,-2.419,-2.419,-2.419,-2.419,-2.417,-2.3917,-2.3628,-2.3305,-2.2972,-2.2634,-2.2426,-2.2338,-2.231,-2.231,-2.231,-2.231,-2.231,-2.2254,-2.2254,-2.2282,-2.2254,-2.2237,-2.2237,-2.1869,-2.143,-2.0991,-2.055,-2.0158,-1.9747,-2.0054,-2.028,-2.0246,-2.1007,-2.1491,-2.1491,-2.1521,-2.1552,-2.1552,-2.1582,-2.1794,-2.2237,-2.2282,-2.231,-2.231,-2.231,-2.231,-2.231,-2.231,-2.231,-2.231,-2.231,-2.231,-2.231,-2.231,-2.231,-2.231,-2.231,-2.231,-2.231,-2.231,-2.231,-2.231,-2.941,-2.8986,-2.871,-2.896,-2.8408,-2.7643,-2.6839,-2.6384,-2.5916,-2.531,-2.4876,-2.4623,-2.4623,-2.4512,-2.441,-2.4339,-2.4321,-2.4284,-2.4227,-2.419,-2.419,-2.419,-2.419,-2.419,-2.419,-2.419,-2.419,-2.419,-2.5017,-2.5237,-2.4944,-2.5706,-2.5671,-2.4962,-2.4764,-2.4541,-2.4321,-2.4228,-2.419,-2.419,-2.419,-2.419,-2.419,-2.419,-2.419,-2.419,-2.419,-2.419,-2.419,-2.419,-2.419,-2.419,-2.419,-2.419,-2.419,-2.419,-2.419,-2.4113,-2.3714,-2.35,-2.3323,-2.2996,-2.2678,-2.249,-2.2527,-2.2426,-2.231,-2.231,-2.231,-2.231,-2.231,-2.231,-2.231,-2.231,-2.231,-2.231,-2.231,-2.2135,-2.1869,-2.1399,-2.1197,-2.091,-2.0499,-2.0846,-2.1102,-2.1102,-2.1383,-2.1582,-2.1582,-2.1869,-2.2032,-2.2032,-2.2032,-2.2106,-2.231,-2.231,-2.231,-2.231,-2.231,-2.231,-2.231,-2.231,-2.231,-2.231,-2.231,-2.231,-2.231,-2.231,-2.231,-2.231,-2.231,-2.231,-2.231,-2.231,-2.231,-2.231,-3.0737,-3.0083,-2.9569,-2.9859,-2.9303,-2.8407,-2.7206,-2.6747,-2.6023,-2.4595,-2.441,-2.441,-2.441,-2.4284,-2.419,-2.419,-2.419,-2.419,-2.419,-2.419,-2.419,-2.419,-2.419,-2.419,-2.419,-2.419,-2.419,-2.419,-2.5017,-2.5293,-2.5072,-2.543,-2.5319,-2.4763,-2.4634,-2.441,-2.419,-2.419,-2.419,-2.419,-2.419,-2.419,-2.419,-2.419,-2.419,-2.419,-2.419,-2.419,-2.419,-2.419,-2.419,-2.419,-2.419,-2.419,-2.419,-2.419,-2.4132,-2.3937,-2.3477,-2.3189,-2.2996,-2.2772,-2.25,-2.2349,-2.2537,-2.2453,-2.231,-2.231,-2.231,-2.231,-2.231,-2.231,-2.231,-2.231,-2.231,-2.231,-2.231,-2.231,-2.2135,-2.1658,-2.1491,-2.1275,-2.0829,-2.1181,-2.143,-2.143,-2.1658,-2.1794,-2.1794,-2.2106,-2.231,-2.231,-2.231,-2.231,-2.231,-2.231,-2.231,-2.231,-2.231,-2.231,-2.231,-2.231,-2.231,-2.231,-2.231,-2.231,-2.231,-2.231,-2.231,-2.231,-2.231,-2.231,-2.231,-2.231,-2.231,-2.231,-3.1525,-3.0987,-3.0241,-2.9782,-2.9213,-2.8297,-2.6831,-2.6096,-2.5338,-2.4338,-2.419,-2.419,-2.419,-2.419,-2.419,-2.419,-2.419,-2.419,-2.419,-2.419,-2.419,-2.419,-2.419,-2.419,-2.419,-2.419,-2.419,-2.419,-2.5017,-2.4999,-2.4226,-2.5035,-2.5403,-2.5384,-2.5403,-2.4924,-2.419,-2.419,-2.419,-2.419,-2.419,-2.419,-2.419,-2.419,-2.419,-2.419,-2.419,-2.419,-2.419,-2.419,-2.419,-2.419,-2.419,-2.419,-2.419,-2.419,-2.3976,-2.3692,-2.3692,-2.3212,-2.2721,-2.2695,-2.25,-2.231,-2.231,-2.231,-2.231,-2.231,-2.231,-2.231,-2.231,-2.231,-2.231,-2.231,-2.231,-2.231,-2.231,-2.231,-2.2135,-2.1658,-2.1244,-2.0829,-2.0348,-2.0715,-2.1007,-2.1007,-2.1811,-2.2282,-2.2282,-2.231,-2.231,-2.231,-2.231,-2.231,-2.231,-2.231,-2.231,-2.231,-2.231,-2.231,-2.231,-2.231,-2.231,-2.231,-2.231,-2.231,-2.231,-2.231,-2.231,-2.231,-2.231,-2.231,-2.231,-2.231,-2.231,-2.231,-3.0288,-3.0102,-2.9832,-2.9551,-2.8858,-2.7923,-2.6767,-2.5958,-2.5187,-2.4319,-2.419,-2.419,-2.419,-2.419,-2.419,-2.419,-2.419,-2.419,-2.419,-2.419,-2.419,-2.419,-2.419,-2.419,-2.419,-2.419,-2.419,-2.419,-2.5017,-2.5274,-2.5035,-2.5293,-2.5109,-2.4575,-2.4575,-2.4428,-2.419,-2.419,-2.419,-2.419,-2.419,-2.419,-2.419,-2.419,-2.419,-2.419,-2.419,-2.419,-2.419,-2.419,-2.419,-2.417,-2.3917,-2.3876,-2.3876,-2.3876,-2.361,-2.3323,-2.3069,-2.2873,-2.266,-2.249,-2.236,-2.231,-2.231,-2.231,-2.231,-2.231,-2.231,-2.231,-2.231,-2.231,-2.231,-2.231,-2.231,-2.231,-2.231,-2.231,-2.2237,-2.2106,-2.1945,-2.1705,-2.1228,-2.1615,-2.1735,-2.143,-2.1974,-2.231,-2.231,-2.231,-2.231,-2.231,-2.231,-2.231,-2.231,-2.231,-2.231,-2.231,-2.231,-2.231,-2.231,-2.231,-2.231,-2.231,-2.231,-2.231,-2.231,-2.231,-2.231,-2.231,-2.231,-2.231,-2.231,-2.231,-2.231,-2.231,-3.011,-2.9921,-2.9644,-2.9434,-2.8947,-2.8234,-2.7206,-2.6612,-2.5897,-2.4795,-2.4649,-2.4538,-2.4226,-2.419,-2.419,-2.419,-2.419,-2.419,-2.419,-2.419,-2.419,-2.419,-2.419,-2.419,-2.419,-2.419,-2.419,-2.419,-2.4685,-2.4962,-2.4962,-2.4962,-2.4667,-2.419,-2.419,-2.419,-2.419,-2.419,-2.419,-2.419,-2.419,-2.419,-2.419,-2.419,-2.419,-2.419,-2.419,-2.419,-2.417,-2.4036,-2.4016,-2.3937,-2.3628,-2.3414,-2.3346,-2.3477,-2.3259,-2.2972,-2.2772,-2.2634,-2.25,-2.2349,-2.231,-2.231,-2.231,-2.231,-2.231,-2.231,-2.231,-2.231,-2.231,-2.231,-2.231,-2.231,-2.231,-2.231,-2.231,-2.231,-2.231,-2.231,-2.2135,-2.1928,-2.1628,-2.1869,-2.1928,-2.1612,-2.2032,-2.231,-2.231,-2.231,-2.231,-2.231,-2.231,-2.231,-2.231,-2.231,-2.231,-2.231,-2.231,-2.231,-2.231,-2.231,-2.231,-2.231,-2.231,-2.231,-2.231,-2.231,-2.231,-2.231,-2.231,-2.231,-2.231,-2.231,-2.231,-2.231,-3.0696,-3.0225,-2.9588,-2.9394,-2.9316,-2.8936,-2.7941,-2.775,-2.7145,-2.5605,-2.5403,-2.509,-2.4281,-2.419,-2.419,-2.419,-2.419,-2.419,-2.419,-2.419,-2.419,-2.419,-2.419,-2.419,-2.419,-2.419,-2.419,-2.419,-2.419,-2.419,-2.419,-2.419,-2.419,-2.419,-2.4263,-2.4245,-2.419,-2.4263,-2.4245,-2.419,-2.419,-2.419,-2.419,-2.419,-2.419,-2.419,-2.419,-2.419,-2.4151,-2.3816,-2.3692,-2.3649,-2.3277,-2.2947,-2.2772,-2.3069,-2.2923,-2.2669,-2.2669,-2.2473,-2.231,-2.231,-2.231,-2.231,-2.231,-2.231,-2.231,-2.231,-2.231,-2.231,-2.231,-2.231,-2.231,-2.231,-2.231,-2.231,-2.231,-2.231,-2.231,-2.231,-2.1899,-2.1658,-2.1582,-2.1628,-2.1658,-2.1582,-2.2032,-2.231,-2.231,-2.231,-2.231,-2.231,-2.231,-2.231,-2.231,-2.231,-2.231,-2.231,-2.231,-2.231,-2.231,-2.231,-2.231,-2.231,-2.231,-2.231,-2.231,-2.231,-2.231,-2.231,-2.231,-2.231,-2.231,-2.231,-2.231,-2.231,-2.9533,-2.9311,-2.916,-2.9112,-2.8596,-2.8095,-2.7846,-2.7273,-2.6521,-2.5531,-2.5403,-2.509,-2.4281,-2.419,-2.419,-2.419,-2.419,-2.419,-2.419,-2.419,-2.419,-2.419,-2.419,-2.419,-2.419,-2.419,-2.419,-2.419,-2.419,-2.419,-2.419,-2.419,-2.419,-2.4226,-2.4832,-2.4759,-2.4245,-2.485,-2.4759,-2.419,-2.419,-2.419,-2.419,-2.419,-2.419,-2.419,-2.419,-2.419,-2.4151,-2.3816,-2.3692,-2.3606,-2.2996,-2.2772,-2.2721,-2.2797,-2.2616,-2.2371,-2.2371,-2.2349,-2.231,-2.231,-2.231,-2.231,-2.231,-2.231,-2.231,-2.231,-2.231,-2.231,-2.231,-2.231,-2.231,-2.231,-2.231,-2.231,-2.231,-2.231,-2.231,-2.231,-2.2209,-2.2003,-2.1628,-2.1928,-2.2003,-2.1628,-2.2032,-2.231,-2.231,-2.231,-2.231,-2.231,-2.231,-2.231,-2.231,-2.231,-2.231,-2.231,-2.231,-2.231,-2.231,-2.231,-2.231,-2.231,-2.231,-2.231,-2.231,-2.231,-2.231,-2.231,-2.231,-2.231,-2.231,-2.231,-2.231,-2.231,-2.914,-2.8994,-2.8994,-2.8994,-2.865,-2.8356,-2.8356,-2.7677,-2.6851,-2.6043,-2.5642,-2.509,-2.4281,-2.419,-2.419,-2.419,-2.419,-2.419,-2.419,-2.419,-2.419,-2.419,-2.419,-2.419,-2.419,-2.419,-2.4373,-2.474,-2.474,-2.474,-2.474,-2.474,-2.4538,-2.4208,-2.4649,-2.4612,-2.4226,-2.4667,-2.4593,-2.419,-2.419,-2.419,-2.419,-2.419,-2.419,-2.419,-2.419,-2.419,-2.4151,-2.3816,-2.3588,-2.3392,-2.2855,-2.2625,-2.2527,-2.2527,-2.2398,-2.231,-2.231,-2.231,-2.231,-2.231,-2.231,-2.231,-2.231,-2.231,-2.231,-2.231,-2.231,-2.231,-2.231,-2.231,-2.231,-2.231,-2.231,-2.231,-2.231,-2.231,-2.231,-2.231,-2.231,-2.2209,-2.1928,-2.2135,-2.218,-2.1928,-2.2152,-2.231,-2.231,-2.231,-2.231,-2.231,-2.231,-2.231,-2.231,-2.231,-2.231,-2.231,-2.231,-2.231,-2.231,-2.231,-2.231,-2.231,-2.231,-2.231,-2.231,-2.231,-2.231,-2.231,-2.231,-2.236,-2.2473,-2.2473,-2.2581,-2.2712,-2.914,-2.8994,-2.8994,-2.8994,-2.8994,-2.8994,-2.8994,-2.8319,-2.7512,-2.6722,-2.5897,-2.509,-2.4281,-2.419,-2.419,-2.419,-2.419,-2.419,-2.419,-2.419,-2.419,-2.419,-2.419,-2.419,-2.419,-2.419,-2.452,-2.5219,-2.5219,-2.5293,-2.5403,-2.5403,-2.5054,-2.4392,-2.4502,-2.4428,-2.4208,-2.4318,-2.43,-2.419,-2.419,-2.419,-2.419,-2.419,-2.419,-2.419,-2.419,-2.419,-2.4151,-2.3735,-2.3455,-2.3117,-2.2764,-2.2473,-2.231,-2.231,-2.231,-2.231,-2.231,-2.231,-2.231,-2.231,-2.231,-2.231,-2.231,-2.231,-2.231,-2.231,-2.231,-2.231,-2.231,-2.231,-2.231,-2.231,-2.231,-2.231,-2.231,-2.231,-2.231,-2.231,-2.231,-2.231,-2.231,-2.231,-2.231,-2.231,-2.231,-2.231,-2.231,-2.231,-2.231,-2.231,-2.231,-2.231,-2.231,-2.231,-2.231,-2.231,-2.231,-2.231,-2.231,-2.231,-2.231,-2.231,-2.2349,-2.236,-2.236,-2.2415,-2.2443,-2.2443,-2.2443,-2.2581,-2.2772,-2.2772,-2.2972,-2.3189,-2.914,-2.8994,-2.8994,-2.8994,-2.8994,-2.8994,-2.8994,-2.8319,-2.7512,-2.6722,-2.5897,-2.509,-2.4281,-2.419,-2.419,-2.419,-2.419,-2.419,-2.419,-2.419,-2.419,-2.419,-2.419,-2.419,-2.419,-2.419,-2.4263,-2.4392,-2.4392,-2.4722,-2.5403,-2.5403,-2.5329,-2.5256,-2.5915,-2.5474,-2.4245,-2.4944,-2.4814,-2.419,-2.419,-2.419,-2.419,-2.419,-2.419,-2.419,-2.419,-2.419,-2.4094,-2.35,-2.3236,-2.3111,-2.2544,-2.2321,-2.231,-2.231,-2.231,-2.231,-2.231,-2.231,-2.231,-2.231,-2.231,-2.231,-2.231,-2.231,-2.231,-2.231,-2.231,-2.231,-2.231,-2.231,-2.231,-2.231,-2.231,-2.231,-2.231,-2.231,-2.231,-2.231,-2.231,-2.231,-2.231,-2.231,-2.231,-2.231,-2.231,-2.231,-2.231,-2.231,-2.231,-2.231,-2.231,-2.231,-2.231,-2.231,-2.231,-2.231,-2.231,-2.231,-2.231,-2.231,-2.231,-2.231,-2.2537,-2.2634,-2.266,-2.294,-2.3063,-2.3063,-2.3063,-2.3087,-2.3117,-2.3117,-2.3165,-2.3189,-2.914,-2.8994,-2.8994,-2.8994,-2.8994,-2.8847,-2.8429,-2.7677,-2.6851,-2.6062,-2.5236,-2.4612,-2.4245,-2.419,-2.419,-2.419,-2.419,-2.419,-2.419,-2.419,-2.419,-2.419,-2.419,-2.419,-2.419,-2.419,-2.441,-2.4832,-2.5273,-2.5676,-2.6043,-2.6043,-2.5805,-2.5403,-2.5328,-2.4887,-2.4226,-2.4593,-2.4538,-2.419,-2.419,-2.419,-2.419,-2.419,-2.419,-2.419,-2.419,-2.419,-2.4132,-2.3631,-2.3346,-2.3117,-2.2669,-2.2426,-2.231,-2.231,-2.231,-2.231,-2.231,-2.231,-2.231,-2.231,-2.231,-2.231,-2.231,-2.231,-2.231,-2.231,-2.231,-2.231,-2.231,-2.231,-2.231,-2.231,-2.231,-2.231,-2.231,-2.231,-2.231,-2.231,-2.231,-2.231,-2.231,-2.231,-2.231,-2.231,-2.231,-2.231,-2.231,-2.231,-2.231,-2.231,-2.231,-2.231,-2.231,-2.231,-2.231,-2.231,-2.231,-2.231,-2.231,-2.2436,-2.2544,-2.2588,-2.284,-2.2972,-2.2972,-2.3141,-2.3189,-2.3189,-2.3189,-2.3323,-2.3459,-2.3459,-2.3588,-2.3735,-2.9104,-2.8994,-2.8994,-2.8994,-2.8994,-2.8741,-2.7915,-2.7126,-2.6319,-2.5513,-2.4685,-2.419,-2.419,-2.419,-2.419,-2.419,-2.419,-2.419,-2.419,-2.419,-2.419,-2.419,-2.419,-2.419,-2.419,-2.419,-2.4575,-2.5403,-2.6025,-2.6429,-2.6612,-2.6612,-2.6172,-2.5384,-2.474,-2.4373,-2.419,-2.419,-2.419,-2.419,-2.419,-2.419,-2.419,-2.419,-2.419,-2.419,-2.419,-2.419,-2.4151,-2.3816,-2.3477,-2.3141,-2.2822,-2.2527,-2.231,-2.231,-2.231,-2.231,-2.231,-2.231,-2.231,-2.231,-2.231,-2.231,-2.231,-2.231,-2.231,-2.231,-2.231,-2.231,-2.231,-2.231,-2.231,-2.231,-2.231,-2.231,-2.231,-2.231,-2.231,-2.231,-2.231,-2.231,-2.231,-2.231,-2.231,-2.231,-2.231,-2.231,-2.231,-2.231,-2.231,-2.231,-2.231,-2.231,-2.231,-2.231,-2.231,-2.231,-2.231,-2.2321,-2.2415,-2.2599,-2.2764,-2.29,-2.3183,-2.3323,-2.3323,-2.3392,-2.3414,-2.3414,-2.3414,-2.3588,-2.3816,-2.3816,-2.3976,-2.419,-2.8994,-2.8994,-2.8994,-2.8994,-2.8994,-2.8741,-2.7915,-2.7126,-2.6319,-2.5513,-2.4685,-2.419,-2.419,-2.419,-2.419,-2.419,-2.419,-2.419,-2.419,-2.419,-2.419,-2.419,-2.419,-2.419,-2.419,-2.419,-2.4575,-2.5403,-2.5458,-2.586,-2.6612,-2.6612,-2.6172,-2.5403,-2.5348,-2.4887,-2.419,-2.419,-2.419,-2.419,-2.419,-2.419,-2.419,-2.419,-2.419,-2.419,-2.419,-2.419,-2.4151,-2.3816,-2.3477,-2.3141,-2.2822,-2.2527,-2.231,-2.231,-2.231,-2.231,-2.231,-2.231,-2.231,-2.231,-2.231,-2.231,-2.231,-2.231,-2.231,-2.231,-2.231,-2.231,-2.231,-2.231,-2.231,-2.231,-2.231,-2.231,-2.231,-2.231,-2.231,-2.231,-2.231,-2.231,-2.231,-2.231,-2.231,-2.231,-2.231,-2.231,-2.231,-2.231,-2.231,-2.231,-2.231,-2.231,-2.231,-2.231,-2.231,-2.231,-2.231,-2.2426,-2.2669,-2.2695,-2.2873,-2.3206,-2.3522,-2.3671,-2.3692,-2.3996,-2.4132,-2.4132,-2.4132,-2.4151,-2.417,-2.417,-2.417,-2.419,-2.8994,-2.8994,-2.8994,-2.8994,-2.8466,-2.7805,-2.7145,-2.6374,-2.5566,-2.4759,-2.4392,-2.419,-2.419,-2.419,-2.419,-2.419,-2.419,-2.419,-2.419,-2.419,-2.419,-2.419,-2.419,-2.419,-2.419,-2.419,-2.4355,-2.4649,-2.5164,-2.5568,-2.586,-2.586,-2.5676,-2.5384,-2.4869,-2.4483,-2.419,-2.419,-2.419,-2.419,-2.419,-2.419,-2.419,-2.419,-2.419,-2.419,-2.419,-2.419,-2.4132,-2.3566,-2.3323,-2.3093,-2.2607,-2.2388,-2.231,-2.231,-2.231,-2.231,-2.231,-2.231,-2.231,-2.231,-2.231,-2.231,-2.231,-2.231,-2.231,-2.231,-2.231,-2.231,-2.231,-2.231,-2.231,-2.231,-2.231,-2.231,-2.231,-2.231,-2.231,-2.231,-2.231,-2.231,-2.231,-2.231,-2.231,-2.231,-2.231,-2.231,-2.231,-2.231,-2.231,-2.231,-2.2463,-2.2463,-2.231,-2.231,-2.231,-2.231,-2.2463,-2.2599,-2.2721,-2.3117,-2.3392,-2.3522,-2.3858,-2.4016,-2.4016,-2.4151,-2.419,-2.419,-2.419,-2.4266,-2.4375,-2.4247,-2.4266,-2.4393,-2.8994,-2.8994,-2.892,-2.8686,-2.8007,-2.7236,-2.6355,-2.575,-2.5127,-2.43,-2.419,-2.419,-2.419,-2.4094,-2.4036,-2.4036,-2.4036,-2.4036,-2.4036,-2.4151,-2.419,-2.419,-2.419,-2.419,-2.419,-2.419,-2.4318,-2.4575,-2.5146,-2.5403,-2.5403,-2.5403,-2.5274,-2.5017,-2.4447,-2.419,-2.419,-2.419,-2.419,-2.419,-2.419,-2.419,-2.419,-2.419,-2.419,-2.419,-2.419,-2.4113,-2.3976,-2.3522,-2.323,-2.2972,-2.2554,-2.236,-2.231,-2.231,-2.231,-2.231,-2.231,-2.231,-2.231,-2.231,-2.231,-2.231,-2.231,-2.231,-2.231,-2.231,-2.231,-2.231,-2.231,-2.231,-2.231,-2.231,-2.231,-2.231,-2.231,-2.231,-2.231,-2.231,-2.231,-2.231,-2.231,-2.231,-2.231,-2.231,-2.2388,-2.2426,-2.2426,-2.2517,-2.248,-2.231,-2.2563,-2.2573,-2.231,-2.2388,-2.2426,-2.2426,-2.2625,-2.2822,-2.3021,-2.35,-2.3774,-2.3876,-2.4094,-2.4247,-2.4284,-2.4284,-2.4321,-2.4393,-2.4393,-2.4478,-2.4559,-2.4375,-2.4375,-2.4495,-2.8975,-2.8994,-2.8737,-2.7952,-2.7787,-2.7236,-2.566,-2.5421,-2.5127,-2.43,-2.4208,-2.4208,-2.4208,-2.3896,-2.3692,-2.3692,-2.3692,-2.3692,-2.3692,-2.4016,-2.419,-2.419,-2.419,-2.419,-2.419,-2.419,-2.4575,-2.5403,-2.5403,-2.5403,-2.5403,-2.5403,-2.4942,-2.419,-2.4208,-2.4208,-2.4208,-2.419,-2.419,-2.419,-2.419,-2.419,-2.419,-2.419,-2.419,-2.419,-2.419,-2.3976,-2.3692,-2.3692,-2.3236,-2.2695,-2.2695,-2.2527,-2.231,-2.231,-2.231,-2.231,-2.231,-2.231,-2.231,-2.231,-2.231,-2.231,-2.231,-2.231,-2.231,-2.231,-2.231,-2.231,-2.231,-2.231,-2.231,-2.231,-2.231,-2.231,-2.231,-2.231,-2.231,-2.231,-2.231,-2.231,-2.231,-2.231,-2.231,-2.231,-2.2537,-2.2695,-2.2695,-2.3021,-2.2933,-2.2338,-2.2563,-2.259,-2.231,-2.2563,-2.2695,-2.2695,-2.2721,-2.3069,-2.3692,-2.3692,-2.3896,-2.419,-2.419,-2.4321,-2.4512,-2.4512,-2.4623,-2.4804,-2.4804,-2.4804,-2.4775,-2.4594,-2.4512,-2.4478,-2.8282,-2.8613,-2.892,-2.8686,-2.7714,-2.6998,-2.7071,-2.6137,-2.5311,-2.5072,-2.5054,-2.4736,-2.393,-2.3774,-2.3628,-2.3369,-2.3566,-2.3795,-2.4054,-2.4133,-2.419,-2.419,-2.419,-2.419,-2.419,-2.419,-2.4318,-2.4557,-2.4557,-2.4557,-2.4557,-2.4557,-2.4428,-2.419,-2.3937,-2.3837,-2.3837,-2.3588,-2.35,-2.35,-2.35,-2.35,-2.35,-2.35,-2.35,-2.35,-2.35,-2.3437,-2.3305,-2.3069,-2.2873,-2.2686,-2.249,-2.236,-2.231,-2.231,-2.231,-2.231,-2.231,-2.231,-2.231,-2.231,-2.231,-2.231,-2.231,-2.231,-2.231,-2.231,-2.231,-2.2462,-2.2987,-2.2649,-2.2479,-2.2987,-2.2649,-2.231,-2.231,-2.231,-2.231,-2.231,-2.231,-2.231,-2.231,-2.2463,-2.25,-2.2293,-2.2537,-2.2797,-2.3045,-2.3141,-2.3135,-2.2933,-2.323,-2.3253,-2.2933,-2.2772,-2.2695,-2.2721,-2.3165,-2.3522,-2.3714,-2.3937,-2.4191,-2.441,-2.441,-2.451,-2.4716,-2.4716,-2.4746,-2.4804,-2.4804,-2.4869,-2.4911,-2.4771,-2.4766,-2.4845,-2.8374,-2.8686,-2.8883,-2.8594,-2.7457,-2.6667,-2.6814,-2.575,-2.4944,-2.4944,-2.4807,-2.4483,-2.3768,-2.3459,-2.3277,-2.3212,-2.3522,-2.3837,-2.417,-2.419,-2.419,-2.419,-2.419,-2.419,-2.419,-2.419,-2.419,-2.419,-2.419,-2.419,-2.4208,-2.4074,-2.3996,-2.3996,-2.3649,-2.35,-2.35,-2.33,-2.3189,-2.3189,-2.3189,-2.3189,-2.3189,-2.3189,-2.3189,-2.3189,-2.3189,-2.3117,-2.2972,-2.2772,-2.2634,-2.2527,-2.2349,-2.231,-2.231,-2.231,-2.231,-2.231,-2.231,-2.231,-2.231,-2.231,-2.231,-2.231,-2.231,-2.231,-2.2395,-2.2682,-2.275,-2.297,-2.3697,-2.346,-2.3308,-2.3748,-2.3224,-2.2835,-2.3122,-2.2919,-2.275,-2.275,-2.275,-2.2632,-2.2344,-2.2453,-2.2527,-2.2463,-2.2712,-2.2996,-2.3189,-2.3437,-2.3459,-2.3212,-2.3522,-2.3544,-2.3189,-2.3117,-2.3093,-2.3093,-2.3522,-2.3819,-2.402,-2.4247,-2.4445,-2.4607,-2.4607,-2.4712,-2.4877,-2.4877,-2.4936,-2.5006,-2.5006,-2.5049,-2.5099,-2.493,-2.4924,-2.4998,-2.8792,-2.8828,-2.865,-2.7824,-2.7034,-2.6264,-2.5623,-2.4814,-2.43,-2.43,-2.4026,-2.3783,-2.371,-2.3117,-2.2873,-2.3165,-2.3522,-2.3837,-2.417,-2.419,-2.419,-2.419,-2.419,-2.419,-2.419,-2.419,-2.419,-2.419,-2.419,-2.417,-2.4151,-2.3837,-2.3692,-2.3649,-2.3282,-2.3165,-2.3141,-2.3117,-2.3135,-2.3135,-2.3135,-2.3135,-2.3135,-2.3135,-2.3135,-2.3135,-2.3135,-2.2923,-2.2643,-2.2643,-2.25,-2.231,-2.231,-2.231,-2.231,-2.231,-2.231,-2.231,-2.231,-2.231,-2.231,-2.231,-2.2361,-2.2395,-2.2327,-2.2361,-2.2598,-2.3257,-2.3444,-2.3714,-2.4441,-2.4557,-2.4523,-2.4608,-2.3968,-2.3714,-2.4421,-2.39,-2.3494,-2.3494,-2.3494,-2.3224,-2.2564,-2.2525,-2.2668,-2.298,-2.321,-2.3383,-2.3407,-2.3912,-2.3917,-2.3323,-2.3588,-2.3588,-2.33,-2.3588,-2.3714,-2.3692,-2.3756,-2.404,-2.4495,-2.4528,-2.4639,-2.4832,-2.4832,-2.4891,-2.5022,-2.5022,-2.5122,-2.5303,-2.5303,-2.5303,-2.5274,-2.5099,-2.5022,-2.501,-2.7255,-2.764,-2.7805,-2.6998,-2.619,-2.5805,-2.6264,-2.5658,-2.5146,-2.5146,-2.4863,-2.4396,-2.3765,-2.3346,-2.3117,-2.3189,-2.3522,-2.3837,-2.417,-2.419,-2.419,-2.419,-2.419,-2.419,-2.419,-2.419,-2.419,-2.419,-2.419,-2.4074,-2.3816,-2.3735,-2.3566,-2.3282,-2.2972,-2.2822,-2.2797,-2.2581,-2.248,-2.248,-2.248,-2.248,-2.248,-2.248,-2.248,-2.248,-2.248,-2.247,-2.2388,-2.2388,-2.2349,-2.231,-2.231,-2.231,-2.231,-2.231,-2.231,-2.231,-2.231,-2.231,-2.231,-2.231,-2.2733,-2.3004,-2.2446,-2.275,-2.3207,-2.3359,-2.3849,-2.4475,-2.522,-2.4881,-2.4678,-2.527,-2.4729,-2.4337,-2.4489,-2.4371,-2.4269,-2.4269,-2.4269,-2.4188,-2.4036,-2.431,-2.4723,-2.5254,-2.4818,-2.4653,-2.4908,-2.4461,-2.4113,-2.3996,-2.4036,-2.4054,-2.3996,-2.4054,-2.3976,-2.3714,-2.4136,-2.4391,-2.4512,-2.4654,-2.4828,-2.4949,-2.4949,-2.5065,-2.5224,-2.5224,-2.5264,-2.5303,-2.5303,-2.5303,-2.5284,-2.5253,-2.5224,-2.5224,-2.716,-2.72,-2.709,-2.6667,-2.5933,-2.555,-2.5952,-2.5328,-2.4774,-2.4616,-2.4284,-2.3925,-2.3513,-2.3165,-2.3093,-2.3414,-2.3753,-2.4016,-2.419,-2.419,-2.419,-2.419,-2.419,-2.419,-2.419,-2.419,-2.4113,-2.3958,-2.3958,-2.3795,-2.3459,-2.33,-2.3117,-2.2947,-2.2625,-2.25,-2.25,-2.2377,-2.231,-2.231,-2.231,-2.231,-2.231,-2.231,-2.231,-2.231,-2.231,-2.231,-2.231,-2.231,-2.231,-2.231,-2.231,-2.231,-2.231,-2.231,-2.231,-2.231,-2.231,-2.231,-2.2395,-2.275,-2.3105,-2.3291,-2.2919,-2.3393,-2.4019,-2.4374,-2.4763,-2.5253,-2.5998,-2.5812,-2.5676,-2.6065,-2.5507,-2.5135,-2.549,-2.5236,-2.5017,-2.5017,-2.5017,-2.4958,-2.4795,-2.4977,-2.5295,-2.5779,-2.5589,-2.5552,-2.5725,-2.5486,-2.5162,-2.4777,-2.4759,-2.4615,-2.4358,-2.4339,-2.4505,-2.4783,-2.4592,-2.4572,-2.4733,-2.485,-2.4981,-2.5152,-2.5152,-2.5203,-2.5303,-2.5303,-2.5303,-2.5303,-2.5303,-2.5303,-2.5303,-2.5303,-2.5322,-2.5341,-2.7193,-2.6808,-2.6274,-2.6188,-2.564,-2.5201,-2.5201,-2.4572,-2.4016,-2.3753,-2.3414,-2.3189,-2.3189,-2.2996,-2.3093,-2.3649,-2.3996,-2.419,-2.419,-2.419,-2.419,-2.419,-2.419,-2.419,-2.419,-2.4151,-2.3976,-2.3692,-2.3692,-2.35,-2.3117,-2.2822,-2.2686,-2.2608,-2.2415,-2.231,-2.231,-2.231,-2.231,-2.231,-2.231,-2.231,-2.231,-2.231,-2.231,-2.231,-2.231,-2.231,-2.231,-2.231,-2.231,-2.231,-2.231,-2.231,-2.231,-2.231,-2.231,-2.231,-2.231,-2.2395,-2.2632,-2.3241,-2.3579,-2.3782,-2.3782,-2.4239,-2.4847,-2.5473,-2.571,-2.5981,-2.659,-2.6691,-2.6742,-2.686,-2.637,-2.6201,-2.6793,-2.637,-2.593,-2.5812,-2.5859,-2.5777,-2.5513,-2.5586,-2.5789,-2.6071,-2.6279,-2.639,-2.639,-2.652,-2.63,-2.5642,-2.5476,-2.5189,-2.4718,-2.4569,-2.5017,-2.6038,-2.5061,-2.4888,-2.543,-2.5321,-2.5362,-2.5514,-2.536,-2.5303,-2.5303,-2.5303,-2.5303,-2.5303,-2.5303,-2.5303,-2.5322,-2.5322,-2.537,-2.5416,-2.5575,-2.5397,-2.4998,-2.4591,-2.4428,-2.4355,-2.4355,-2.401,-2.3735,-2.3714,-2.3414,-2.3189,-2.3189,-2.3414,-2.3588,-2.3692,-2.3996,-2.419,-2.419,-2.419,-2.419,-2.419,-2.419,-2.419,-2.419,-2.3917,-2.3753,-2.3692,-2.3692,-2.3392,-2.2772,-2.2721,-2.259,-2.2349,-2.231,-2.231,-2.231,-2.231,-2.231,-2.231,-2.231,-2.231,-2.231,-2.231,-2.231,-2.231,-2.231,-2.231,-2.231,-2.231,-2.231,-2.231,-2.231,-2.231,-2.231,-2.231,-2.231,-2.231,-2.231,-2.2767,-2.3274,-2.3376,-2.4357,-2.5304,-2.5304,-2.5389,-2.549,-2.5592,-2.6116,-2.6573,-2.6674,-2.6691,-2.6911,-2.7571,-2.7553,-2.7554,-2.762,-2.7553,-2.7283,-2.6623,-2.685,-2.7034,-2.7009,-2.7571,-2.7975,-2.8,-2.7742,-2.7578,-2.7578,-2.6958,-2.6557,-2.6447,-2.575,-2.5428,-2.5539,-2.4849,-2.508,-2.625,-2.5349,-2.5755,-2.7236,-2.665,-2.6388,-2.639,-2.563,-2.5303,-2.5303,-2.5303,-2.5303,-2.5303,-2.5303,-2.5341,-2.539,-2.5447,-2.5484,-2.5482,-2.4662,-2.4369,-2.3934,-2.393,-2.3917,-2.3917,-2.3917,-2.3795,-2.3566,-2.3189,-2.3021,-2.2923,-2.2923,-2.3392,-2.3692,-2.3692,-2.3996,-2.419,-2.419,-2.419,-2.419,-2.419,-2.419,-2.4113,-2.3917,-2.3774,-2.3522,-2.3141,-2.3141,-2.2915,-2.249,-2.249,-2.2398,-2.231,-2.231,-2.231,-2.231,-2.231,-2.231,-2.231,-2.231,-2.231,-2.231,-2.231,-2.231,-2.231,-2.231,-2.231,-2.231,-2.231,-2.231,-2.231,-2.231,-2.231,-2.231,-2.231,-2.231,-2.231,-2.231,-2.2835,-2.3494,-2.39,-2.4814,-2.571,-2.6116,-2.6218,-2.6218,-2.6218,-2.6471,-2.6691,-2.6691,-2.6691,-2.6945,-2.7689,-2.7998,-2.81,-2.7859,-2.8217,-2.823,-2.7465,-2.7927,-2.8194,-2.7926,-2.8219,-2.8496,-2.8725,-2.8557,-2.8533,-2.8688,-2.8206,-2.7846,-2.7662,-2.6729,-2.6171,-2.6046,-2.521,-2.5595,-2.7186,-2.6803,-2.7014,-2.7742,-2.6954,-2.6601,-2.6582,-2.6197,-2.5774,-2.537,-2.537,-2.539,-2.5409,-2.5409,-2.5434,-2.5471,-2.5542,-2.556,-2.5556]}]]